<?xml version="1.0" encoding="UTF-8" standalone="no" ?>
<gpx xmlns="http://www.topografix.com/GPX/1/1" xmlns:xsi="http://www.w3.org/2001/XMLSchema-instance" xsi:schemaLocation="http://www.topografix.com/GPX/1/1 http://www.topografix.com/GPX/1/1/gpx.xsd" version="1.1" creator="VisuGPX - https://www.visugpx.com">
  <metadata>
    <name>Forêt Carrefour Vienne 12-02-22</name>
    <desc><![CDATA[Boucle en Forêt au départ du carrefour de Vienne près de Sorques jusqu'à la mare aux fées.]]></desc>
  </metadata>
  <trk>
    <name><![CDATA[Forêt Carrefour Vienne 12-02-22]]></name>
    <trkseg>
      <trkpt lat="48.35606" lon="2.76135">
        <ele>98.599998474121</ele>
        <time>2022-02-12T12:50:39Z</time>
      </trkpt>
      <trkpt lat="48.35605" lon="2.76134">
        <ele>98.599998474121</ele>
        <time>2022-02-12T12:50:44Z</time>
      </trkpt>
      <trkpt lat="48.356" lon="2.76126">
        <ele>98.400001525879</ele>
        <time>2022-02-12T12:50:49Z</time>
      </trkpt>
      <trkpt lat="48.35597" lon="2.7612">
        <ele>98.599998474121</ele>
        <time>2022-02-12T12:50:54Z</time>
      </trkpt>
      <trkpt lat="48.35597" lon="2.76115">
        <ele>98.599998474121</ele>
        <time>2022-02-12T12:50:59Z</time>
      </trkpt>
      <trkpt lat="48.35598" lon="2.76111">
        <ele>98.400001525879</ele>
        <time>2022-02-12T12:51:04Z</time>
      </trkpt>
      <trkpt lat="48.35599" lon="2.76104">
        <ele>98.599998474121</ele>
        <time>2022-02-12T12:51:09Z</time>
      </trkpt>
      <trkpt lat="48.356" lon="2.76098">
        <ele>98.599998474121</ele>
        <time>2022-02-12T12:51:14Z</time>
      </trkpt>
      <trkpt lat="48.35601" lon="2.76091">
        <ele>98.599998474121</ele>
        <time>2022-02-12T12:51:19Z</time>
      </trkpt>
      <trkpt lat="48.35601" lon="2.76085">
        <ele>98.599998474121</ele>
        <time>2022-02-12T12:51:24Z</time>
      </trkpt>
      <trkpt lat="48.35601" lon="2.7608">
        <ele>98.599998474121</ele>
        <time>2022-02-12T12:51:29Z</time>
      </trkpt>
      <trkpt lat="48.35603" lon="2.76076">
        <ele>98.800003051758</ele>
        <time>2022-02-12T12:51:34Z</time>
      </trkpt>
      <trkpt lat="48.35605" lon="2.7607">
        <ele>98.800003051758</ele>
        <time>2022-02-12T12:51:39Z</time>
      </trkpt>
      <trkpt lat="48.35606" lon="2.76062">
        <ele>98.800003051758</ele>
        <time>2022-02-12T12:51:44Z</time>
      </trkpt>
      <trkpt lat="48.35607" lon="2.76055">
        <ele>98.800003051758</ele>
        <time>2022-02-12T12:51:49Z</time>
      </trkpt>
      <trkpt lat="48.35607" lon="2.76048">
        <ele>98.800003051758</ele>
        <time>2022-02-12T12:51:54Z</time>
      </trkpt>
      <trkpt lat="48.35608" lon="2.7604">
        <ele>98.800003051758</ele>
        <time>2022-02-12T12:51:59Z</time>
      </trkpt>
      <trkpt lat="48.35608" lon="2.76031">
        <ele>98.800003051758</ele>
        <time>2022-02-12T12:52:04Z</time>
      </trkpt>
      <trkpt lat="48.3561" lon="2.76023">
        <ele>98.599998474121</ele>
        <time>2022-02-12T12:52:09Z</time>
      </trkpt>
      <trkpt lat="48.35611" lon="2.76013">
        <ele>98.599998474121</ele>
        <time>2022-02-12T12:52:14Z</time>
      </trkpt>
      <trkpt lat="48.35611" lon="2.76006">
        <ele>98.599998474121</ele>
        <time>2022-02-12T12:52:19Z</time>
      </trkpt>
      <trkpt lat="48.35611" lon="2.75999">
        <ele>98.800003051758</ele>
        <time>2022-02-12T12:52:24Z</time>
      </trkpt>
      <trkpt lat="48.35612" lon="2.7599">
        <ele>98.800003051758</ele>
        <time>2022-02-12T12:52:29Z</time>
      </trkpt>
      <trkpt lat="48.35612" lon="2.75983">
        <ele>98.800003051758</ele>
        <time>2022-02-12T12:52:34Z</time>
      </trkpt>
      <trkpt lat="48.35611" lon="2.75975">
        <ele>98.800003051758</ele>
        <time>2022-02-12T12:52:39Z</time>
      </trkpt>
      <trkpt lat="48.35612" lon="2.7597">
        <ele>98.599998474121</ele>
        <time>2022-02-12T12:52:44Z</time>
      </trkpt>
      <trkpt lat="48.35617" lon="2.75959">
        <ele>98.400001525879</ele>
        <time>2022-02-12T12:52:49Z</time>
      </trkpt>
      <trkpt lat="48.35617" lon="2.75954">
        <ele>98.400001525879</ele>
        <time>2022-02-12T12:52:54Z</time>
      </trkpt>
      <trkpt lat="48.35618" lon="2.7595">
        <ele>98.599998474121</ele>
        <time>2022-02-12T12:52:59Z</time>
      </trkpt>
      <trkpt lat="48.35617" lon="2.75945">
        <ele>98.599998474121</ele>
        <time>2022-02-12T12:53:04Z</time>
      </trkpt>
      <trkpt lat="48.35616" lon="2.7594">
        <ele>98.400001525879</ele>
        <time>2022-02-12T12:53:09Z</time>
      </trkpt>
      <trkpt lat="48.35615" lon="2.75934">
        <ele>98.599998474121</ele>
        <time>2022-02-12T12:53:14Z</time>
      </trkpt>
      <trkpt lat="48.35615" lon="2.75926">
        <ele>98.599998474121</ele>
        <time>2022-02-12T12:53:19Z</time>
      </trkpt>
      <trkpt lat="48.35616" lon="2.75918">
        <ele>98.599998474121</ele>
        <time>2022-02-12T12:53:24Z</time>
      </trkpt>
      <trkpt lat="48.35617" lon="2.75909">
        <ele>98.599998474121</ele>
        <time>2022-02-12T12:53:29Z</time>
      </trkpt>
      <trkpt lat="48.35617" lon="2.759">
        <ele>98.400001525879</ele>
        <time>2022-02-12T12:53:34Z</time>
      </trkpt>
      <trkpt lat="48.35622" lon="2.75894">
        <ele>98.400001525879</ele>
        <time>2022-02-12T12:53:39Z</time>
      </trkpt>
      <trkpt lat="48.35624" lon="2.75888">
        <ele>98.400001525879</ele>
        <time>2022-02-12T12:53:44Z</time>
      </trkpt>
      <trkpt lat="48.35625" lon="2.75882">
        <ele>98.400001525879</ele>
        <time>2022-02-12T12:53:49Z</time>
      </trkpt>
      <trkpt lat="48.35625" lon="2.75873">
        <ele>98.400001525879</ele>
        <time>2022-02-12T12:53:54Z</time>
      </trkpt>
      <trkpt lat="48.35625" lon="2.75867">
        <ele>98.599998474121</ele>
        <time>2022-02-12T12:53:59Z</time>
      </trkpt>
      <trkpt lat="48.35625" lon="2.75859">
        <ele>98.800003051758</ele>
        <time>2022-02-12T12:54:04Z</time>
      </trkpt>
      <trkpt lat="48.35626" lon="2.75849">
        <ele>98.800003051758</ele>
        <time>2022-02-12T12:54:09Z</time>
      </trkpt>
      <trkpt lat="48.35626" lon="2.75838">
        <ele>99</ele>
        <time>2022-02-12T12:54:14Z</time>
      </trkpt>
      <trkpt lat="48.35627" lon="2.75829">
        <ele>99</ele>
        <time>2022-02-12T12:54:19Z</time>
      </trkpt>
      <trkpt lat="48.35625" lon="2.75821">
        <ele>99</ele>
        <time>2022-02-12T12:54:24Z</time>
      </trkpt>
      <trkpt lat="48.35625" lon="2.75813">
        <ele>99.199996948242</ele>
        <time>2022-02-12T12:54:29Z</time>
      </trkpt>
      <trkpt lat="48.35628" lon="2.75805">
        <ele>99.199996948242</ele>
        <time>2022-02-12T12:54:34Z</time>
      </trkpt>
      <trkpt lat="48.35631" lon="2.75796">
        <ele>99.199996948242</ele>
        <time>2022-02-12T12:54:39Z</time>
      </trkpt>
      <trkpt lat="48.35632" lon="2.75786">
        <ele>99</ele>
        <time>2022-02-12T12:54:44Z</time>
      </trkpt>
      <trkpt lat="48.35631" lon="2.75777">
        <ele>99</ele>
        <time>2022-02-12T12:54:49Z</time>
      </trkpt>
      <trkpt lat="48.35633" lon="2.7577">
        <ele>99</ele>
        <time>2022-02-12T12:54:54Z</time>
      </trkpt>
      <trkpt lat="48.35633" lon="2.75764">
        <ele>98.800003051758</ele>
        <time>2022-02-12T12:54:59Z</time>
      </trkpt>
      <trkpt lat="48.35635" lon="2.75756">
        <ele>98.800003051758</ele>
        <time>2022-02-12T12:55:04Z</time>
      </trkpt>
      <trkpt lat="48.35635" lon="2.75741">
        <ele>98.599998474121</ele>
        <time>2022-02-12T12:55:09Z</time>
      </trkpt>
      <trkpt lat="48.35635" lon="2.75731">
        <ele>98.400001525879</ele>
        <time>2022-02-12T12:55:14Z</time>
      </trkpt>
      <trkpt lat="48.35634" lon="2.75721">
        <ele>98.199996948242</ele>
        <time>2022-02-12T12:55:19Z</time>
      </trkpt>
      <trkpt lat="48.35636" lon="2.75715">
        <ele>98.199996948242</ele>
        <time>2022-02-12T12:55:24Z</time>
      </trkpt>
      <trkpt lat="48.35637" lon="2.75708">
        <ele>98</ele>
        <time>2022-02-12T12:55:29Z</time>
      </trkpt>
      <trkpt lat="48.35639" lon="2.75698">
        <ele>98</ele>
        <time>2022-02-12T12:55:34Z</time>
      </trkpt>
      <trkpt lat="48.35641" lon="2.75691">
        <ele>98</ele>
        <time>2022-02-12T12:55:39Z</time>
      </trkpt>
      <trkpt lat="48.35644" lon="2.75687">
        <ele>98</ele>
        <time>2022-02-12T12:55:44Z</time>
      </trkpt>
      <trkpt lat="48.35643" lon="2.7568">
        <ele>98</ele>
        <time>2022-02-12T12:55:49Z</time>
      </trkpt>
      <trkpt lat="48.35643" lon="2.75669">
        <ele>98.199996948242</ele>
        <time>2022-02-12T12:55:54Z</time>
      </trkpt>
      <trkpt lat="48.35643" lon="2.7566">
        <ele>98.199996948242</ele>
        <time>2022-02-12T12:55:59Z</time>
      </trkpt>
      <trkpt lat="48.35643" lon="2.7565">
        <ele>98.199996948242</ele>
        <time>2022-02-12T12:56:04Z</time>
      </trkpt>
      <trkpt lat="48.35646" lon="2.75642">
        <ele>98.199996948242</ele>
        <time>2022-02-12T12:56:09Z</time>
      </trkpt>
      <trkpt lat="48.35645" lon="2.75631">
        <ele>98.400001525879</ele>
        <time>2022-02-12T12:56:14Z</time>
      </trkpt>
      <trkpt lat="48.35645" lon="2.75622">
        <ele>98.400001525879</ele>
        <time>2022-02-12T12:56:19Z</time>
      </trkpt>
      <trkpt lat="48.35648" lon="2.75615">
        <ele>98.599998474121</ele>
        <time>2022-02-12T12:56:24Z</time>
      </trkpt>
      <trkpt lat="48.35649" lon="2.75607">
        <ele>98.800003051758</ele>
        <time>2022-02-12T12:56:29Z</time>
      </trkpt>
      <trkpt lat="48.3565" lon="2.75603">
        <ele>98.800003051758</ele>
        <time>2022-02-12T12:56:34Z</time>
      </trkpt>
      <trkpt lat="48.35652" lon="2.75595">
        <ele>99</ele>
        <time>2022-02-12T12:56:39Z</time>
      </trkpt>
      <trkpt lat="48.35653" lon="2.75583">
        <ele>99</ele>
        <time>2022-02-12T12:56:44Z</time>
      </trkpt>
      <trkpt lat="48.35655" lon="2.75574">
        <ele>98.800003051758</ele>
        <time>2022-02-12T12:56:49Z</time>
      </trkpt>
      <trkpt lat="48.35656" lon="2.75564">
        <ele>98.800003051758</ele>
        <time>2022-02-12T12:56:54Z</time>
      </trkpt>
      <trkpt lat="48.35658" lon="2.75557">
        <ele>98.800003051758</ele>
        <time>2022-02-12T12:56:59Z</time>
      </trkpt>
      <trkpt lat="48.35657" lon="2.75549">
        <ele>98.800003051758</ele>
        <time>2022-02-12T12:57:04Z</time>
      </trkpt>
      <trkpt lat="48.35658" lon="2.7554">
        <ele>98.599998474121</ele>
        <time>2022-02-12T12:57:09Z</time>
      </trkpt>
      <trkpt lat="48.35658" lon="2.75532">
        <ele>98.599998474121</ele>
        <time>2022-02-12T12:57:14Z</time>
      </trkpt>
      <trkpt lat="48.3566" lon="2.75521">
        <ele>98.599998474121</ele>
        <time>2022-02-12T12:57:19Z</time>
      </trkpt>
      <trkpt lat="48.35661" lon="2.75513">
        <ele>98.599998474121</ele>
        <time>2022-02-12T12:57:24Z</time>
      </trkpt>
      <trkpt lat="48.35662" lon="2.75505">
        <ele>98.599998474121</ele>
        <time>2022-02-12T12:57:29Z</time>
      </trkpt>
      <trkpt lat="48.35664" lon="2.75497">
        <ele>98.599998474121</ele>
        <time>2022-02-12T12:57:34Z</time>
      </trkpt>
      <trkpt lat="48.35664" lon="2.7549">
        <ele>98.800003051758</ele>
        <time>2022-02-12T12:57:39Z</time>
      </trkpt>
      <trkpt lat="48.35666" lon="2.75484">
        <ele>98.800003051758</ele>
        <time>2022-02-12T12:57:44Z</time>
      </trkpt>
      <trkpt lat="48.35668" lon="2.75476">
        <ele>98.800003051758</ele>
        <time>2022-02-12T12:57:49Z</time>
      </trkpt>
      <trkpt lat="48.35672" lon="2.75467">
        <ele>98.800003051758</ele>
        <time>2022-02-12T12:57:54Z</time>
      </trkpt>
      <trkpt lat="48.35676" lon="2.75459">
        <ele>99</ele>
        <time>2022-02-12T12:57:59Z</time>
      </trkpt>
      <trkpt lat="48.35678" lon="2.75452">
        <ele>99</ele>
        <time>2022-02-12T12:58:04Z</time>
      </trkpt>
      <trkpt lat="48.35678" lon="2.75448">
        <ele>99</ele>
        <time>2022-02-12T12:58:09Z</time>
      </trkpt>
      <trkpt lat="48.35678" lon="2.75441">
        <ele>98.800003051758</ele>
        <time>2022-02-12T12:58:14Z</time>
      </trkpt>
      <trkpt lat="48.35679" lon="2.75435">
        <ele>98.800003051758</ele>
        <time>2022-02-12T12:58:19Z</time>
      </trkpt>
      <trkpt lat="48.35681" lon="2.75429">
        <ele>98.800003051758</ele>
        <time>2022-02-12T12:58:24Z</time>
      </trkpt>
      <trkpt lat="48.35684" lon="2.75421">
        <ele>98.599998474121</ele>
        <time>2022-02-12T12:58:29Z</time>
      </trkpt>
      <trkpt lat="48.35683" lon="2.75411">
        <ele>98.599998474121</ele>
        <time>2022-02-12T12:58:34Z</time>
      </trkpt>
      <trkpt lat="48.35684" lon="2.75402">
        <ele>98.800003051758</ele>
        <time>2022-02-12T12:58:39Z</time>
      </trkpt>
      <trkpt lat="48.35686" lon="2.7539">
        <ele>98.800003051758</ele>
        <time>2022-02-12T12:58:44Z</time>
      </trkpt>
      <trkpt lat="48.35688" lon="2.7538">
        <ele>98.599998474121</ele>
        <time>2022-02-12T12:58:49Z</time>
      </trkpt>
      <trkpt lat="48.35689" lon="2.75372">
        <ele>98.800003051758</ele>
        <time>2022-02-12T12:58:54Z</time>
      </trkpt>
      <trkpt lat="48.35687" lon="2.75364">
        <ele>98.800003051758</ele>
        <time>2022-02-12T12:58:59Z</time>
      </trkpt>
      <trkpt lat="48.35689" lon="2.75355">
        <ele>98.800003051758</ele>
        <time>2022-02-12T12:59:04Z</time>
      </trkpt>
      <trkpt lat="48.35691" lon="2.75347">
        <ele>98.800003051758</ele>
        <time>2022-02-12T12:59:09Z</time>
      </trkpt>
      <trkpt lat="48.3569" lon="2.75338">
        <ele>99</ele>
        <time>2022-02-12T12:59:14Z</time>
      </trkpt>
      <trkpt lat="48.3569" lon="2.75329">
        <ele>99</ele>
        <time>2022-02-12T12:59:19Z</time>
      </trkpt>
      <trkpt lat="48.35691" lon="2.75323">
        <ele>99.199996948242</ele>
        <time>2022-02-12T12:59:24Z</time>
      </trkpt>
      <trkpt lat="48.35691" lon="2.75314">
        <ele>99.400001525879</ele>
        <time>2022-02-12T12:59:29Z</time>
      </trkpt>
      <trkpt lat="48.35691" lon="2.75308">
        <ele>99.400001525879</ele>
        <time>2022-02-12T12:59:34Z</time>
      </trkpt>
      <trkpt lat="48.35694" lon="2.75298">
        <ele>99.400001525879</ele>
        <time>2022-02-12T12:59:39Z</time>
      </trkpt>
      <trkpt lat="48.35694" lon="2.7529">
        <ele>99.599998474121</ele>
        <time>2022-02-12T12:59:44Z</time>
      </trkpt>
      <trkpt lat="48.35694" lon="2.75283">
        <ele>99.800003051758</ele>
        <time>2022-02-12T12:59:49Z</time>
      </trkpt>
      <trkpt lat="48.35695" lon="2.75274">
        <ele>99.800003051758</ele>
        <time>2022-02-12T12:59:54Z</time>
      </trkpt>
      <trkpt lat="48.35697" lon="2.75263">
        <ele>99.800003051758</ele>
        <time>2022-02-12T12:59:59Z</time>
      </trkpt>
      <trkpt lat="48.35699" lon="2.75252">
        <ele>99.800003051758</ele>
        <time>2022-02-12T13:00:04Z</time>
      </trkpt>
      <trkpt lat="48.35701" lon="2.75242">
        <ele>99.800003051758</ele>
        <time>2022-02-12T13:00:09Z</time>
      </trkpt>
      <trkpt lat="48.35702" lon="2.75234">
        <ele>100</ele>
        <time>2022-02-12T13:00:14Z</time>
      </trkpt>
      <trkpt lat="48.35702" lon="2.75227">
        <ele>100</ele>
        <time>2022-02-12T13:00:19Z</time>
      </trkpt>
      <trkpt lat="48.35702" lon="2.75218">
        <ele>100.19999694824</ele>
        <time>2022-02-12T13:00:24Z</time>
      </trkpt>
      <trkpt lat="48.35702" lon="2.75209">
        <ele>100.19999694824</ele>
        <time>2022-02-12T13:00:29Z</time>
      </trkpt>
      <trkpt lat="48.35702" lon="2.75205">
        <ele>100.40000152588</ele>
        <time>2022-02-12T13:00:34Z</time>
      </trkpt>
      <trkpt lat="48.35701" lon="2.75196">
        <ele>100.40000152588</ele>
        <time>2022-02-12T13:00:39Z</time>
      </trkpt>
      <trkpt lat="48.35704" lon="2.75187">
        <ele>100.59999847412</ele>
        <time>2022-02-12T13:00:44Z</time>
      </trkpt>
      <trkpt lat="48.35707" lon="2.75176">
        <ele>100.80000305176</ele>
        <time>2022-02-12T13:00:49Z</time>
      </trkpt>
      <trkpt lat="48.35709" lon="2.75165">
        <ele>101</ele>
        <time>2022-02-12T13:00:54Z</time>
      </trkpt>
      <trkpt lat="48.35711" lon="2.75158">
        <ele>101</ele>
        <time>2022-02-12T13:00:59Z</time>
      </trkpt>
      <trkpt lat="48.3571" lon="2.75149">
        <ele>101.19999694824</ele>
        <time>2022-02-12T13:01:04Z</time>
      </trkpt>
      <trkpt lat="48.35709" lon="2.75141">
        <ele>101.40000152588</ele>
        <time>2022-02-12T13:01:09Z</time>
      </trkpt>
      <trkpt lat="48.3571" lon="2.75135">
        <ele>101.40000152588</ele>
        <time>2022-02-12T13:01:14Z</time>
      </trkpt>
      <trkpt lat="48.35711" lon="2.75128">
        <ele>101.40000152588</ele>
        <time>2022-02-12T13:01:19Z</time>
      </trkpt>
      <trkpt lat="48.35713" lon="2.7512">
        <ele>101.59999847412</ele>
        <time>2022-02-12T13:01:24Z</time>
      </trkpt>
      <trkpt lat="48.35716" lon="2.75113">
        <ele>101.80000305176</ele>
        <time>2022-02-12T13:01:29Z</time>
      </trkpt>
      <trkpt lat="48.35716" lon="2.75106">
        <ele>101.80000305176</ele>
        <time>2022-02-12T13:01:34Z</time>
      </trkpt>
      <trkpt lat="48.35716" lon="2.75097">
        <ele>102.19999694824</ele>
        <time>2022-02-12T13:01:39Z</time>
      </trkpt>
      <trkpt lat="48.35716" lon="2.75089">
        <ele>102.19999694824</ele>
        <time>2022-02-12T13:01:44Z</time>
      </trkpt>
      <trkpt lat="48.35717" lon="2.75081">
        <ele>102.40000152588</ele>
        <time>2022-02-12T13:01:49Z</time>
      </trkpt>
      <trkpt lat="48.35718" lon="2.75074">
        <ele>102.59999847412</ele>
        <time>2022-02-12T13:01:54Z</time>
      </trkpt>
      <trkpt lat="48.3572" lon="2.75068">
        <ele>102.80000305176</ele>
        <time>2022-02-12T13:01:59Z</time>
      </trkpt>
      <trkpt lat="48.3572" lon="2.75061">
        <ele>102.80000305176</ele>
        <time>2022-02-12T13:02:04Z</time>
      </trkpt>
      <trkpt lat="48.3572" lon="2.75052">
        <ele>103</ele>
        <time>2022-02-12T13:02:09Z</time>
      </trkpt>
      <trkpt lat="48.3572" lon="2.75044">
        <ele>103</ele>
        <time>2022-02-12T13:02:14Z</time>
      </trkpt>
      <trkpt lat="48.35719" lon="2.75033">
        <ele>103.19999694824</ele>
        <time>2022-02-12T13:02:19Z</time>
      </trkpt>
      <trkpt lat="48.3572" lon="2.75025">
        <ele>103.19999694824</ele>
        <time>2022-02-12T13:02:24Z</time>
      </trkpt>
      <trkpt lat="48.35721" lon="2.75017">
        <ele>103.40000152588</ele>
        <time>2022-02-12T13:02:29Z</time>
      </trkpt>
      <trkpt lat="48.35722" lon="2.75009">
        <ele>103.19999694824</ele>
        <time>2022-02-12T13:02:34Z</time>
      </trkpt>
      <trkpt lat="48.35724" lon="2.75001">
        <ele>103.19999694824</ele>
        <time>2022-02-12T13:02:39Z</time>
      </trkpt>
      <trkpt lat="48.35725" lon="2.74994">
        <ele>103.19999694824</ele>
        <time>2022-02-12T13:02:44Z</time>
      </trkpt>
      <trkpt lat="48.35727" lon="2.74987">
        <ele>103.19999694824</ele>
        <time>2022-02-12T13:02:49Z</time>
      </trkpt>
      <trkpt lat="48.35728" lon="2.74979">
        <ele>103.40000152588</ele>
        <time>2022-02-12T13:02:54Z</time>
      </trkpt>
      <trkpt lat="48.35729" lon="2.7497">
        <ele>103.19999694824</ele>
        <time>2022-02-12T13:02:59Z</time>
      </trkpt>
      <trkpt lat="48.35729" lon="2.74962">
        <ele>103</ele>
        <time>2022-02-12T13:03:04Z</time>
      </trkpt>
      <trkpt lat="48.35729" lon="2.74953">
        <ele>102.80000305176</ele>
        <time>2022-02-12T13:03:09Z</time>
      </trkpt>
      <trkpt lat="48.3573" lon="2.74945">
        <ele>102.80000305176</ele>
        <time>2022-02-12T13:03:14Z</time>
      </trkpt>
      <trkpt lat="48.35734" lon="2.74939">
        <ele>102.80000305176</ele>
        <time>2022-02-12T13:03:19Z</time>
      </trkpt>
      <trkpt lat="48.35736" lon="2.74932">
        <ele>102.80000305176</ele>
        <time>2022-02-12T13:03:24Z</time>
      </trkpt>
      <trkpt lat="48.35737" lon="2.74926">
        <ele>103</ele>
        <time>2022-02-12T13:03:29Z</time>
      </trkpt>
      <trkpt lat="48.35739" lon="2.74916">
        <ele>103</ele>
        <time>2022-02-12T13:03:34Z</time>
      </trkpt>
      <trkpt lat="48.35741" lon="2.74909">
        <ele>103</ele>
        <time>2022-02-12T13:03:39Z</time>
      </trkpt>
      <trkpt lat="48.35744" lon="2.749">
        <ele>103</ele>
        <time>2022-02-12T13:03:44Z</time>
      </trkpt>
      <trkpt lat="48.35746" lon="2.74887">
        <ele>103</ele>
        <time>2022-02-12T13:03:49Z</time>
      </trkpt>
      <trkpt lat="48.35746" lon="2.74878">
        <ele>103</ele>
        <time>2022-02-12T13:03:54Z</time>
      </trkpt>
      <trkpt lat="48.35747" lon="2.7487">
        <ele>103</ele>
        <time>2022-02-12T13:03:59Z</time>
      </trkpt>
      <trkpt lat="48.35747" lon="2.7486">
        <ele>103.19999694824</ele>
        <time>2022-02-12T13:04:04Z</time>
      </trkpt>
      <trkpt lat="48.35747" lon="2.7485">
        <ele>103.40000152588</ele>
        <time>2022-02-12T13:04:09Z</time>
      </trkpt>
      <trkpt lat="48.35747" lon="2.74842">
        <ele>103.59999847412</ele>
        <time>2022-02-12T13:04:14Z</time>
      </trkpt>
      <trkpt lat="48.35748" lon="2.74836">
        <ele>103.59999847412</ele>
        <time>2022-02-12T13:04:19Z</time>
      </trkpt>
      <trkpt lat="48.35748" lon="2.7483">
        <ele>103.59999847412</ele>
        <time>2022-02-12T13:04:24Z</time>
      </trkpt>
      <trkpt lat="48.35749" lon="2.74824">
        <ele>103.80000305176</ele>
        <time>2022-02-12T13:04:29Z</time>
      </trkpt>
      <trkpt lat="48.35749" lon="2.74816">
        <ele>103.80000305176</ele>
        <time>2022-02-12T13:04:34Z</time>
      </trkpt>
      <trkpt lat="48.35753" lon="2.74808">
        <ele>104</ele>
        <time>2022-02-12T13:04:39Z</time>
      </trkpt>
      <trkpt lat="48.35752" lon="2.748">
        <ele>104.19999694824</ele>
        <time>2022-02-12T13:04:44Z</time>
      </trkpt>
      <trkpt lat="48.35752" lon="2.7479">
        <ele>104.19999694824</ele>
        <time>2022-02-12T13:04:49Z</time>
      </trkpt>
      <trkpt lat="48.35751" lon="2.74781">
        <ele>104.59999847412</ele>
        <time>2022-02-12T13:04:54Z</time>
      </trkpt>
      <trkpt lat="48.35751" lon="2.74772">
        <ele>104.59999847412</ele>
        <time>2022-02-12T13:04:59Z</time>
      </trkpt>
      <trkpt lat="48.35753" lon="2.74763">
        <ele>104.59999847412</ele>
        <time>2022-02-12T13:05:04Z</time>
      </trkpt>
      <trkpt lat="48.35754" lon="2.74756">
        <ele>104.80000305176</ele>
        <time>2022-02-12T13:05:09Z</time>
      </trkpt>
      <trkpt lat="48.35755" lon="2.74749">
        <ele>105.19999694824</ele>
        <time>2022-02-12T13:05:14Z</time>
      </trkpt>
      <trkpt lat="48.35758" lon="2.7474">
        <ele>105.40000152588</ele>
        <time>2022-02-12T13:05:19Z</time>
      </trkpt>
      <trkpt lat="48.35759" lon="2.74732">
        <ele>105.59999847412</ele>
        <time>2022-02-12T13:05:24Z</time>
      </trkpt>
      <trkpt lat="48.35758" lon="2.74724">
        <ele>105.80000305176</ele>
        <time>2022-02-12T13:05:29Z</time>
      </trkpt>
      <trkpt lat="48.35759" lon="2.74718">
        <ele>105.80000305176</ele>
        <time>2022-02-12T13:05:34Z</time>
      </trkpt>
      <trkpt lat="48.3576" lon="2.7471">
        <ele>106</ele>
        <time>2022-02-12T13:05:39Z</time>
      </trkpt>
      <trkpt lat="48.35764" lon="2.74704">
        <ele>106.19999694824</ele>
        <time>2022-02-12T13:05:44Z</time>
      </trkpt>
      <trkpt lat="48.35767" lon="2.74698">
        <ele>106.19999694824</ele>
        <time>2022-02-12T13:05:49Z</time>
      </trkpt>
      <trkpt lat="48.35769" lon="2.74689">
        <ele>106.40000152588</ele>
        <time>2022-02-12T13:05:54Z</time>
      </trkpt>
      <trkpt lat="48.35769" lon="2.74682">
        <ele>106.59999847412</ele>
        <time>2022-02-12T13:05:59Z</time>
      </trkpt>
      <trkpt lat="48.35769" lon="2.74672">
        <ele>106.80000305176</ele>
        <time>2022-02-12T13:06:04Z</time>
      </trkpt>
      <trkpt lat="48.35767" lon="2.74663">
        <ele>107</ele>
        <time>2022-02-12T13:06:09Z</time>
      </trkpt>
      <trkpt lat="48.35768" lon="2.74658">
        <ele>107.19999694824</ele>
        <time>2022-02-12T13:06:14Z</time>
      </trkpt>
      <trkpt lat="48.35766" lon="2.74653">
        <ele>107.40000152588</ele>
        <time>2022-02-12T13:06:19Z</time>
      </trkpt>
      <trkpt lat="48.35767" lon="2.74645">
        <ele>107.59999847412</ele>
        <time>2022-02-12T13:06:24Z</time>
      </trkpt>
      <trkpt lat="48.35769" lon="2.74637">
        <ele>107.80000305176</ele>
        <time>2022-02-12T13:06:29Z</time>
      </trkpt>
      <trkpt lat="48.3577" lon="2.7463">
        <ele>108</ele>
        <time>2022-02-12T13:06:34Z</time>
      </trkpt>
      <trkpt lat="48.3577" lon="2.74623">
        <ele>108.40000152588</ele>
        <time>2022-02-12T13:06:39Z</time>
      </trkpt>
      <trkpt lat="48.35772" lon="2.74615">
        <ele>108.59999847412</ele>
        <time>2022-02-12T13:06:44Z</time>
      </trkpt>
      <trkpt lat="48.35774" lon="2.74608">
        <ele>108.80000305176</ele>
        <time>2022-02-12T13:06:49Z</time>
      </trkpt>
      <trkpt lat="48.35776" lon="2.74601">
        <ele>109</ele>
        <time>2022-02-12T13:06:54Z</time>
      </trkpt>
      <trkpt lat="48.35777" lon="2.74595">
        <ele>109.19999694824</ele>
        <time>2022-02-12T13:06:59Z</time>
      </trkpt>
      <trkpt lat="48.35779" lon="2.7459">
        <ele>109.19999694824</ele>
        <time>2022-02-12T13:07:04Z</time>
      </trkpt>
      <trkpt lat="48.3578" lon="2.74583">
        <ele>109.40000152588</ele>
        <time>2022-02-12T13:07:09Z</time>
      </trkpt>
      <trkpt lat="48.35782" lon="2.74579">
        <ele>109.59999847412</ele>
        <time>2022-02-12T13:07:14Z</time>
      </trkpt>
      <trkpt lat="48.35783" lon="2.74571">
        <ele>109.59999847412</ele>
        <time>2022-02-12T13:07:19Z</time>
      </trkpt>
      <trkpt lat="48.35785" lon="2.74562">
        <ele>109.80000305176</ele>
        <time>2022-02-12T13:07:24Z</time>
      </trkpt>
      <trkpt lat="48.35786" lon="2.74552">
        <ele>109.80000305176</ele>
        <time>2022-02-12T13:07:29Z</time>
      </trkpt>
      <trkpt lat="48.35784" lon="2.74541">
        <ele>109.80000305176</ele>
        <time>2022-02-12T13:07:34Z</time>
      </trkpt>
      <trkpt lat="48.35784" lon="2.74532">
        <ele>110</ele>
        <time>2022-02-12T13:07:39Z</time>
      </trkpt>
      <trkpt lat="48.35785" lon="2.74525">
        <ele>110</ele>
        <time>2022-02-12T13:07:44Z</time>
      </trkpt>
      <trkpt lat="48.35788" lon="2.74519">
        <ele>110</ele>
        <time>2022-02-12T13:07:49Z</time>
      </trkpt>
      <trkpt lat="48.35789" lon="2.74512">
        <ele>110</ele>
        <time>2022-02-12T13:07:54Z</time>
      </trkpt>
      <trkpt lat="48.35791" lon="2.74505">
        <ele>110</ele>
        <time>2022-02-12T13:07:59Z</time>
      </trkpt>
      <trkpt lat="48.35789" lon="2.74494">
        <ele>110</ele>
        <time>2022-02-12T13:08:04Z</time>
      </trkpt>
      <trkpt lat="48.3579" lon="2.74484">
        <ele>110</ele>
        <time>2022-02-12T13:08:09Z</time>
      </trkpt>
      <trkpt lat="48.35788" lon="2.74477">
        <ele>110.19999694824</ele>
        <time>2022-02-12T13:08:14Z</time>
      </trkpt>
      <trkpt lat="48.35788" lon="2.7447">
        <ele>110.40000152588</ele>
        <time>2022-02-12T13:08:19Z</time>
      </trkpt>
      <trkpt lat="48.35792" lon="2.74464">
        <ele>110.40000152588</ele>
        <time>2022-02-12T13:08:24Z</time>
      </trkpt>
      <trkpt lat="48.35795" lon="2.74458">
        <ele>110.40000152588</ele>
        <time>2022-02-12T13:08:29Z</time>
      </trkpt>
      <trkpt lat="48.35796" lon="2.74451">
        <ele>110.40000152588</ele>
        <time>2022-02-12T13:08:34Z</time>
      </trkpt>
      <trkpt lat="48.35796" lon="2.74444">
        <ele>110.59999847412</ele>
        <time>2022-02-12T13:08:39Z</time>
      </trkpt>
      <trkpt lat="48.35796" lon="2.74434">
        <ele>110.59999847412</ele>
        <time>2022-02-12T13:08:44Z</time>
      </trkpt>
      <trkpt lat="48.35797" lon="2.74427">
        <ele>110.59999847412</ele>
        <time>2022-02-12T13:08:49Z</time>
      </trkpt>
      <trkpt lat="48.35798" lon="2.74421">
        <ele>110.80000305176</ele>
        <time>2022-02-12T13:08:54Z</time>
      </trkpt>
      <trkpt lat="48.358" lon="2.74415">
        <ele>110.80000305176</ele>
        <time>2022-02-12T13:08:59Z</time>
      </trkpt>
      <trkpt lat="48.35799" lon="2.74406">
        <ele>111</ele>
        <time>2022-02-12T13:09:04Z</time>
      </trkpt>
      <trkpt lat="48.35799" lon="2.74398">
        <ele>111</ele>
        <time>2022-02-12T13:09:09Z</time>
      </trkpt>
      <trkpt lat="48.35801" lon="2.74391">
        <ele>111</ele>
        <time>2022-02-12T13:09:14Z</time>
      </trkpt>
      <trkpt lat="48.358" lon="2.74381">
        <ele>111.19999694824</ele>
        <time>2022-02-12T13:09:19Z</time>
      </trkpt>
      <trkpt lat="48.358" lon="2.74373">
        <ele>111.19999694824</ele>
        <time>2022-02-12T13:09:24Z</time>
      </trkpt>
      <trkpt lat="48.358" lon="2.74368">
        <ele>111.40000152588</ele>
        <time>2022-02-12T13:09:29Z</time>
      </trkpt>
      <trkpt lat="48.35802" lon="2.74363">
        <ele>111.40000152588</ele>
        <time>2022-02-12T13:09:34Z</time>
      </trkpt>
      <trkpt lat="48.35804" lon="2.74357">
        <ele>111.40000152588</ele>
        <time>2022-02-12T13:09:39Z</time>
      </trkpt>
      <trkpt lat="48.35806" lon="2.74348">
        <ele>111.40000152588</ele>
        <time>2022-02-12T13:09:44Z</time>
      </trkpt>
      <trkpt lat="48.35808" lon="2.74342">
        <ele>111.59999847412</ele>
        <time>2022-02-12T13:09:49Z</time>
      </trkpt>
      <trkpt lat="48.35811" lon="2.74333">
        <ele>111.59999847412</ele>
        <time>2022-02-12T13:09:54Z</time>
      </trkpt>
      <trkpt lat="48.35812" lon="2.74322">
        <ele>111.80000305176</ele>
        <time>2022-02-12T13:09:59Z</time>
      </trkpt>
      <trkpt lat="48.35813" lon="2.74315">
        <ele>111.59999847412</ele>
        <time>2022-02-12T13:10:04Z</time>
      </trkpt>
      <trkpt lat="48.35814" lon="2.74306">
        <ele>111.59999847412</ele>
        <time>2022-02-12T13:10:09Z</time>
      </trkpt>
      <trkpt lat="48.35815" lon="2.74299">
        <ele>111.59999847412</ele>
        <time>2022-02-12T13:10:14Z</time>
      </trkpt>
      <trkpt lat="48.35817" lon="2.74291">
        <ele>111.40000152588</ele>
        <time>2022-02-12T13:10:19Z</time>
      </trkpt>
      <trkpt lat="48.35818" lon="2.74283">
        <ele>111.19999694824</ele>
        <time>2022-02-12T13:10:24Z</time>
      </trkpt>
      <trkpt lat="48.35818" lon="2.74276">
        <ele>111.19999694824</ele>
        <time>2022-02-12T13:10:29Z</time>
      </trkpt>
      <trkpt lat="48.3582" lon="2.74268">
        <ele>111.19999694824</ele>
        <time>2022-02-12T13:10:34Z</time>
      </trkpt>
      <trkpt lat="48.35822" lon="2.7426">
        <ele>111</ele>
        <time>2022-02-12T13:10:39Z</time>
      </trkpt>
      <trkpt lat="48.35822" lon="2.74254">
        <ele>111.19999694824</ele>
        <time>2022-02-12T13:10:44Z</time>
      </trkpt>
      <trkpt lat="48.35824" lon="2.74244">
        <ele>111.40000152588</ele>
        <time>2022-02-12T13:10:49Z</time>
      </trkpt>
      <trkpt lat="48.35825" lon="2.74236">
        <ele>111.40000152588</ele>
        <time>2022-02-12T13:10:54Z</time>
      </trkpt>
      <trkpt lat="48.35825" lon="2.74231">
        <ele>111.40000152588</ele>
        <time>2022-02-12T13:10:59Z</time>
      </trkpt>
      <trkpt lat="48.35825" lon="2.74225">
        <ele>111</ele>
        <time>2022-02-12T13:11:04Z</time>
      </trkpt>
      <trkpt lat="48.35825" lon="2.74215">
        <ele>110.80000305176</ele>
        <time>2022-02-12T13:11:09Z</time>
      </trkpt>
      <trkpt lat="48.35825" lon="2.74207">
        <ele>110.80000305176</ele>
        <time>2022-02-12T13:11:14Z</time>
      </trkpt>
      <trkpt lat="48.35827" lon="2.742">
        <ele>110.59999847412</ele>
        <time>2022-02-12T13:11:19Z</time>
      </trkpt>
      <trkpt lat="48.35829" lon="2.74191">
        <ele>110.40000152588</ele>
        <time>2022-02-12T13:11:24Z</time>
      </trkpt>
      <trkpt lat="48.35829" lon="2.74186">
        <ele>110.40000152588</ele>
        <time>2022-02-12T13:11:29Z</time>
      </trkpt>
      <trkpt lat="48.35831" lon="2.74177">
        <ele>110.19999694824</ele>
        <time>2022-02-12T13:11:34Z</time>
      </trkpt>
      <trkpt lat="48.35833" lon="2.74169">
        <ele>110</ele>
        <time>2022-02-12T13:11:39Z</time>
      </trkpt>
      <trkpt lat="48.35836" lon="2.74162">
        <ele>109.80000305176</ele>
        <time>2022-02-12T13:11:44Z</time>
      </trkpt>
      <trkpt lat="48.35838" lon="2.74155">
        <ele>109.80000305176</ele>
        <time>2022-02-12T13:11:49Z</time>
      </trkpt>
      <trkpt lat="48.35837" lon="2.74146">
        <ele>109.59999847412</ele>
        <time>2022-02-12T13:11:54Z</time>
      </trkpt>
      <trkpt lat="48.35836" lon="2.74137">
        <ele>109.40000152588</ele>
        <time>2022-02-12T13:11:59Z</time>
      </trkpt>
      <trkpt lat="48.35838" lon="2.7413">
        <ele>109.19999694824</ele>
        <time>2022-02-12T13:12:04Z</time>
      </trkpt>
      <trkpt lat="48.35839" lon="2.74121">
        <ele>109</ele>
        <time>2022-02-12T13:12:09Z</time>
      </trkpt>
      <trkpt lat="48.35839" lon="2.7411">
        <ele>109</ele>
        <time>2022-02-12T13:12:14Z</time>
      </trkpt>
      <trkpt lat="48.35842" lon="2.74101">
        <ele>108.80000305176</ele>
        <time>2022-02-12T13:12:19Z</time>
      </trkpt>
      <trkpt lat="48.35844" lon="2.74095">
        <ele>108.40000152588</ele>
        <time>2022-02-12T13:12:24Z</time>
      </trkpt>
      <trkpt lat="48.35843" lon="2.74085">
        <ele>108.40000152588</ele>
        <time>2022-02-12T13:12:29Z</time>
      </trkpt>
      <trkpt lat="48.35843" lon="2.74075">
        <ele>108.19999694824</ele>
        <time>2022-02-12T13:12:34Z</time>
      </trkpt>
      <trkpt lat="48.35841" lon="2.74067">
        <ele>108.19999694824</ele>
        <time>2022-02-12T13:12:39Z</time>
      </trkpt>
      <trkpt lat="48.35843" lon="2.74057">
        <ele>108</ele>
        <time>2022-02-12T13:12:44Z</time>
      </trkpt>
      <trkpt lat="48.35843" lon="2.74048">
        <ele>107.80000305176</ele>
        <time>2022-02-12T13:12:49Z</time>
      </trkpt>
      <trkpt lat="48.35844" lon="2.74037">
        <ele>107.59999847412</ele>
        <time>2022-02-12T13:12:54Z</time>
      </trkpt>
      <trkpt lat="48.35844" lon="2.74027">
        <ele>107.59999847412</ele>
        <time>2022-02-12T13:12:59Z</time>
      </trkpt>
      <trkpt lat="48.35844" lon="2.7402">
        <ele>107.40000152588</ele>
        <time>2022-02-12T13:13:04Z</time>
      </trkpt>
      <trkpt lat="48.35847" lon="2.74012">
        <ele>107.19999694824</ele>
        <time>2022-02-12T13:13:09Z</time>
      </trkpt>
      <trkpt lat="48.35848" lon="2.74001">
        <ele>107</ele>
        <time>2022-02-12T13:13:14Z</time>
      </trkpt>
      <trkpt lat="48.35851" lon="2.73994">
        <ele>107</ele>
        <time>2022-02-12T13:13:19Z</time>
      </trkpt>
      <trkpt lat="48.35855" lon="2.73987">
        <ele>106.80000305176</ele>
        <time>2022-02-12T13:13:24Z</time>
      </trkpt>
      <trkpt lat="48.35858" lon="2.7398">
        <ele>106.80000305176</ele>
        <time>2022-02-12T13:13:29Z</time>
      </trkpt>
      <trkpt lat="48.35859" lon="2.73969">
        <ele>106.59999847412</ele>
        <time>2022-02-12T13:13:34Z</time>
      </trkpt>
      <trkpt lat="48.35858" lon="2.73963">
        <ele>106.59999847412</ele>
        <time>2022-02-12T13:13:39Z</time>
      </trkpt>
      <trkpt lat="48.35859" lon="2.73962">
        <ele>106.59999847412</ele>
        <time>2022-02-12T13:13:44Z</time>
      </trkpt>
      <trkpt lat="48.35858" lon="2.73959">
        <ele>106.59999847412</ele>
        <time>2022-02-12T13:13:49Z</time>
      </trkpt>
      <trkpt lat="48.35858" lon="2.73957">
        <ele>106.59999847412</ele>
        <time>2022-02-12T13:13:54Z</time>
      </trkpt>
      <trkpt lat="48.35858" lon="2.73953">
        <ele>106.59999847412</ele>
        <time>2022-02-12T13:13:59Z</time>
      </trkpt>
      <trkpt lat="48.35859" lon="2.73946">
        <ele>106.59999847412</ele>
        <time>2022-02-12T13:14:04Z</time>
      </trkpt>
      <trkpt lat="48.35861" lon="2.73944">
        <ele>106.59999847412</ele>
        <time>2022-02-12T13:14:09Z</time>
      </trkpt>
      <trkpt lat="48.35861" lon="2.73943">
        <ele>106.59999847412</ele>
        <time>2022-02-12T13:14:14Z</time>
      </trkpt>
      <trkpt lat="48.35863" lon="2.73943">
        <ele>106.59999847412</ele>
        <time>2022-02-12T13:14:19Z</time>
      </trkpt>
      <trkpt lat="48.35865" lon="2.73942">
        <ele>106.59999847412</ele>
        <time>2022-02-12T13:14:24Z</time>
      </trkpt>
      <trkpt lat="48.35866" lon="2.73942">
        <ele>106.59999847412</ele>
        <time>2022-02-12T13:14:29Z</time>
      </trkpt>
      <trkpt lat="48.3587" lon="2.7394">
        <ele>106.59999847412</ele>
        <time>2022-02-12T13:14:34Z</time>
      </trkpt>
      <trkpt lat="48.35872" lon="2.73938">
        <ele>106.59999847412</ele>
        <time>2022-02-12T13:14:39Z</time>
      </trkpt>
      <trkpt lat="48.35872" lon="2.73937">
        <ele>106.59999847412</ele>
        <time>2022-02-12T13:14:44Z</time>
      </trkpt>
      <trkpt lat="48.35869" lon="2.73936">
        <ele>106.59999847412</ele>
        <time>2022-02-12T13:14:49Z</time>
      </trkpt>
      <trkpt lat="48.35869" lon="2.7393">
        <ele>106.59999847412</ele>
        <time>2022-02-12T13:14:54Z</time>
      </trkpt>
      <trkpt lat="48.35871" lon="2.73926">
        <ele>105.80000305176</ele>
        <time>2022-02-12T13:14:59Z</time>
      </trkpt>
      <trkpt lat="48.35871" lon="2.73919">
        <ele>105.80000305176</ele>
        <time>2022-02-12T13:15:04Z</time>
      </trkpt>
      <trkpt lat="48.35872" lon="2.73912">
        <ele>105.59999847412</ele>
        <time>2022-02-12T13:15:09Z</time>
      </trkpt>
      <trkpt lat="48.35874" lon="2.73906">
        <ele>105.40000152588</ele>
        <time>2022-02-12T13:15:14Z</time>
      </trkpt>
      <trkpt lat="48.35876" lon="2.73897">
        <ele>105.19999694824</ele>
        <time>2022-02-12T13:15:19Z</time>
      </trkpt>
      <trkpt lat="48.35878" lon="2.73891">
        <ele>105</ele>
        <time>2022-02-12T13:15:24Z</time>
      </trkpt>
      <trkpt lat="48.35878" lon="2.73885">
        <ele>104.80000305176</ele>
        <time>2022-02-12T13:15:29Z</time>
      </trkpt>
      <trkpt lat="48.3588" lon="2.73879">
        <ele>104.59999847412</ele>
        <time>2022-02-12T13:15:34Z</time>
      </trkpt>
      <trkpt lat="48.35883" lon="2.73874">
        <ele>104.40000152588</ele>
        <time>2022-02-12T13:15:39Z</time>
      </trkpt>
      <trkpt lat="48.35884" lon="2.73865">
        <ele>104.19999694824</ele>
        <time>2022-02-12T13:15:44Z</time>
      </trkpt>
      <trkpt lat="48.35884" lon="2.73855">
        <ele>104.19999694824</ele>
        <time>2022-02-12T13:15:49Z</time>
      </trkpt>
      <trkpt lat="48.35885" lon="2.73846">
        <ele>104.19999694824</ele>
        <time>2022-02-12T13:15:54Z</time>
      </trkpt>
      <trkpt lat="48.35884" lon="2.73839">
        <ele>104</ele>
        <time>2022-02-12T13:15:59Z</time>
      </trkpt>
      <trkpt lat="48.35886" lon="2.73835">
        <ele>103.80000305176</ele>
        <time>2022-02-12T13:16:04Z</time>
      </trkpt>
      <trkpt lat="48.35887" lon="2.73828">
        <ele>103.80000305176</ele>
        <time>2022-02-12T13:16:09Z</time>
      </trkpt>
      <trkpt lat="48.35885" lon="2.73821">
        <ele>103.80000305176</ele>
        <time>2022-02-12T13:16:14Z</time>
      </trkpt>
      <trkpt lat="48.35886" lon="2.73814">
        <ele>103.80000305176</ele>
        <time>2022-02-12T13:16:19Z</time>
      </trkpt>
      <trkpt lat="48.35887" lon="2.73806">
        <ele>103.80000305176</ele>
        <time>2022-02-12T13:16:24Z</time>
      </trkpt>
      <trkpt lat="48.35891" lon="2.73798">
        <ele>103.59999847412</ele>
        <time>2022-02-12T13:16:29Z</time>
      </trkpt>
      <trkpt lat="48.35893" lon="2.73789">
        <ele>103.59999847412</ele>
        <time>2022-02-12T13:16:34Z</time>
      </trkpt>
      <trkpt lat="48.35895" lon="2.73782">
        <ele>103.40000152588</ele>
        <time>2022-02-12T13:16:39Z</time>
      </trkpt>
      <trkpt lat="48.35898" lon="2.73773">
        <ele>103.19999694824</ele>
        <time>2022-02-12T13:16:44Z</time>
      </trkpt>
      <trkpt lat="48.35898" lon="2.73762">
        <ele>103.19999694824</ele>
        <time>2022-02-12T13:16:49Z</time>
      </trkpt>
      <trkpt lat="48.35898" lon="2.73756">
        <ele>103.19999694824</ele>
        <time>2022-02-12T13:16:54Z</time>
      </trkpt>
      <trkpt lat="48.35897" lon="2.73748">
        <ele>103.19999694824</ele>
        <time>2022-02-12T13:16:59Z</time>
      </trkpt>
      <trkpt lat="48.35898" lon="2.73739">
        <ele>103.19999694824</ele>
        <time>2022-02-12T13:17:04Z</time>
      </trkpt>
      <trkpt lat="48.35898" lon="2.73732">
        <ele>103.19999694824</ele>
        <time>2022-02-12T13:17:09Z</time>
      </trkpt>
      <trkpt lat="48.359" lon="2.73726">
        <ele>103.19999694824</ele>
        <time>2022-02-12T13:17:14Z</time>
      </trkpt>
      <trkpt lat="48.35901" lon="2.73722">
        <ele>103.19999694824</ele>
        <time>2022-02-12T13:17:19Z</time>
      </trkpt>
      <trkpt lat="48.35902" lon="2.73714">
        <ele>103.19999694824</ele>
        <time>2022-02-12T13:17:24Z</time>
      </trkpt>
      <trkpt lat="48.35902" lon="2.73703">
        <ele>103.19999694824</ele>
        <time>2022-02-12T13:17:29Z</time>
      </trkpt>
      <trkpt lat="48.35904" lon="2.73695">
        <ele>103.19999694824</ele>
        <time>2022-02-12T13:17:34Z</time>
      </trkpt>
      <trkpt lat="48.35904" lon="2.73688">
        <ele>103</ele>
        <time>2022-02-12T13:17:39Z</time>
      </trkpt>
      <trkpt lat="48.35905" lon="2.7368">
        <ele>103</ele>
        <time>2022-02-12T13:17:44Z</time>
      </trkpt>
      <trkpt lat="48.35905" lon="2.73671">
        <ele>103.19999694824</ele>
        <time>2022-02-12T13:17:49Z</time>
      </trkpt>
      <trkpt lat="48.35905" lon="2.73662">
        <ele>103</ele>
        <time>2022-02-12T13:17:54Z</time>
      </trkpt>
      <trkpt lat="48.35908" lon="2.73655">
        <ele>103.19999694824</ele>
        <time>2022-02-12T13:17:59Z</time>
      </trkpt>
      <trkpt lat="48.35908" lon="2.73645">
        <ele>103.19999694824</ele>
        <time>2022-02-12T13:18:04Z</time>
      </trkpt>
      <trkpt lat="48.35906" lon="2.73632">
        <ele>103.19999694824</ele>
        <time>2022-02-12T13:18:09Z</time>
      </trkpt>
      <trkpt lat="48.35906" lon="2.73618">
        <ele>103.19999694824</ele>
        <time>2022-02-12T13:18:14Z</time>
      </trkpt>
      <trkpt lat="48.35905" lon="2.73608">
        <ele>103</ele>
        <time>2022-02-12T13:18:19Z</time>
      </trkpt>
      <trkpt lat="48.35906" lon="2.73602">
        <ele>102.80000305176</ele>
        <time>2022-02-12T13:18:24Z</time>
      </trkpt>
      <trkpt lat="48.35905" lon="2.73596">
        <ele>102.80000305176</ele>
        <time>2022-02-12T13:18:29Z</time>
      </trkpt>
      <trkpt lat="48.35906" lon="2.73589">
        <ele>102.80000305176</ele>
        <time>2022-02-12T13:18:34Z</time>
      </trkpt>
      <trkpt lat="48.35908" lon="2.73582">
        <ele>103</ele>
        <time>2022-02-12T13:18:39Z</time>
      </trkpt>
      <trkpt lat="48.35907" lon="2.73574">
        <ele>103</ele>
        <time>2022-02-12T13:18:44Z</time>
      </trkpt>
      <trkpt lat="48.35904" lon="2.73566">
        <ele>103</ele>
        <time>2022-02-12T13:18:49Z</time>
      </trkpt>
      <trkpt lat="48.35902" lon="2.73557">
        <ele>103.19999694824</ele>
        <time>2022-02-12T13:18:54Z</time>
      </trkpt>
      <trkpt lat="48.359" lon="2.73548">
        <ele>103.19999694824</ele>
        <time>2022-02-12T13:18:59Z</time>
      </trkpt>
      <trkpt lat="48.35897" lon="2.73539">
        <ele>103.19999694824</ele>
        <time>2022-02-12T13:19:04Z</time>
      </trkpt>
      <trkpt lat="48.35895" lon="2.7353">
        <ele>103.40000152588</ele>
        <time>2022-02-12T13:19:09Z</time>
      </trkpt>
      <trkpt lat="48.35896" lon="2.73521">
        <ele>103.40000152588</ele>
        <time>2022-02-12T13:19:14Z</time>
      </trkpt>
      <trkpt lat="48.35895" lon="2.7351">
        <ele>103.59999847412</ele>
        <time>2022-02-12T13:19:19Z</time>
      </trkpt>
      <trkpt lat="48.35895" lon="2.73502">
        <ele>103.80000305176</ele>
        <time>2022-02-12T13:19:24Z</time>
      </trkpt>
      <trkpt lat="48.35895" lon="2.73493">
        <ele>104</ele>
        <time>2022-02-12T13:19:29Z</time>
      </trkpt>
      <trkpt lat="48.35897" lon="2.73488">
        <ele>104</ele>
        <time>2022-02-12T13:19:34Z</time>
      </trkpt>
      <trkpt lat="48.35898" lon="2.73482">
        <ele>104.19999694824</ele>
        <time>2022-02-12T13:19:39Z</time>
      </trkpt>
      <trkpt lat="48.359" lon="2.73476">
        <ele>104.19999694824</ele>
        <time>2022-02-12T13:19:44Z</time>
      </trkpt>
      <trkpt lat="48.35899" lon="2.73466">
        <ele>104.40000152588</ele>
        <time>2022-02-12T13:19:49Z</time>
      </trkpt>
      <trkpt lat="48.35899" lon="2.73459">
        <ele>104.19999694824</ele>
        <time>2022-02-12T13:19:54Z</time>
      </trkpt>
      <trkpt lat="48.35901" lon="2.73454">
        <ele>104</ele>
        <time>2022-02-12T13:19:59Z</time>
      </trkpt>
      <trkpt lat="48.35899" lon="2.73442">
        <ele>103.80000305176</ele>
        <time>2022-02-12T13:20:04Z</time>
      </trkpt>
      <trkpt lat="48.35899" lon="2.73434">
        <ele>103.59999847412</ele>
        <time>2022-02-12T13:20:09Z</time>
      </trkpt>
      <trkpt lat="48.35898" lon="2.73425">
        <ele>103.80000305176</ele>
        <time>2022-02-12T13:20:14Z</time>
      </trkpt>
      <trkpt lat="48.35895" lon="2.73413">
        <ele>103.59999847412</ele>
        <time>2022-02-12T13:20:19Z</time>
      </trkpt>
      <trkpt lat="48.35893" lon="2.73402">
        <ele>103.59999847412</ele>
        <time>2022-02-12T13:20:24Z</time>
      </trkpt>
      <trkpt lat="48.35893" lon="2.73394">
        <ele>103.59999847412</ele>
        <time>2022-02-12T13:20:29Z</time>
      </trkpt>
      <trkpt lat="48.35893" lon="2.73388">
        <ele>103.40000152588</ele>
        <time>2022-02-12T13:20:34Z</time>
      </trkpt>
      <trkpt lat="48.35895" lon="2.73382">
        <ele>103.40000152588</ele>
        <time>2022-02-12T13:20:39Z</time>
      </trkpt>
      <trkpt lat="48.35895" lon="2.73374">
        <ele>103.40000152588</ele>
        <time>2022-02-12T13:20:44Z</time>
      </trkpt>
      <trkpt lat="48.35892" lon="2.73363">
        <ele>103.40000152588</ele>
        <time>2022-02-12T13:20:49Z</time>
      </trkpt>
      <trkpt lat="48.3589" lon="2.73355">
        <ele>103.40000152588</ele>
        <time>2022-02-12T13:20:54Z</time>
      </trkpt>
      <trkpt lat="48.35889" lon="2.73349">
        <ele>103.19999694824</ele>
        <time>2022-02-12T13:20:59Z</time>
      </trkpt>
      <trkpt lat="48.35888" lon="2.73337">
        <ele>103</ele>
        <time>2022-02-12T13:21:04Z</time>
      </trkpt>
      <trkpt lat="48.35888" lon="2.73328">
        <ele>103</ele>
        <time>2022-02-12T13:21:09Z</time>
      </trkpt>
      <trkpt lat="48.35887" lon="2.7332">
        <ele>103</ele>
        <time>2022-02-12T13:21:14Z</time>
      </trkpt>
      <trkpt lat="48.35886" lon="2.7331">
        <ele>102.80000305176</ele>
        <time>2022-02-12T13:21:19Z</time>
      </trkpt>
      <trkpt lat="48.35887" lon="2.73303">
        <ele>102.80000305176</ele>
        <time>2022-02-12T13:21:24Z</time>
      </trkpt>
      <trkpt lat="48.35887" lon="2.73295">
        <ele>102.80000305176</ele>
        <time>2022-02-12T13:21:29Z</time>
      </trkpt>
      <trkpt lat="48.35886" lon="2.73286">
        <ele>102.59999847412</ele>
        <time>2022-02-12T13:21:34Z</time>
      </trkpt>
      <trkpt lat="48.35886" lon="2.73277">
        <ele>102.80000305176</ele>
        <time>2022-02-12T13:21:39Z</time>
      </trkpt>
      <trkpt lat="48.35884" lon="2.73268">
        <ele>102.80000305176</ele>
        <time>2022-02-12T13:21:44Z</time>
      </trkpt>
      <trkpt lat="48.35883" lon="2.73258">
        <ele>102.80000305176</ele>
        <time>2022-02-12T13:21:49Z</time>
      </trkpt>
      <trkpt lat="48.35882" lon="2.73248">
        <ele>102.59999847412</ele>
        <time>2022-02-12T13:21:54Z</time>
      </trkpt>
      <trkpt lat="48.35881" lon="2.7324">
        <ele>102.59999847412</ele>
        <time>2022-02-12T13:21:59Z</time>
      </trkpt>
      <trkpt lat="48.35879" lon="2.73232">
        <ele>102.59999847412</ele>
        <time>2022-02-12T13:22:04Z</time>
      </trkpt>
      <trkpt lat="48.35876" lon="2.73222">
        <ele>102.80000305176</ele>
        <time>2022-02-12T13:22:09Z</time>
      </trkpt>
      <trkpt lat="48.35876" lon="2.73215">
        <ele>102.80000305176</ele>
        <time>2022-02-12T13:22:14Z</time>
      </trkpt>
      <trkpt lat="48.35877" lon="2.73209">
        <ele>102.80000305176</ele>
        <time>2022-02-12T13:22:19Z</time>
      </trkpt>
      <trkpt lat="48.35875" lon="2.73202">
        <ele>102.80000305176</ele>
        <time>2022-02-12T13:22:24Z</time>
      </trkpt>
      <trkpt lat="48.35875" lon="2.73194">
        <ele>102.80000305176</ele>
        <time>2022-02-12T13:22:29Z</time>
      </trkpt>
      <trkpt lat="48.35873" lon="2.73183">
        <ele>102.80000305176</ele>
        <time>2022-02-12T13:22:34Z</time>
      </trkpt>
      <trkpt lat="48.35871" lon="2.73173">
        <ele>102.80000305176</ele>
        <time>2022-02-12T13:22:39Z</time>
      </trkpt>
      <trkpt lat="48.35869" lon="2.73163">
        <ele>102.80000305176</ele>
        <time>2022-02-12T13:22:44Z</time>
      </trkpt>
      <trkpt lat="48.35868" lon="2.73152">
        <ele>102.80000305176</ele>
        <time>2022-02-12T13:22:49Z</time>
      </trkpt>
      <trkpt lat="48.35867" lon="2.73145">
        <ele>102.59999847412</ele>
        <time>2022-02-12T13:22:54Z</time>
      </trkpt>
      <trkpt lat="48.35867" lon="2.73135">
        <ele>102.80000305176</ele>
        <time>2022-02-12T13:22:59Z</time>
      </trkpt>
      <trkpt lat="48.35867" lon="2.73122">
        <ele>102.80000305176</ele>
        <time>2022-02-12T13:23:04Z</time>
      </trkpt>
      <trkpt lat="48.35866" lon="2.73114">
        <ele>102.59999847412</ele>
        <time>2022-02-12T13:23:09Z</time>
      </trkpt>
      <trkpt lat="48.35865" lon="2.73106">
        <ele>102.59999847412</ele>
        <time>2022-02-12T13:23:14Z</time>
      </trkpt>
      <trkpt lat="48.35864" lon="2.731">
        <ele>102.59999847412</ele>
        <time>2022-02-12T13:23:19Z</time>
      </trkpt>
      <trkpt lat="48.35863" lon="2.73096">
        <ele>102.80000305176</ele>
        <time>2022-02-12T13:23:24Z</time>
      </trkpt>
      <trkpt lat="48.35864" lon="2.73091">
        <ele>102.59999847412</ele>
        <time>2022-02-12T13:23:29Z</time>
      </trkpt>
      <trkpt lat="48.35863" lon="2.73081">
        <ele>102.59999847412</ele>
        <time>2022-02-12T13:23:34Z</time>
      </trkpt>
      <trkpt lat="48.35863" lon="2.73073">
        <ele>102.40000152588</ele>
        <time>2022-02-12T13:23:39Z</time>
      </trkpt>
      <trkpt lat="48.35866" lon="2.73069">
        <ele>102.40000152588</ele>
        <time>2022-02-12T13:23:44Z</time>
      </trkpt>
      <trkpt lat="48.35866" lon="2.73061">
        <ele>102.59999847412</ele>
        <time>2022-02-12T13:23:49Z</time>
      </trkpt>
      <trkpt lat="48.35864" lon="2.73049">
        <ele>102.59999847412</ele>
        <time>2022-02-12T13:23:54Z</time>
      </trkpt>
      <trkpt lat="48.3586" lon="2.73038">
        <ele>102.59999847412</ele>
        <time>2022-02-12T13:23:59Z</time>
      </trkpt>
      <trkpt lat="48.35859" lon="2.73034">
        <ele>102.59999847412</ele>
        <time>2022-02-12T13:24:04Z</time>
      </trkpt>
      <trkpt lat="48.3586" lon="2.73026">
        <ele>102.59999847412</ele>
        <time>2022-02-12T13:24:09Z</time>
      </trkpt>
      <trkpt lat="48.35859" lon="2.73017">
        <ele>102.80000305176</ele>
        <time>2022-02-12T13:24:14Z</time>
      </trkpt>
      <trkpt lat="48.35858" lon="2.73006">
        <ele>103</ele>
        <time>2022-02-12T13:24:19Z</time>
      </trkpt>
      <trkpt lat="48.35859" lon="2.72998">
        <ele>103</ele>
        <time>2022-02-12T13:24:24Z</time>
      </trkpt>
      <trkpt lat="48.35856" lon="2.72986">
        <ele>103</ele>
        <time>2022-02-12T13:24:29Z</time>
      </trkpt>
      <trkpt lat="48.35854" lon="2.72975">
        <ele>103</ele>
        <time>2022-02-12T13:24:34Z</time>
      </trkpt>
      <trkpt lat="48.35854" lon="2.72966">
        <ele>103</ele>
        <time>2022-02-12T13:24:39Z</time>
      </trkpt>
      <trkpt lat="48.35853" lon="2.72958">
        <ele>103.19999694824</ele>
        <time>2022-02-12T13:24:44Z</time>
      </trkpt>
      <trkpt lat="48.35852" lon="2.72948">
        <ele>103.19999694824</ele>
        <time>2022-02-12T13:24:49Z</time>
      </trkpt>
      <trkpt lat="48.35854" lon="2.72941">
        <ele>103.40000152588</ele>
        <time>2022-02-12T13:24:54Z</time>
      </trkpt>
      <trkpt lat="48.35854" lon="2.72932">
        <ele>103.40000152588</ele>
        <time>2022-02-12T13:24:59Z</time>
      </trkpt>
      <trkpt lat="48.35854" lon="2.72922">
        <ele>103.59999847412</ele>
        <time>2022-02-12T13:25:04Z</time>
      </trkpt>
      <trkpt lat="48.35854" lon="2.72913">
        <ele>103.59999847412</ele>
        <time>2022-02-12T13:25:09Z</time>
      </trkpt>
      <trkpt lat="48.35853" lon="2.72905">
        <ele>103.59999847412</ele>
        <time>2022-02-12T13:25:14Z</time>
      </trkpt>
      <trkpt lat="48.35853" lon="2.72897">
        <ele>103.59999847412</ele>
        <time>2022-02-12T13:25:19Z</time>
      </trkpt>
      <trkpt lat="48.3585" lon="2.7289">
        <ele>103.80000305176</ele>
        <time>2022-02-12T13:25:24Z</time>
      </trkpt>
      <trkpt lat="48.3585" lon="2.72882">
        <ele>103.80000305176</ele>
        <time>2022-02-12T13:25:29Z</time>
      </trkpt>
      <trkpt lat="48.35849" lon="2.72873">
        <ele>104</ele>
        <time>2022-02-12T13:25:34Z</time>
      </trkpt>
      <trkpt lat="48.35847" lon="2.72864">
        <ele>104</ele>
        <time>2022-02-12T13:25:39Z</time>
      </trkpt>
      <trkpt lat="48.35847" lon="2.72856">
        <ele>104.19999694824</ele>
        <time>2022-02-12T13:25:44Z</time>
      </trkpt>
      <trkpt lat="48.35846" lon="2.72848">
        <ele>104.19999694824</ele>
        <time>2022-02-12T13:25:49Z</time>
      </trkpt>
      <trkpt lat="48.35845" lon="2.72838">
        <ele>104</ele>
        <time>2022-02-12T13:25:54Z</time>
      </trkpt>
      <trkpt lat="48.35847" lon="2.7283">
        <ele>104</ele>
        <time>2022-02-12T13:25:59Z</time>
      </trkpt>
      <trkpt lat="48.35847" lon="2.72824">
        <ele>104</ele>
        <time>2022-02-12T13:26:04Z</time>
      </trkpt>
      <trkpt lat="48.35848" lon="2.72818">
        <ele>104.19999694824</ele>
        <time>2022-02-12T13:26:09Z</time>
      </trkpt>
      <trkpt lat="48.35847" lon="2.7281">
        <ele>104.19999694824</ele>
        <time>2022-02-12T13:26:14Z</time>
      </trkpt>
      <trkpt lat="48.35846" lon="2.72798">
        <ele>104.19999694824</ele>
        <time>2022-02-12T13:26:19Z</time>
      </trkpt>
      <trkpt lat="48.35845" lon="2.72787">
        <ele>104.40000152588</ele>
        <time>2022-02-12T13:26:24Z</time>
      </trkpt>
      <trkpt lat="48.35842" lon="2.72777">
        <ele>104.40000152588</ele>
        <time>2022-02-12T13:26:29Z</time>
      </trkpt>
      <trkpt lat="48.35841" lon="2.72769">
        <ele>104.59999847412</ele>
        <time>2022-02-12T13:26:34Z</time>
      </trkpt>
      <trkpt lat="48.3584" lon="2.7276">
        <ele>104.59999847412</ele>
        <time>2022-02-12T13:26:39Z</time>
      </trkpt>
      <trkpt lat="48.35838" lon="2.72752">
        <ele>104.59999847412</ele>
        <time>2022-02-12T13:26:44Z</time>
      </trkpt>
      <trkpt lat="48.35837" lon="2.72745">
        <ele>104.59999847412</ele>
        <time>2022-02-12T13:26:49Z</time>
      </trkpt>
      <trkpt lat="48.35837" lon="2.72738">
        <ele>104.80000305176</ele>
        <time>2022-02-12T13:26:54Z</time>
      </trkpt>
      <trkpt lat="48.35835" lon="2.72727">
        <ele>105</ele>
        <time>2022-02-12T13:26:59Z</time>
      </trkpt>
      <trkpt lat="48.35833" lon="2.72714">
        <ele>105</ele>
        <time>2022-02-12T13:27:04Z</time>
      </trkpt>
      <trkpt lat="48.35829" lon="2.72702">
        <ele>105</ele>
        <time>2022-02-12T13:27:09Z</time>
      </trkpt>
      <trkpt lat="48.35828" lon="2.72695">
        <ele>105</ele>
        <time>2022-02-12T13:27:14Z</time>
      </trkpt>
      <trkpt lat="48.35828" lon="2.72687">
        <ele>105.19999694824</ele>
        <time>2022-02-12T13:27:19Z</time>
      </trkpt>
      <trkpt lat="48.35827" lon="2.72679">
        <ele>105.19999694824</ele>
        <time>2022-02-12T13:27:24Z</time>
      </trkpt>
      <trkpt lat="48.35827" lon="2.7267">
        <ele>105.19999694824</ele>
        <time>2022-02-12T13:27:29Z</time>
      </trkpt>
      <trkpt lat="48.35827" lon="2.72664">
        <ele>105.40000152588</ele>
        <time>2022-02-12T13:27:34Z</time>
      </trkpt>
      <trkpt lat="48.35829" lon="2.72662">
        <ele>105.40000152588</ele>
        <time>2022-02-12T13:27:39Z</time>
      </trkpt>
      <trkpt lat="48.3583" lon="2.72663">
        <ele>105.40000152588</ele>
        <time>2022-02-12T13:27:44Z</time>
      </trkpt>
      <trkpt lat="48.35831" lon="2.72662">
        <ele>105.40000152588</ele>
        <time>2022-02-12T13:27:49Z</time>
      </trkpt>
      <trkpt lat="48.35834" lon="2.7266">
        <ele>105.40000152588</ele>
        <time>2022-02-12T13:27:54Z</time>
      </trkpt>
      <trkpt lat="48.35838" lon="2.72657">
        <ele>105.40000152588</ele>
        <time>2022-02-12T13:27:59Z</time>
      </trkpt>
      <trkpt lat="48.35841" lon="2.72655">
        <ele>105.40000152588</ele>
        <time>2022-02-12T13:28:04Z</time>
      </trkpt>
      <trkpt lat="48.35844" lon="2.72652">
        <ele>105.40000152588</ele>
        <time>2022-02-12T13:28:09Z</time>
      </trkpt>
      <trkpt lat="48.35844" lon="2.72649">
        <ele>105.40000152588</ele>
        <time>2022-02-12T13:28:14Z</time>
      </trkpt>
      <trkpt lat="48.35846" lon="2.72648">
        <ele>105.40000152588</ele>
        <time>2022-02-12T13:28:19Z</time>
      </trkpt>
      <trkpt lat="48.35845" lon="2.72647">
        <ele>105.40000152588</ele>
        <time>2022-02-12T13:28:24Z</time>
      </trkpt>
      <trkpt lat="48.35843" lon="2.72645">
        <ele>105.40000152588</ele>
        <time>2022-02-12T13:28:29Z</time>
      </trkpt>
      <trkpt lat="48.35843" lon="2.72643">
        <ele>105.40000152588</ele>
        <time>2022-02-12T13:28:34Z</time>
      </trkpt>
      <trkpt lat="48.35843" lon="2.72641">
        <ele>105.40000152588</ele>
        <time>2022-02-12T13:28:39Z</time>
      </trkpt>
      <trkpt lat="48.35843" lon="2.7264">
        <ele>105.40000152588</ele>
        <time>2022-02-12T13:28:44Z</time>
      </trkpt>
      <trkpt lat="48.35842" lon="2.72638">
        <ele>105.40000152588</ele>
        <time>2022-02-12T13:28:49Z</time>
      </trkpt>
      <trkpt lat="48.3584" lon="2.72639">
        <ele>105.40000152588</ele>
        <time>2022-02-12T13:28:54Z</time>
      </trkpt>
      <trkpt lat="48.35836" lon="2.72636">
        <ele>105.40000152588</ele>
        <time>2022-02-12T13:28:59Z</time>
      </trkpt>
      <trkpt lat="48.35835" lon="2.72636">
        <ele>105.40000152588</ele>
        <time>2022-02-12T13:29:04Z</time>
      </trkpt>
      <trkpt lat="48.35836" lon="2.72637">
        <ele>105.40000152588</ele>
        <time>2022-02-12T13:29:09Z</time>
      </trkpt>
      <trkpt lat="48.35836" lon="2.72636">
        <ele>105.40000152588</ele>
        <time>2022-02-12T13:29:14Z</time>
      </trkpt>
      <trkpt lat="48.35836" lon="2.72638">
        <ele>105.40000152588</ele>
        <time>2022-02-12T13:29:19Z</time>
      </trkpt>
      <trkpt lat="48.35833" lon="2.72639">
        <ele>105.40000152588</ele>
        <time>2022-02-12T13:29:24Z</time>
      </trkpt>
      <trkpt lat="48.35827" lon="2.72638">
        <ele>105.40000152588</ele>
        <time>2022-02-12T13:29:29Z</time>
      </trkpt>
      <trkpt lat="48.3582" lon="2.72636">
        <ele>105.40000152588</ele>
        <time>2022-02-12T13:29:34Z</time>
      </trkpt>
      <trkpt lat="48.35814" lon="2.72635">
        <ele>106.19999694824</ele>
        <time>2022-02-12T13:29:39Z</time>
      </trkpt>
      <trkpt lat="48.3581" lon="2.72633">
        <ele>106.59999847412</ele>
        <time>2022-02-12T13:29:44Z</time>
      </trkpt>
      <trkpt lat="48.35805" lon="2.72631">
        <ele>106.80000305176</ele>
        <time>2022-02-12T13:29:49Z</time>
      </trkpt>
      <trkpt lat="48.35801" lon="2.72629">
        <ele>107</ele>
        <time>2022-02-12T13:29:54Z</time>
      </trkpt>
      <trkpt lat="48.35797" lon="2.72625">
        <ele>107.40000152588</ele>
        <time>2022-02-12T13:29:59Z</time>
      </trkpt>
      <trkpt lat="48.35792" lon="2.72625">
        <ele>107.59999847412</ele>
        <time>2022-02-12T13:30:04Z</time>
      </trkpt>
      <trkpt lat="48.35787" lon="2.72624">
        <ele>108</ele>
        <time>2022-02-12T13:30:09Z</time>
      </trkpt>
      <trkpt lat="48.35783" lon="2.72621">
        <ele>108.19999694824</ele>
        <time>2022-02-12T13:30:14Z</time>
      </trkpt>
      <trkpt lat="48.35776" lon="2.7262">
        <ele>108.40000152588</ele>
        <time>2022-02-12T13:30:19Z</time>
      </trkpt>
      <trkpt lat="48.3577" lon="2.72618">
        <ele>108.80000305176</ele>
        <time>2022-02-12T13:30:24Z</time>
      </trkpt>
      <trkpt lat="48.35766" lon="2.72615">
        <ele>109</ele>
        <time>2022-02-12T13:30:29Z</time>
      </trkpt>
      <trkpt lat="48.3576" lon="2.72614">
        <ele>109.19999694824</ele>
        <time>2022-02-12T13:30:34Z</time>
      </trkpt>
      <trkpt lat="48.35755" lon="2.72614">
        <ele>109.40000152588</ele>
        <time>2022-02-12T13:30:39Z</time>
      </trkpt>
      <trkpt lat="48.35753" lon="2.72613">
        <ele>109.59999847412</ele>
        <time>2022-02-12T13:30:44Z</time>
      </trkpt>
      <trkpt lat="48.35751" lon="2.72612">
        <ele>109.80000305176</ele>
        <time>2022-02-12T13:30:49Z</time>
      </trkpt>
      <trkpt lat="48.35746" lon="2.7261">
        <ele>110.19999694824</ele>
        <time>2022-02-12T13:30:54Z</time>
      </trkpt>
      <trkpt lat="48.35741" lon="2.72607">
        <ele>110.40000152588</ele>
        <time>2022-02-12T13:30:59Z</time>
      </trkpt>
      <trkpt lat="48.35736" lon="2.72605">
        <ele>110.80000305176</ele>
        <time>2022-02-12T13:31:04Z</time>
      </trkpt>
      <trkpt lat="48.35733" lon="2.72604">
        <ele>111</ele>
        <time>2022-02-12T13:31:09Z</time>
      </trkpt>
      <trkpt lat="48.3573" lon="2.72602">
        <ele>111</ele>
        <time>2022-02-12T13:31:14Z</time>
      </trkpt>
      <trkpt lat="48.35725" lon="2.72601">
        <ele>111.19999694824</ele>
        <time>2022-02-12T13:31:19Z</time>
      </trkpt>
      <trkpt lat="48.35723" lon="2.72598">
        <ele>111.59999847412</ele>
        <time>2022-02-12T13:31:24Z</time>
      </trkpt>
      <trkpt lat="48.35721" lon="2.72596">
        <ele>112</ele>
        <time>2022-02-12T13:31:29Z</time>
      </trkpt>
      <trkpt lat="48.35717" lon="2.72592">
        <ele>112.40000152588</ele>
        <time>2022-02-12T13:31:34Z</time>
      </trkpt>
      <trkpt lat="48.35715" lon="2.72591">
        <ele>112.59999847412</ele>
        <time>2022-02-12T13:31:39Z</time>
      </trkpt>
      <trkpt lat="48.35715" lon="2.72591">
        <ele>112.80000305176</ele>
        <time>2022-02-12T13:31:44Z</time>
      </trkpt>
      <trkpt lat="48.35712" lon="2.72592">
        <ele>112.59999847412</ele>
        <time>2022-02-12T13:31:49Z</time>
      </trkpt>
      <trkpt lat="48.35705" lon="2.7259">
        <ele>112.80000305176</ele>
        <time>2022-02-12T13:31:54Z</time>
      </trkpt>
      <trkpt lat="48.35701" lon="2.72587">
        <ele>112.80000305176</ele>
        <time>2022-02-12T13:31:59Z</time>
      </trkpt>
      <trkpt lat="48.35702" lon="2.72588">
        <ele>113</ele>
        <time>2022-02-12T13:32:04Z</time>
      </trkpt>
      <trkpt lat="48.357" lon="2.72587">
        <ele>113.19999694824</ele>
        <time>2022-02-12T13:32:09Z</time>
      </trkpt>
      <trkpt lat="48.35697" lon="2.72586">
        <ele>113.80000305176</ele>
        <time>2022-02-12T13:32:14Z</time>
      </trkpt>
      <trkpt lat="48.35694" lon="2.72585">
        <ele>114.40000152588</ele>
        <time>2022-02-12T13:32:19Z</time>
      </trkpt>
      <trkpt lat="48.35691" lon="2.72586">
        <ele>115</ele>
        <time>2022-02-12T13:32:24Z</time>
      </trkpt>
      <trkpt lat="48.35687" lon="2.72587">
        <ele>115.40000152588</ele>
        <time>2022-02-12T13:32:29Z</time>
      </trkpt>
      <trkpt lat="48.3568" lon="2.72586">
        <ele>115.59999847412</ele>
        <time>2022-02-12T13:32:34Z</time>
      </trkpt>
      <trkpt lat="48.35675" lon="2.72586">
        <ele>116.19999694824</ele>
        <time>2022-02-12T13:32:39Z</time>
      </trkpt>
      <trkpt lat="48.35669" lon="2.72584">
        <ele>116.59999847412</ele>
        <time>2022-02-12T13:32:44Z</time>
      </trkpt>
      <trkpt lat="48.35663" lon="2.72584">
        <ele>117.19999694824</ele>
        <time>2022-02-12T13:32:49Z</time>
      </trkpt>
      <trkpt lat="48.35659" lon="2.72583">
        <ele>117.59999847412</ele>
        <time>2022-02-12T13:32:54Z</time>
      </trkpt>
      <trkpt lat="48.35655" lon="2.72582">
        <ele>118</ele>
        <time>2022-02-12T13:32:59Z</time>
      </trkpt>
      <trkpt lat="48.35649" lon="2.72583">
        <ele>118.59999847412</ele>
        <time>2022-02-12T13:33:04Z</time>
      </trkpt>
      <trkpt lat="48.35644" lon="2.72584">
        <ele>119.19999694824</ele>
        <time>2022-02-12T13:33:09Z</time>
      </trkpt>
      <trkpt lat="48.3564" lon="2.72585">
        <ele>119.80000305176</ele>
        <time>2022-02-12T13:33:14Z</time>
      </trkpt>
      <trkpt lat="48.35636" lon="2.72585">
        <ele>120.19999694824</ele>
        <time>2022-02-12T13:33:19Z</time>
      </trkpt>
      <trkpt lat="48.35632" lon="2.72586">
        <ele>120.59999847412</ele>
        <time>2022-02-12T13:33:24Z</time>
      </trkpt>
      <trkpt lat="48.35628" lon="2.72584">
        <ele>121</ele>
        <time>2022-02-12T13:33:29Z</time>
      </trkpt>
      <trkpt lat="48.35625" lon="2.72584">
        <ele>121.59999847412</ele>
        <time>2022-02-12T13:33:34Z</time>
      </trkpt>
      <trkpt lat="48.35619" lon="2.72584">
        <ele>122</ele>
        <time>2022-02-12T13:33:39Z</time>
      </trkpt>
      <trkpt lat="48.35614" lon="2.72584">
        <ele>122.59999847412</ele>
        <time>2022-02-12T13:33:44Z</time>
      </trkpt>
      <trkpt lat="48.3561" lon="2.72585">
        <ele>122.80000305176</ele>
        <time>2022-02-12T13:33:49Z</time>
      </trkpt>
      <trkpt lat="48.35606" lon="2.72586">
        <ele>122.80000305176</ele>
        <time>2022-02-12T13:33:54Z</time>
      </trkpt>
      <trkpt lat="48.35603" lon="2.72586">
        <ele>122.59999847412</ele>
        <time>2022-02-12T13:33:59Z</time>
      </trkpt>
      <trkpt lat="48.35601" lon="2.72587">
        <ele>122.40000152588</ele>
        <time>2022-02-12T13:34:04Z</time>
      </trkpt>
      <trkpt lat="48.35595" lon="2.72591">
        <ele>122</ele>
        <time>2022-02-12T13:34:09Z</time>
      </trkpt>
      <trkpt lat="48.35589" lon="2.72594">
        <ele>121.19999694824</ele>
        <time>2022-02-12T13:34:14Z</time>
      </trkpt>
      <trkpt lat="48.3558" lon="2.72597">
        <ele>120.59999847412</ele>
        <time>2022-02-12T13:34:19Z</time>
      </trkpt>
      <trkpt lat="48.35571" lon="2.72598">
        <ele>120</ele>
        <time>2022-02-12T13:34:24Z</time>
      </trkpt>
      <trkpt lat="48.35566" lon="2.726">
        <ele>119.40000152588</ele>
        <time>2022-02-12T13:34:29Z</time>
      </trkpt>
      <trkpt lat="48.35565" lon="2.72602">
        <ele>118.80000305176</ele>
        <time>2022-02-12T13:34:34Z</time>
      </trkpt>
      <trkpt lat="48.35564" lon="2.72605">
        <ele>118.19999694824</ele>
        <time>2022-02-12T13:34:39Z</time>
      </trkpt>
      <trkpt lat="48.35562" lon="2.7261">
        <ele>117.59999847412</ele>
        <time>2022-02-12T13:34:44Z</time>
      </trkpt>
      <trkpt lat="48.35558" lon="2.72615">
        <ele>117.19999694824</ele>
        <time>2022-02-12T13:34:49Z</time>
      </trkpt>
      <trkpt lat="48.35554" lon="2.72619">
        <ele>116.59999847412</ele>
        <time>2022-02-12T13:34:54Z</time>
      </trkpt>
      <trkpt lat="48.3555" lon="2.72626">
        <ele>116.19999694824</ele>
        <time>2022-02-12T13:34:59Z</time>
      </trkpt>
      <trkpt lat="48.35548" lon="2.72632">
        <ele>115.40000152588</ele>
        <time>2022-02-12T13:35:04Z</time>
      </trkpt>
      <trkpt lat="48.35547" lon="2.72635">
        <ele>114.59999847412</ele>
        <time>2022-02-12T13:35:09Z</time>
      </trkpt>
      <trkpt lat="48.35541" lon="2.7264">
        <ele>114.19999694824</ele>
        <time>2022-02-12T13:35:14Z</time>
      </trkpt>
      <trkpt lat="48.35533" lon="2.72645">
        <ele>113.80000305176</ele>
        <time>2022-02-12T13:35:19Z</time>
      </trkpt>
      <trkpt lat="48.35527" lon="2.72648">
        <ele>113.59999847412</ele>
        <time>2022-02-12T13:35:24Z</time>
      </trkpt>
      <trkpt lat="48.35521" lon="2.72653">
        <ele>113</ele>
        <time>2022-02-12T13:35:29Z</time>
      </trkpt>
      <trkpt lat="48.35519" lon="2.72659">
        <ele>112.59999847412</ele>
        <time>2022-02-12T13:35:34Z</time>
      </trkpt>
      <trkpt lat="48.35514" lon="2.72665">
        <ele>112.19999694824</ele>
        <time>2022-02-12T13:35:39Z</time>
      </trkpt>
      <trkpt lat="48.35511" lon="2.72669">
        <ele>112</ele>
        <time>2022-02-12T13:35:44Z</time>
      </trkpt>
      <trkpt lat="48.35509" lon="2.72673">
        <ele>111.59999847412</ele>
        <time>2022-02-12T13:35:49Z</time>
      </trkpt>
      <trkpt lat="48.35503" lon="2.72677">
        <ele>111.19999694824</ele>
        <time>2022-02-12T13:35:54Z</time>
      </trkpt>
      <trkpt lat="48.35497" lon="2.72681">
        <ele>111</ele>
        <time>2022-02-12T13:35:59Z</time>
      </trkpt>
      <trkpt lat="48.35491" lon="2.72688">
        <ele>110.80000305176</ele>
        <time>2022-02-12T13:36:04Z</time>
      </trkpt>
      <trkpt lat="48.35487" lon="2.72693">
        <ele>110.59999847412</ele>
        <time>2022-02-12T13:36:09Z</time>
      </trkpt>
      <trkpt lat="48.35484" lon="2.72696">
        <ele>110.40000152588</ele>
        <time>2022-02-12T13:36:14Z</time>
      </trkpt>
      <trkpt lat="48.35481" lon="2.72701">
        <ele>110.40000152588</ele>
        <time>2022-02-12T13:36:19Z</time>
      </trkpt>
      <trkpt lat="48.35475" lon="2.72708">
        <ele>110.19999694824</ele>
        <time>2022-02-12T13:36:24Z</time>
      </trkpt>
      <trkpt lat="48.35469" lon="2.72713">
        <ele>110.19999694824</ele>
        <time>2022-02-12T13:36:29Z</time>
      </trkpt>
      <trkpt lat="48.35467" lon="2.7272">
        <ele>110.19999694824</ele>
        <time>2022-02-12T13:36:34Z</time>
      </trkpt>
      <trkpt lat="48.35463" lon="2.72727">
        <ele>110</ele>
        <time>2022-02-12T13:36:39Z</time>
      </trkpt>
      <trkpt lat="48.35458" lon="2.72731">
        <ele>110</ele>
        <time>2022-02-12T13:36:44Z</time>
      </trkpt>
      <trkpt lat="48.35453" lon="2.72736">
        <ele>110</ele>
        <time>2022-02-12T13:36:49Z</time>
      </trkpt>
      <trkpt lat="48.35451" lon="2.72737">
        <ele>110</ele>
        <time>2022-02-12T13:36:54Z</time>
      </trkpt>
      <trkpt lat="48.35445" lon="2.72743">
        <ele>110.19999694824</ele>
        <time>2022-02-12T13:36:59Z</time>
      </trkpt>
      <trkpt lat="48.35438" lon="2.72747">
        <ele>110.40000152588</ele>
        <time>2022-02-12T13:37:04Z</time>
      </trkpt>
      <trkpt lat="48.35434" lon="2.72748">
        <ele>110.40000152588</ele>
        <time>2022-02-12T13:37:09Z</time>
      </trkpt>
      <trkpt lat="48.35434" lon="2.72748">
        <ele>110.40000152588</ele>
        <time>2022-02-12T13:37:14Z</time>
      </trkpt>
      <trkpt lat="48.35434" lon="2.72748">
        <ele>110.40000152588</ele>
        <time>2022-02-12T13:37:19Z</time>
      </trkpt>
      <trkpt lat="48.35435" lon="2.72748">
        <ele>110.40000152588</ele>
        <time>2022-02-12T13:37:24Z</time>
      </trkpt>
      <trkpt lat="48.35435" lon="2.72748">
        <ele>110.40000152588</ele>
        <time>2022-02-12T13:37:29Z</time>
      </trkpt>
      <trkpt lat="48.35435" lon="2.72749">
        <ele>110.40000152588</ele>
        <time>2022-02-12T13:37:34Z</time>
      </trkpt>
      <trkpt lat="48.35436" lon="2.72749">
        <ele>110.40000152588</ele>
        <time>2022-02-12T13:37:39Z</time>
      </trkpt>
      <trkpt lat="48.35436" lon="2.72749">
        <ele>110.40000152588</ele>
        <time>2022-02-12T13:37:44Z</time>
      </trkpt>
      <trkpt lat="48.35435" lon="2.7275">
        <ele>110.59999847412</ele>
        <time>2022-02-12T13:37:49Z</time>
      </trkpt>
      <trkpt lat="48.35435" lon="2.7275">
        <ele>110.59999847412</ele>
        <time>2022-02-12T13:37:54Z</time>
      </trkpt>
      <trkpt lat="48.35434" lon="2.72751">
        <ele>110.59999847412</ele>
        <time>2022-02-12T13:37:59Z</time>
      </trkpt>
      <trkpt lat="48.35432" lon="2.72751">
        <ele>110.59999847412</ele>
        <time>2022-02-12T13:38:04Z</time>
      </trkpt>
      <trkpt lat="48.35431" lon="2.72751">
        <ele>110.59999847412</ele>
        <time>2022-02-12T13:38:09Z</time>
      </trkpt>
      <trkpt lat="48.35432" lon="2.72751">
        <ele>110.59999847412</ele>
        <time>2022-02-12T13:38:14Z</time>
      </trkpt>
      <trkpt lat="48.35431" lon="2.72748">
        <ele>110.59999847412</ele>
        <time>2022-02-12T13:38:19Z</time>
      </trkpt>
      <trkpt lat="48.35427" lon="2.72745">
        <ele>110.59999847412</ele>
        <time>2022-02-12T13:38:24Z</time>
      </trkpt>
      <trkpt lat="48.35423" lon="2.72742">
        <ele>110.59999847412</ele>
        <time>2022-02-12T13:38:29Z</time>
      </trkpt>
      <trkpt lat="48.35418" lon="2.72738">
        <ele>110.59999847412</ele>
        <time>2022-02-12T13:38:34Z</time>
      </trkpt>
      <trkpt lat="48.35412" lon="2.7273">
        <ele>110.59999847412</ele>
        <time>2022-02-12T13:38:39Z</time>
      </trkpt>
      <trkpt lat="48.35407" lon="2.72723">
        <ele>110.40000152588</ele>
        <time>2022-02-12T13:38:44Z</time>
      </trkpt>
      <trkpt lat="48.35405" lon="2.72719">
        <ele>110.40000152588</ele>
        <time>2022-02-12T13:38:49Z</time>
      </trkpt>
      <trkpt lat="48.35403" lon="2.72714">
        <ele>110.40000152588</ele>
        <time>2022-02-12T13:38:54Z</time>
      </trkpt>
      <trkpt lat="48.354" lon="2.72704">
        <ele>110.40000152588</ele>
        <time>2022-02-12T13:38:59Z</time>
      </trkpt>
      <trkpt lat="48.35396" lon="2.72696">
        <ele>110.40000152588</ele>
        <time>2022-02-12T13:39:04Z</time>
      </trkpt>
      <trkpt lat="48.35393" lon="2.7269">
        <ele>110.40000152588</ele>
        <time>2022-02-12T13:39:09Z</time>
      </trkpt>
      <trkpt lat="48.35391" lon="2.72682">
        <ele>110.40000152588</ele>
        <time>2022-02-12T13:39:14Z</time>
      </trkpt>
      <trkpt lat="48.35388" lon="2.72676">
        <ele>110.40000152588</ele>
        <time>2022-02-12T13:39:19Z</time>
      </trkpt>
      <trkpt lat="48.35385" lon="2.72671">
        <ele>110.19999694824</ele>
        <time>2022-02-12T13:39:24Z</time>
      </trkpt>
      <trkpt lat="48.35382" lon="2.72665">
        <ele>110.19999694824</ele>
        <time>2022-02-12T13:39:29Z</time>
      </trkpt>
      <trkpt lat="48.3538" lon="2.7266">
        <ele>110.19999694824</ele>
        <time>2022-02-12T13:39:34Z</time>
      </trkpt>
      <trkpt lat="48.35376" lon="2.72654">
        <ele>110.19999694824</ele>
        <time>2022-02-12T13:39:39Z</time>
      </trkpt>
      <trkpt lat="48.35373" lon="2.72649">
        <ele>110</ele>
        <time>2022-02-12T13:39:44Z</time>
      </trkpt>
      <trkpt lat="48.3537" lon="2.72643">
        <ele>110</ele>
        <time>2022-02-12T13:39:49Z</time>
      </trkpt>
      <trkpt lat="48.35368" lon="2.72638">
        <ele>110</ele>
        <time>2022-02-12T13:39:54Z</time>
      </trkpt>
      <trkpt lat="48.35365" lon="2.72636">
        <ele>109.80000305176</ele>
        <time>2022-02-12T13:39:59Z</time>
      </trkpt>
      <trkpt lat="48.35364" lon="2.72632">
        <ele>109.80000305176</ele>
        <time>2022-02-12T13:40:04Z</time>
      </trkpt>
      <trkpt lat="48.35364" lon="2.72629">
        <ele>109.80000305176</ele>
        <time>2022-02-12T13:40:09Z</time>
      </trkpt>
      <trkpt lat="48.35363" lon="2.72626">
        <ele>109.80000305176</ele>
        <time>2022-02-12T13:40:14Z</time>
      </trkpt>
      <trkpt lat="48.3536" lon="2.72615">
        <ele>109.80000305176</ele>
        <time>2022-02-12T13:40:19Z</time>
      </trkpt>
      <trkpt lat="48.35356" lon="2.72609">
        <ele>109.59999847412</ele>
        <time>2022-02-12T13:40:24Z</time>
      </trkpt>
      <trkpt lat="48.35353" lon="2.72601">
        <ele>109.80000305176</ele>
        <time>2022-02-12T13:40:29Z</time>
      </trkpt>
      <trkpt lat="48.35348" lon="2.72595">
        <ele>110</ele>
        <time>2022-02-12T13:40:34Z</time>
      </trkpt>
      <trkpt lat="48.35347" lon="2.72587">
        <ele>110</ele>
        <time>2022-02-12T13:40:39Z</time>
      </trkpt>
      <trkpt lat="48.35346" lon="2.72579">
        <ele>110</ele>
        <time>2022-02-12T13:40:44Z</time>
      </trkpt>
      <trkpt lat="48.35342" lon="2.72572">
        <ele>110</ele>
        <time>2022-02-12T13:40:49Z</time>
      </trkpt>
      <trkpt lat="48.3534" lon="2.72566">
        <ele>110.19999694824</ele>
        <time>2022-02-12T13:40:54Z</time>
      </trkpt>
      <trkpt lat="48.35338" lon="2.7256">
        <ele>110.19999694824</ele>
        <time>2022-02-12T13:40:59Z</time>
      </trkpt>
      <trkpt lat="48.35334" lon="2.72554">
        <ele>110.19999694824</ele>
        <time>2022-02-12T13:41:04Z</time>
      </trkpt>
      <trkpt lat="48.35334" lon="2.72547">
        <ele>110.19999694824</ele>
        <time>2022-02-12T13:41:09Z</time>
      </trkpt>
      <trkpt lat="48.35332" lon="2.72537">
        <ele>110.19999694824</ele>
        <time>2022-02-12T13:41:14Z</time>
      </trkpt>
      <trkpt lat="48.3533" lon="2.7253">
        <ele>110.19999694824</ele>
        <time>2022-02-12T13:41:19Z</time>
      </trkpt>
      <trkpt lat="48.35327" lon="2.72523">
        <ele>110.19999694824</ele>
        <time>2022-02-12T13:41:24Z</time>
      </trkpt>
      <trkpt lat="48.35325" lon="2.7252">
        <ele>110.19999694824</ele>
        <time>2022-02-12T13:41:29Z</time>
      </trkpt>
      <trkpt lat="48.3532" lon="2.72515">
        <ele>110.19999694824</ele>
        <time>2022-02-12T13:41:34Z</time>
      </trkpt>
      <trkpt lat="48.35317" lon="2.72512">
        <ele>110.19999694824</ele>
        <time>2022-02-12T13:41:39Z</time>
      </trkpt>
      <trkpt lat="48.35314" lon="2.72507">
        <ele>110.19999694824</ele>
        <time>2022-02-12T13:41:44Z</time>
      </trkpt>
      <trkpt lat="48.35311" lon="2.725">
        <ele>110.19999694824</ele>
        <time>2022-02-12T13:41:49Z</time>
      </trkpt>
      <trkpt lat="48.35307" lon="2.72493">
        <ele>110.19999694824</ele>
        <time>2022-02-12T13:41:54Z</time>
      </trkpt>
      <trkpt lat="48.35304" lon="2.72486">
        <ele>110.19999694824</ele>
        <time>2022-02-12T13:41:59Z</time>
      </trkpt>
      <trkpt lat="48.35299" lon="2.72477">
        <ele>110.19999694824</ele>
        <time>2022-02-12T13:42:04Z</time>
      </trkpt>
      <trkpt lat="48.35297" lon="2.72469">
        <ele>110.19999694824</ele>
        <time>2022-02-12T13:42:09Z</time>
      </trkpt>
      <trkpt lat="48.35294" lon="2.7246">
        <ele>110.19999694824</ele>
        <time>2022-02-12T13:42:14Z</time>
      </trkpt>
      <trkpt lat="48.35291" lon="2.72452">
        <ele>110.19999694824</ele>
        <time>2022-02-12T13:42:19Z</time>
      </trkpt>
      <trkpt lat="48.35288" lon="2.72443">
        <ele>110.19999694824</ele>
        <time>2022-02-12T13:42:24Z</time>
      </trkpt>
      <trkpt lat="48.35285" lon="2.72435">
        <ele>110.19999694824</ele>
        <time>2022-02-12T13:42:29Z</time>
      </trkpt>
      <trkpt lat="48.35283" lon="2.72426">
        <ele>110.19999694824</ele>
        <time>2022-02-12T13:42:34Z</time>
      </trkpt>
      <trkpt lat="48.35281" lon="2.7242">
        <ele>110.19999694824</ele>
        <time>2022-02-12T13:42:39Z</time>
      </trkpt>
      <trkpt lat="48.35278" lon="2.72415">
        <ele>110.19999694824</ele>
        <time>2022-02-12T13:42:44Z</time>
      </trkpt>
      <trkpt lat="48.35276" lon="2.72407">
        <ele>110.19999694824</ele>
        <time>2022-02-12T13:42:49Z</time>
      </trkpt>
      <trkpt lat="48.35272" lon="2.72397">
        <ele>110.19999694824</ele>
        <time>2022-02-12T13:42:54Z</time>
      </trkpt>
      <trkpt lat="48.35269" lon="2.72388">
        <ele>110.19999694824</ele>
        <time>2022-02-12T13:42:59Z</time>
      </trkpt>
      <trkpt lat="48.35267" lon="2.72379">
        <ele>110.19999694824</ele>
        <time>2022-02-12T13:43:04Z</time>
      </trkpt>
      <trkpt lat="48.35264" lon="2.72369">
        <ele>110.19999694824</ele>
        <time>2022-02-12T13:43:09Z</time>
      </trkpt>
      <trkpt lat="48.35259" lon="2.72359">
        <ele>109.80000305176</ele>
        <time>2022-02-12T13:43:14Z</time>
      </trkpt>
      <trkpt lat="48.35256" lon="2.72351">
        <ele>109.80000305176</ele>
        <time>2022-02-12T13:43:19Z</time>
      </trkpt>
      <trkpt lat="48.35252" lon="2.72344">
        <ele>109.80000305176</ele>
        <time>2022-02-12T13:43:24Z</time>
      </trkpt>
      <trkpt lat="48.35249" lon="2.72337">
        <ele>109.80000305176</ele>
        <time>2022-02-12T13:43:29Z</time>
      </trkpt>
      <trkpt lat="48.35246" lon="2.7233">
        <ele>110</ele>
        <time>2022-02-12T13:43:34Z</time>
      </trkpt>
      <trkpt lat="48.35244" lon="2.72324">
        <ele>109.80000305176</ele>
        <time>2022-02-12T13:43:39Z</time>
      </trkpt>
      <trkpt lat="48.35241" lon="2.72317">
        <ele>109.80000305176</ele>
        <time>2022-02-12T13:43:44Z</time>
      </trkpt>
      <trkpt lat="48.35237" lon="2.7231">
        <ele>109.80000305176</ele>
        <time>2022-02-12T13:43:49Z</time>
      </trkpt>
      <trkpt lat="48.35234" lon="2.72305">
        <ele>109.80000305176</ele>
        <time>2022-02-12T13:43:54Z</time>
      </trkpt>
      <trkpt lat="48.35232" lon="2.72296">
        <ele>109.59999847412</ele>
        <time>2022-02-12T13:43:59Z</time>
      </trkpt>
      <trkpt lat="48.35231" lon="2.72289">
        <ele>109.40000152588</ele>
        <time>2022-02-12T13:44:04Z</time>
      </trkpt>
      <trkpt lat="48.35231" lon="2.72282">
        <ele>109.19999694824</ele>
        <time>2022-02-12T13:44:09Z</time>
      </trkpt>
      <trkpt lat="48.35232" lon="2.72273">
        <ele>109.19999694824</ele>
        <time>2022-02-12T13:44:14Z</time>
      </trkpt>
      <trkpt lat="48.35234" lon="2.7227">
        <ele>109</ele>
        <time>2022-02-12T13:44:19Z</time>
      </trkpt>
      <trkpt lat="48.35235" lon="2.72263">
        <ele>109.19999694824</ele>
        <time>2022-02-12T13:44:24Z</time>
      </trkpt>
      <trkpt lat="48.35237" lon="2.72256">
        <ele>109.19999694824</ele>
        <time>2022-02-12T13:44:29Z</time>
      </trkpt>
      <trkpt lat="48.35238" lon="2.72251">
        <ele>109.59999847412</ele>
        <time>2022-02-12T13:44:34Z</time>
      </trkpt>
      <trkpt lat="48.35238" lon="2.72245">
        <ele>109.80000305176</ele>
        <time>2022-02-12T13:44:39Z</time>
      </trkpt>
      <trkpt lat="48.35238" lon="2.7224">
        <ele>110.19999694824</ele>
        <time>2022-02-12T13:44:44Z</time>
      </trkpt>
      <trkpt lat="48.35239" lon="2.72232">
        <ele>110</ele>
        <time>2022-02-12T13:44:49Z</time>
      </trkpt>
      <trkpt lat="48.3524" lon="2.72226">
        <ele>109.59999847412</ele>
        <time>2022-02-12T13:44:54Z</time>
      </trkpt>
      <trkpt lat="48.35241" lon="2.72219">
        <ele>109.19999694824</ele>
        <time>2022-02-12T13:44:59Z</time>
      </trkpt>
      <trkpt lat="48.35243" lon="2.72212">
        <ele>109</ele>
        <time>2022-02-12T13:45:04Z</time>
      </trkpt>
      <trkpt lat="48.35246" lon="2.72205">
        <ele>109</ele>
        <time>2022-02-12T13:45:09Z</time>
      </trkpt>
      <trkpt lat="48.35248" lon="2.72197">
        <ele>109</ele>
        <time>2022-02-12T13:45:14Z</time>
      </trkpt>
      <trkpt lat="48.35252" lon="2.72188">
        <ele>109</ele>
        <time>2022-02-12T13:45:19Z</time>
      </trkpt>
      <trkpt lat="48.35254" lon="2.7218">
        <ele>109.19999694824</ele>
        <time>2022-02-12T13:45:24Z</time>
      </trkpt>
      <trkpt lat="48.35254" lon="2.72172">
        <ele>109.19999694824</ele>
        <time>2022-02-12T13:45:29Z</time>
      </trkpt>
      <trkpt lat="48.35258" lon="2.72163">
        <ele>109.19999694824</ele>
        <time>2022-02-12T13:45:34Z</time>
      </trkpt>
      <trkpt lat="48.35263" lon="2.72153">
        <ele>109.40000152588</ele>
        <time>2022-02-12T13:45:39Z</time>
      </trkpt>
      <trkpt lat="48.35268" lon="2.72144">
        <ele>109.40000152588</ele>
        <time>2022-02-12T13:45:44Z</time>
      </trkpt>
      <trkpt lat="48.35271" lon="2.72138">
        <ele>109.59999847412</ele>
        <time>2022-02-12T13:45:49Z</time>
      </trkpt>
      <trkpt lat="48.35273" lon="2.72131">
        <ele>109.80000305176</ele>
        <time>2022-02-12T13:45:54Z</time>
      </trkpt>
      <trkpt lat="48.35276" lon="2.72126">
        <ele>109.59999847412</ele>
        <time>2022-02-12T13:45:59Z</time>
      </trkpt>
      <trkpt lat="48.35277" lon="2.72119">
        <ele>109.40000152588</ele>
        <time>2022-02-12T13:46:04Z</time>
      </trkpt>
      <trkpt lat="48.35279" lon="2.72113">
        <ele>109.40000152588</ele>
        <time>2022-02-12T13:46:09Z</time>
      </trkpt>
      <trkpt lat="48.35281" lon="2.72109">
        <ele>109.40000152588</ele>
        <time>2022-02-12T13:46:14Z</time>
      </trkpt>
      <trkpt lat="48.35284" lon="2.72104">
        <ele>109.19999694824</ele>
        <time>2022-02-12T13:46:19Z</time>
      </trkpt>
      <trkpt lat="48.35284" lon="2.72097">
        <ele>109</ele>
        <time>2022-02-12T13:46:24Z</time>
      </trkpt>
      <trkpt lat="48.35285" lon="2.72091">
        <ele>109</ele>
        <time>2022-02-12T13:46:29Z</time>
      </trkpt>
      <trkpt lat="48.35285" lon="2.72084">
        <ele>108.59999847412</ele>
        <time>2022-02-12T13:46:34Z</time>
      </trkpt>
      <trkpt lat="48.35285" lon="2.72077">
        <ele>108.40000152588</ele>
        <time>2022-02-12T13:46:39Z</time>
      </trkpt>
      <trkpt lat="48.35286" lon="2.7207">
        <ele>108.19999694824</ele>
        <time>2022-02-12T13:46:44Z</time>
      </trkpt>
      <trkpt lat="48.35288" lon="2.72063">
        <ele>108.19999694824</ele>
        <time>2022-02-12T13:46:49Z</time>
      </trkpt>
      <trkpt lat="48.35291" lon="2.72056">
        <ele>108</ele>
        <time>2022-02-12T13:46:54Z</time>
      </trkpt>
      <trkpt lat="48.35292" lon="2.72051">
        <ele>108</ele>
        <time>2022-02-12T13:46:59Z</time>
      </trkpt>
      <trkpt lat="48.35293" lon="2.72046">
        <ele>107.80000305176</ele>
        <time>2022-02-12T13:47:04Z</time>
      </trkpt>
      <trkpt lat="48.35297" lon="2.72039">
        <ele>107.40000152588</ele>
        <time>2022-02-12T13:47:09Z</time>
      </trkpt>
      <trkpt lat="48.353" lon="2.72034">
        <ele>107.40000152588</ele>
        <time>2022-02-12T13:47:14Z</time>
      </trkpt>
      <trkpt lat="48.35302" lon="2.72029">
        <ele>107.19999694824</ele>
        <time>2022-02-12T13:47:19Z</time>
      </trkpt>
      <trkpt lat="48.35306" lon="2.72023">
        <ele>107.40000152588</ele>
        <time>2022-02-12T13:47:24Z</time>
      </trkpt>
      <trkpt lat="48.35308" lon="2.72016">
        <ele>107.59999847412</ele>
        <time>2022-02-12T13:47:29Z</time>
      </trkpt>
      <trkpt lat="48.35306" lon="2.72009">
        <ele>107.80000305176</ele>
        <time>2022-02-12T13:47:34Z</time>
      </trkpt>
      <trkpt lat="48.35305" lon="2.72003">
        <ele>107.59999847412</ele>
        <time>2022-02-12T13:47:39Z</time>
      </trkpt>
      <trkpt lat="48.35306" lon="2.71995">
        <ele>107.59999847412</ele>
        <time>2022-02-12T13:47:44Z</time>
      </trkpt>
      <trkpt lat="48.35307" lon="2.7199">
        <ele>107.59999847412</ele>
        <time>2022-02-12T13:47:49Z</time>
      </trkpt>
      <trkpt lat="48.35309" lon="2.71984">
        <ele>107.59999847412</ele>
        <time>2022-02-12T13:47:54Z</time>
      </trkpt>
      <trkpt lat="48.35313" lon="2.71976">
        <ele>107.59999847412</ele>
        <time>2022-02-12T13:47:59Z</time>
      </trkpt>
      <trkpt lat="48.35315" lon="2.71971">
        <ele>107.80000305176</ele>
        <time>2022-02-12T13:48:04Z</time>
      </trkpt>
      <trkpt lat="48.35316" lon="2.71963">
        <ele>108</ele>
        <time>2022-02-12T13:48:09Z</time>
      </trkpt>
      <trkpt lat="48.35316" lon="2.71955">
        <ele>108.40000152588</ele>
        <time>2022-02-12T13:48:14Z</time>
      </trkpt>
      <trkpt lat="48.35316" lon="2.71947">
        <ele>108.40000152588</ele>
        <time>2022-02-12T13:48:19Z</time>
      </trkpt>
      <trkpt lat="48.35317" lon="2.71939">
        <ele>108.19999694824</ele>
        <time>2022-02-12T13:48:24Z</time>
      </trkpt>
      <trkpt lat="48.35319" lon="2.71933">
        <ele>108.19999694824</ele>
        <time>2022-02-12T13:48:29Z</time>
      </trkpt>
      <trkpt lat="48.3532" lon="2.71926">
        <ele>108.19999694824</ele>
        <time>2022-02-12T13:48:34Z</time>
      </trkpt>
      <trkpt lat="48.35324" lon="2.7192">
        <ele>108.19999694824</ele>
        <time>2022-02-12T13:48:39Z</time>
      </trkpt>
      <trkpt lat="48.35329" lon="2.71916">
        <ele>108.40000152588</ele>
        <time>2022-02-12T13:48:44Z</time>
      </trkpt>
      <trkpt lat="48.35332" lon="2.71913">
        <ele>109</ele>
        <time>2022-02-12T13:48:49Z</time>
      </trkpt>
      <trkpt lat="48.35335" lon="2.71908">
        <ele>109.19999694824</ele>
        <time>2022-02-12T13:48:54Z</time>
      </trkpt>
      <trkpt lat="48.35339" lon="2.71901">
        <ele>109.59999847412</ele>
        <time>2022-02-12T13:48:59Z</time>
      </trkpt>
      <trkpt lat="48.35344" lon="2.71894">
        <ele>110</ele>
        <time>2022-02-12T13:49:04Z</time>
      </trkpt>
      <trkpt lat="48.35346" lon="2.71891">
        <ele>110</ele>
        <time>2022-02-12T13:49:09Z</time>
      </trkpt>
      <trkpt lat="48.35348" lon="2.71888">
        <ele>110.40000152588</ele>
        <time>2022-02-12T13:49:14Z</time>
      </trkpt>
      <trkpt lat="48.35351" lon="2.71884">
        <ele>110.80000305176</ele>
        <time>2022-02-12T13:49:19Z</time>
      </trkpt>
      <trkpt lat="48.35355" lon="2.71879">
        <ele>110.80000305176</ele>
        <time>2022-02-12T13:49:24Z</time>
      </trkpt>
      <trkpt lat="48.35361" lon="2.71876">
        <ele>110.59999847412</ele>
        <time>2022-02-12T13:49:29Z</time>
      </trkpt>
      <trkpt lat="48.35365" lon="2.71872">
        <ele>110.59999847412</ele>
        <time>2022-02-12T13:49:34Z</time>
      </trkpt>
      <trkpt lat="48.3537" lon="2.71868">
        <ele>110.40000152588</ele>
        <time>2022-02-12T13:49:39Z</time>
      </trkpt>
      <trkpt lat="48.35374" lon="2.71867">
        <ele>110.40000152588</ele>
        <time>2022-02-12T13:49:44Z</time>
      </trkpt>
      <trkpt lat="48.3538" lon="2.71865">
        <ele>110.19999694824</ele>
        <time>2022-02-12T13:49:49Z</time>
      </trkpt>
      <trkpt lat="48.35383" lon="2.71863">
        <ele>109.80000305176</ele>
        <time>2022-02-12T13:49:54Z</time>
      </trkpt>
      <trkpt lat="48.35389" lon="2.71862">
        <ele>109.80000305176</ele>
        <time>2022-02-12T13:49:59Z</time>
      </trkpt>
      <trkpt lat="48.35393" lon="2.71864">
        <ele>109.80000305176</ele>
        <time>2022-02-12T13:50:04Z</time>
      </trkpt>
      <trkpt lat="48.35398" lon="2.7186">
        <ele>109.59999847412</ele>
        <time>2022-02-12T13:50:09Z</time>
      </trkpt>
      <trkpt lat="48.35404" lon="2.71858">
        <ele>109.59999847412</ele>
        <time>2022-02-12T13:50:14Z</time>
      </trkpt>
      <trkpt lat="48.35409" lon="2.71855">
        <ele>109.40000152588</ele>
        <time>2022-02-12T13:50:19Z</time>
      </trkpt>
      <trkpt lat="48.35416" lon="2.7185">
        <ele>109.19999694824</ele>
        <time>2022-02-12T13:50:24Z</time>
      </trkpt>
      <trkpt lat="48.35422" lon="2.71844">
        <ele>109</ele>
        <time>2022-02-12T13:50:29Z</time>
      </trkpt>
      <trkpt lat="48.35426" lon="2.7184">
        <ele>109</ele>
        <time>2022-02-12T13:50:34Z</time>
      </trkpt>
      <trkpt lat="48.35429" lon="2.71838">
        <ele>109.19999694824</ele>
        <time>2022-02-12T13:50:39Z</time>
      </trkpt>
      <trkpt lat="48.35431" lon="2.71837">
        <ele>109.19999694824</ele>
        <time>2022-02-12T13:50:44Z</time>
      </trkpt>
      <trkpt lat="48.35431" lon="2.71835">
        <ele>109.19999694824</ele>
        <time>2022-02-12T13:50:49Z</time>
      </trkpt>
      <trkpt lat="48.35433" lon="2.71835">
        <ele>109.19999694824</ele>
        <time>2022-02-12T13:50:54Z</time>
      </trkpt>
      <trkpt lat="48.35434" lon="2.71834">
        <ele>109.40000152588</ele>
        <time>2022-02-12T13:50:59Z</time>
      </trkpt>
      <trkpt lat="48.35435" lon="2.71833">
        <ele>109.40000152588</ele>
        <time>2022-02-12T13:51:04Z</time>
      </trkpt>
      <trkpt lat="48.35436" lon="2.71832">
        <ele>109.40000152588</ele>
        <time>2022-02-12T13:51:09Z</time>
      </trkpt>
      <trkpt lat="48.35436" lon="2.7183">
        <ele>109.40000152588</ele>
        <time>2022-02-12T13:51:14Z</time>
      </trkpt>
      <trkpt lat="48.3544" lon="2.71824">
        <ele>109.40000152588</ele>
        <time>2022-02-12T13:51:19Z</time>
      </trkpt>
      <trkpt lat="48.35445" lon="2.7182">
        <ele>109.40000152588</ele>
        <time>2022-02-12T13:51:24Z</time>
      </trkpt>
      <trkpt lat="48.3545" lon="2.71819">
        <ele>109.40000152588</ele>
        <time>2022-02-12T13:51:29Z</time>
      </trkpt>
      <trkpt lat="48.35454" lon="2.71819">
        <ele>109.40000152588</ele>
        <time>2022-02-12T13:51:34Z</time>
      </trkpt>
      <trkpt lat="48.35458" lon="2.71817">
        <ele>109.59999847412</ele>
        <time>2022-02-12T13:51:39Z</time>
      </trkpt>
      <trkpt lat="48.35461" lon="2.71814">
        <ele>109.59999847412</ele>
        <time>2022-02-12T13:51:44Z</time>
      </trkpt>
      <trkpt lat="48.35464" lon="2.71812">
        <ele>109.59999847412</ele>
        <time>2022-02-12T13:51:49Z</time>
      </trkpt>
      <trkpt lat="48.35471" lon="2.71805">
        <ele>109.59999847412</ele>
        <time>2022-02-12T13:51:54Z</time>
      </trkpt>
      <trkpt lat="48.35473" lon="2.71801">
        <ele>109.59999847412</ele>
        <time>2022-02-12T13:51:59Z</time>
      </trkpt>
      <trkpt lat="48.35478" lon="2.71803">
        <ele>109.80000305176</ele>
        <time>2022-02-12T13:52:04Z</time>
      </trkpt>
      <trkpt lat="48.3548" lon="2.71798">
        <ele>109.80000305176</ele>
        <time>2022-02-12T13:52:09Z</time>
      </trkpt>
      <trkpt lat="48.3548" lon="2.71792">
        <ele>109.59999847412</ele>
        <time>2022-02-12T13:52:14Z</time>
      </trkpt>
      <trkpt lat="48.3548" lon="2.71786">
        <ele>109.59999847412</ele>
        <time>2022-02-12T13:52:19Z</time>
      </trkpt>
      <trkpt lat="48.35479" lon="2.71784">
        <ele>109.80000305176</ele>
        <time>2022-02-12T13:52:24Z</time>
      </trkpt>
      <trkpt lat="48.35477" lon="2.71781">
        <ele>109.80000305176</ele>
        <time>2022-02-12T13:52:29Z</time>
      </trkpt>
      <trkpt lat="48.35475" lon="2.71778">
        <ele>109.80000305176</ele>
        <time>2022-02-12T13:52:34Z</time>
      </trkpt>
      <trkpt lat="48.3547" lon="2.71773">
        <ele>109.80000305176</ele>
        <time>2022-02-12T13:52:39Z</time>
      </trkpt>
      <trkpt lat="48.35468" lon="2.71769">
        <ele>110.19999694824</ele>
        <time>2022-02-12T13:52:44Z</time>
      </trkpt>
      <trkpt lat="48.35471" lon="2.71761">
        <ele>110.19999694824</ele>
        <time>2022-02-12T13:52:49Z</time>
      </trkpt>
      <trkpt lat="48.3547" lon="2.71754">
        <ele>110</ele>
        <time>2022-02-12T13:52:54Z</time>
      </trkpt>
      <trkpt lat="48.35466" lon="2.71749">
        <ele>109.80000305176</ele>
        <time>2022-02-12T13:52:59Z</time>
      </trkpt>
      <trkpt lat="48.35463" lon="2.71742">
        <ele>110</ele>
        <time>2022-02-12T13:53:04Z</time>
      </trkpt>
      <trkpt lat="48.35459" lon="2.71735">
        <ele>110.19999694824</ele>
        <time>2022-02-12T13:53:09Z</time>
      </trkpt>
      <trkpt lat="48.35457" lon="2.71725">
        <ele>110.40000152588</ele>
        <time>2022-02-12T13:53:14Z</time>
      </trkpt>
      <trkpt lat="48.35457" lon="2.71716">
        <ele>110.59999847412</ele>
        <time>2022-02-12T13:53:19Z</time>
      </trkpt>
      <trkpt lat="48.35457" lon="2.71708">
        <ele>110.80000305176</ele>
        <time>2022-02-12T13:53:24Z</time>
      </trkpt>
      <trkpt lat="48.35456" lon="2.71698">
        <ele>111</ele>
        <time>2022-02-12T13:53:29Z</time>
      </trkpt>
      <trkpt lat="48.35456" lon="2.71693">
        <ele>111</ele>
        <time>2022-02-12T13:53:34Z</time>
      </trkpt>
      <trkpt lat="48.35458" lon="2.71684">
        <ele>111.19999694824</ele>
        <time>2022-02-12T13:53:39Z</time>
      </trkpt>
      <trkpt lat="48.35455" lon="2.71677">
        <ele>111.40000152588</ele>
        <time>2022-02-12T13:53:44Z</time>
      </trkpt>
      <trkpt lat="48.35452" lon="2.71664">
        <ele>111.80000305176</ele>
        <time>2022-02-12T13:53:49Z</time>
      </trkpt>
      <trkpt lat="48.35449" lon="2.71656">
        <ele>112</ele>
        <time>2022-02-12T13:53:54Z</time>
      </trkpt>
      <trkpt lat="48.35446" lon="2.7165">
        <ele>112</ele>
        <time>2022-02-12T13:53:59Z</time>
      </trkpt>
      <trkpt lat="48.35441" lon="2.71643">
        <ele>112.19999694824</ele>
        <time>2022-02-12T13:54:04Z</time>
      </trkpt>
      <trkpt lat="48.35437" lon="2.71638">
        <ele>112.19999694824</ele>
        <time>2022-02-12T13:54:09Z</time>
      </trkpt>
      <trkpt lat="48.35433" lon="2.71634">
        <ele>112.40000152588</ele>
        <time>2022-02-12T13:54:14Z</time>
      </trkpt>
      <trkpt lat="48.35429" lon="2.71626">
        <ele>112.59999847412</ele>
        <time>2022-02-12T13:54:19Z</time>
      </trkpt>
      <trkpt lat="48.35427" lon="2.71621">
        <ele>112.40000152588</ele>
        <time>2022-02-12T13:54:24Z</time>
      </trkpt>
      <trkpt lat="48.35424" lon="2.71622">
        <ele>112.40000152588</ele>
        <time>2022-02-12T13:54:29Z</time>
      </trkpt>
      <trkpt lat="48.3542" lon="2.71618">
        <ele>112.19999694824</ele>
        <time>2022-02-12T13:54:34Z</time>
      </trkpt>
      <trkpt lat="48.35418" lon="2.71613">
        <ele>112.19999694824</ele>
        <time>2022-02-12T13:54:39Z</time>
      </trkpt>
      <trkpt lat="48.35418" lon="2.71603">
        <ele>112.19999694824</ele>
        <time>2022-02-12T13:54:44Z</time>
      </trkpt>
      <trkpt lat="48.35417" lon="2.71592">
        <ele>112</ele>
        <time>2022-02-12T13:54:49Z</time>
      </trkpt>
      <trkpt lat="48.35415" lon="2.71583">
        <ele>112</ele>
        <time>2022-02-12T13:54:54Z</time>
      </trkpt>
      <trkpt lat="48.35414" lon="2.71576">
        <ele>112.19999694824</ele>
        <time>2022-02-12T13:54:59Z</time>
      </trkpt>
      <trkpt lat="48.35414" lon="2.71565">
        <ele>112.19999694824</ele>
        <time>2022-02-12T13:55:04Z</time>
      </trkpt>
      <trkpt lat="48.35411" lon="2.71556">
        <ele>112.19999694824</ele>
        <time>2022-02-12T13:55:09Z</time>
      </trkpt>
      <trkpt lat="48.3541" lon="2.7155">
        <ele>112.19999694824</ele>
        <time>2022-02-12T13:55:14Z</time>
      </trkpt>
      <trkpt lat="48.35409" lon="2.71545">
        <ele>112.40000152588</ele>
        <time>2022-02-12T13:55:19Z</time>
      </trkpt>
      <trkpt lat="48.35407" lon="2.71536">
        <ele>112.40000152588</ele>
        <time>2022-02-12T13:55:24Z</time>
      </trkpt>
      <trkpt lat="48.35404" lon="2.71527">
        <ele>112.40000152588</ele>
        <time>2022-02-12T13:55:29Z</time>
      </trkpt>
      <trkpt lat="48.35401" lon="2.71522">
        <ele>112.40000152588</ele>
        <time>2022-02-12T13:55:34Z</time>
      </trkpt>
      <trkpt lat="48.35406" lon="2.71516">
        <ele>112.40000152588</ele>
        <time>2022-02-12T13:55:39Z</time>
      </trkpt>
      <trkpt lat="48.35408" lon="2.71511">
        <ele>112.59999847412</ele>
        <time>2022-02-12T13:55:44Z</time>
      </trkpt>
      <trkpt lat="48.3541" lon="2.71508">
        <ele>113</ele>
        <time>2022-02-12T13:55:49Z</time>
      </trkpt>
      <trkpt lat="48.35411" lon="2.71507">
        <ele>113.59999847412</ele>
        <time>2022-02-12T13:55:54Z</time>
      </trkpt>
      <trkpt lat="48.35413" lon="2.71506">
        <ele>114.19999694824</ele>
        <time>2022-02-12T13:55:59Z</time>
      </trkpt>
      <trkpt lat="48.35417" lon="2.71503">
        <ele>114.80000305176</ele>
        <time>2022-02-12T13:56:04Z</time>
      </trkpt>
      <trkpt lat="48.35418" lon="2.71502">
        <ele>115.80000305176</ele>
        <time>2022-02-12T13:56:09Z</time>
      </trkpt>
      <trkpt lat="48.35425" lon="2.71503">
        <ele>116.40000152588</ele>
        <time>2022-02-12T13:56:14Z</time>
      </trkpt>
      <trkpt lat="48.3543" lon="2.715">
        <ele>117.19999694824</ele>
        <time>2022-02-12T13:56:19Z</time>
      </trkpt>
      <trkpt lat="48.35435" lon="2.71496">
        <ele>118.19999694824</ele>
        <time>2022-02-12T13:56:24Z</time>
      </trkpt>
      <trkpt lat="48.35437" lon="2.71495">
        <ele>119</ele>
        <time>2022-02-12T13:56:29Z</time>
      </trkpt>
      <trkpt lat="48.3544" lon="2.71493">
        <ele>120.40000152588</ele>
        <time>2022-02-12T13:56:34Z</time>
      </trkpt>
      <trkpt lat="48.35443" lon="2.71491">
        <ele>121.40000152588</ele>
        <time>2022-02-12T13:56:39Z</time>
      </trkpt>
      <trkpt lat="48.35445" lon="2.71492">
        <ele>122.19999694824</ele>
        <time>2022-02-12T13:56:44Z</time>
      </trkpt>
      <trkpt lat="48.35448" lon="2.71489">
        <ele>123</ele>
        <time>2022-02-12T13:56:49Z</time>
      </trkpt>
      <trkpt lat="48.35449" lon="2.71489">
        <ele>124</ele>
        <time>2022-02-12T13:56:54Z</time>
      </trkpt>
      <trkpt lat="48.35452" lon="2.71486">
        <ele>124.80000305176</ele>
        <time>2022-02-12T13:56:59Z</time>
      </trkpt>
      <trkpt lat="48.3546" lon="2.7148">
        <ele>125.80000305176</ele>
        <time>2022-02-12T13:57:04Z</time>
      </trkpt>
      <trkpt lat="48.35462" lon="2.71481">
        <ele>126.40000152588</ele>
        <time>2022-02-12T13:57:09Z</time>
      </trkpt>
      <trkpt lat="48.35465" lon="2.71479">
        <ele>127.19999694824</ele>
        <time>2022-02-12T13:57:14Z</time>
      </trkpt>
      <trkpt lat="48.35466" lon="2.71476">
        <ele>128</ele>
        <time>2022-02-12T13:57:19Z</time>
      </trkpt>
      <trkpt lat="48.35472" lon="2.71477">
        <ele>128.39999389648</ele>
        <time>2022-02-12T13:57:24Z</time>
      </trkpt>
      <trkpt lat="48.35478" lon="2.71478">
        <ele>129.19999694824</ele>
        <time>2022-02-12T13:57:29Z</time>
      </trkpt>
      <trkpt lat="48.35483" lon="2.7148">
        <ele>129.60000610352</ele>
        <time>2022-02-12T13:57:34Z</time>
      </trkpt>
      <trkpt lat="48.35491" lon="2.7148">
        <ele>129.60000610352</ele>
        <time>2022-02-12T13:57:39Z</time>
      </trkpt>
      <trkpt lat="48.35498" lon="2.71478">
        <ele>130</ele>
        <time>2022-02-12T13:57:44Z</time>
      </trkpt>
      <trkpt lat="48.35502" lon="2.71477">
        <ele>130</ele>
        <time>2022-02-12T13:57:49Z</time>
      </trkpt>
      <trkpt lat="48.35505" lon="2.71477">
        <ele>130</ele>
        <time>2022-02-12T13:57:54Z</time>
      </trkpt>
      <trkpt lat="48.3551" lon="2.71475">
        <ele>130</ele>
        <time>2022-02-12T13:57:59Z</time>
      </trkpt>
      <trkpt lat="48.35513" lon="2.71474">
        <ele>129.80000305176</ele>
        <time>2022-02-12T13:58:04Z</time>
      </trkpt>
      <trkpt lat="48.35518" lon="2.71475">
        <ele>129.80000305176</ele>
        <time>2022-02-12T13:58:09Z</time>
      </trkpt>
      <trkpt lat="48.35521" lon="2.71474">
        <ele>129.39999389648</ele>
        <time>2022-02-12T13:58:14Z</time>
      </trkpt>
      <trkpt lat="48.35524" lon="2.71472">
        <ele>128.80000305176</ele>
        <time>2022-02-12T13:58:19Z</time>
      </trkpt>
      <trkpt lat="48.35527" lon="2.7147">
        <ele>128.19999694824</ele>
        <time>2022-02-12T13:58:24Z</time>
      </trkpt>
      <trkpt lat="48.3553" lon="2.71464">
        <ele>127.59999847412</ele>
        <time>2022-02-12T13:58:29Z</time>
      </trkpt>
      <trkpt lat="48.35532" lon="2.71464">
        <ele>127.19999694824</ele>
        <time>2022-02-12T13:58:34Z</time>
      </trkpt>
      <trkpt lat="48.35533" lon="2.7146">
        <ele>127</ele>
        <time>2022-02-12T13:58:39Z</time>
      </trkpt>
      <trkpt lat="48.35534" lon="2.71457">
        <ele>127</ele>
        <time>2022-02-12T13:58:44Z</time>
      </trkpt>
      <trkpt lat="48.35542" lon="2.71446">
        <ele>127</ele>
        <time>2022-02-12T13:58:49Z</time>
      </trkpt>
      <trkpt lat="48.35547" lon="2.71442">
        <ele>127</ele>
        <time>2022-02-12T13:58:54Z</time>
      </trkpt>
      <trkpt lat="48.35554" lon="2.71439">
        <ele>127</ele>
        <time>2022-02-12T13:58:59Z</time>
      </trkpt>
      <trkpt lat="48.3556" lon="2.71437">
        <ele>127.19999694824</ele>
        <time>2022-02-12T13:59:04Z</time>
      </trkpt>
      <trkpt lat="48.35565" lon="2.71438">
        <ele>127.80000305176</ele>
        <time>2022-02-12T13:59:09Z</time>
      </trkpt>
      <trkpt lat="48.3557" lon="2.71438">
        <ele>128.19999694824</ele>
        <time>2022-02-12T13:59:14Z</time>
      </trkpt>
      <trkpt lat="48.3557" lon="2.71437">
        <ele>128.60000610352</ele>
        <time>2022-02-12T13:59:19Z</time>
      </trkpt>
      <trkpt lat="48.35572" lon="2.71435">
        <ele>129.39999389648</ele>
        <time>2022-02-12T13:59:24Z</time>
      </trkpt>
      <trkpt lat="48.35576" lon="2.71431">
        <ele>130</ele>
        <time>2022-02-12T13:59:29Z</time>
      </trkpt>
      <trkpt lat="48.35577" lon="2.71427">
        <ele>130.19999694824</ele>
        <time>2022-02-12T13:59:34Z</time>
      </trkpt>
      <trkpt lat="48.35579" lon="2.71424">
        <ele>130.19999694824</ele>
        <time>2022-02-12T13:59:39Z</time>
      </trkpt>
      <trkpt lat="48.35581" lon="2.71421">
        <ele>130.60000610352</ele>
        <time>2022-02-12T13:59:44Z</time>
      </trkpt>
      <trkpt lat="48.35583" lon="2.71417">
        <ele>131.19999694824</ele>
        <time>2022-02-12T13:59:49Z</time>
      </trkpt>
      <trkpt lat="48.35585" lon="2.71412">
        <ele>131.60000610352</ele>
        <time>2022-02-12T13:59:54Z</time>
      </trkpt>
      <trkpt lat="48.35588" lon="2.71408">
        <ele>132</ele>
        <time>2022-02-12T13:59:59Z</time>
      </trkpt>
      <trkpt lat="48.35589" lon="2.71404">
        <ele>132.80000305176</ele>
        <time>2022-02-12T14:00:04Z</time>
      </trkpt>
      <trkpt lat="48.35591" lon="2.71399">
        <ele>133.39999389648</ele>
        <time>2022-02-12T14:00:09Z</time>
      </trkpt>
      <trkpt lat="48.35591" lon="2.71394">
        <ele>134.19999694824</ele>
        <time>2022-02-12T14:00:14Z</time>
      </trkpt>
      <trkpt lat="48.35593" lon="2.71387">
        <ele>134.80000305176</ele>
        <time>2022-02-12T14:00:19Z</time>
      </trkpt>
      <trkpt lat="48.3559" lon="2.71381">
        <ele>135.39999389648</ele>
        <time>2022-02-12T14:00:24Z</time>
      </trkpt>
      <trkpt lat="48.35591" lon="2.71373">
        <ele>136</ele>
        <time>2022-02-12T14:00:29Z</time>
      </trkpt>
      <trkpt lat="48.35591" lon="2.71367">
        <ele>137</ele>
        <time>2022-02-12T14:00:34Z</time>
      </trkpt>
      <trkpt lat="48.35594" lon="2.71361">
        <ele>137.39999389648</ele>
        <time>2022-02-12T14:00:39Z</time>
      </trkpt>
      <trkpt lat="48.35598" lon="2.71354">
        <ele>138</ele>
        <time>2022-02-12T14:00:44Z</time>
      </trkpt>
      <trkpt lat="48.356" lon="2.71348">
        <ele>138.19999694824</ele>
        <time>2022-02-12T14:00:49Z</time>
      </trkpt>
      <trkpt lat="48.35604" lon="2.71344">
        <ele>138.60000610352</ele>
        <time>2022-02-12T14:00:54Z</time>
      </trkpt>
      <trkpt lat="48.35607" lon="2.71342">
        <ele>139.19999694824</ele>
        <time>2022-02-12T14:00:59Z</time>
      </trkpt>
      <trkpt lat="48.35609" lon="2.7134">
        <ele>139.80000305176</ele>
        <time>2022-02-12T14:01:04Z</time>
      </trkpt>
      <trkpt lat="48.35611" lon="2.71338">
        <ele>140.39999389648</ele>
        <time>2022-02-12T14:01:09Z</time>
      </trkpt>
      <trkpt lat="48.35613" lon="2.71337">
        <ele>141</ele>
        <time>2022-02-12T14:01:14Z</time>
      </trkpt>
      <trkpt lat="48.35616" lon="2.71337">
        <ele>141.80000305176</ele>
        <time>2022-02-12T14:01:19Z</time>
      </trkpt>
      <trkpt lat="48.35617" lon="2.71337">
        <ele>143</ele>
        <time>2022-02-12T14:01:24Z</time>
      </trkpt>
      <trkpt lat="48.35622" lon="2.71337">
        <ele>143.80000305176</ele>
        <time>2022-02-12T14:01:29Z</time>
      </trkpt>
      <trkpt lat="48.35626" lon="2.71335">
        <ele>144.19999694824</ele>
        <time>2022-02-12T14:01:34Z</time>
      </trkpt>
      <trkpt lat="48.35628" lon="2.71331">
        <ele>145</ele>
        <time>2022-02-12T14:01:39Z</time>
      </trkpt>
      <trkpt lat="48.35631" lon="2.71331">
        <ele>145.60000610352</ele>
        <time>2022-02-12T14:01:44Z</time>
      </trkpt>
      <trkpt lat="48.35632" lon="2.7133">
        <ele>146</ele>
        <time>2022-02-12T14:01:49Z</time>
      </trkpt>
      <trkpt lat="48.35633" lon="2.71329">
        <ele>146</ele>
        <time>2022-02-12T14:01:54Z</time>
      </trkpt>
      <trkpt lat="48.35632" lon="2.71327">
        <ele>145.80000305176</ele>
        <time>2022-02-12T14:01:59Z</time>
      </trkpt>
      <trkpt lat="48.35633" lon="2.71324">
        <ele>145.60000610352</ele>
        <time>2022-02-12T14:02:04Z</time>
      </trkpt>
      <trkpt lat="48.35635" lon="2.7132">
        <ele>145.60000610352</ele>
        <time>2022-02-12T14:02:09Z</time>
      </trkpt>
      <trkpt lat="48.35636" lon="2.71316">
        <ele>145</ele>
        <time>2022-02-12T14:02:14Z</time>
      </trkpt>
      <trkpt lat="48.35639" lon="2.7131">
        <ele>144.80000305176</ele>
        <time>2022-02-12T14:02:19Z</time>
      </trkpt>
      <trkpt lat="48.35643" lon="2.71306">
        <ele>145</ele>
        <time>2022-02-12T14:02:24Z</time>
      </trkpt>
      <trkpt lat="48.35646" lon="2.71302">
        <ele>145.60000610352</ele>
        <time>2022-02-12T14:02:29Z</time>
      </trkpt>
      <trkpt lat="48.35649" lon="2.71299">
        <ele>146.60000610352</ele>
        <time>2022-02-12T14:02:34Z</time>
      </trkpt>
      <trkpt lat="48.35652" lon="2.71297">
        <ele>147.39999389648</ele>
        <time>2022-02-12T14:02:39Z</time>
      </trkpt>
      <trkpt lat="48.35653" lon="2.71296">
        <ele>148.60000610352</ele>
        <time>2022-02-12T14:02:44Z</time>
      </trkpt>
      <trkpt lat="48.35654" lon="2.71296">
        <ele>149.39999389648</ele>
        <time>2022-02-12T14:02:49Z</time>
      </trkpt>
      <trkpt lat="48.35656" lon="2.71296">
        <ele>150.39999389648</ele>
        <time>2022-02-12T14:02:54Z</time>
      </trkpt>
      <trkpt lat="48.35657" lon="2.71298">
        <ele>150.60000610352</ele>
        <time>2022-02-12T14:02:59Z</time>
      </trkpt>
      <trkpt lat="48.35659" lon="2.71297">
        <ele>151.19999694824</ele>
        <time>2022-02-12T14:03:04Z</time>
      </trkpt>
      <trkpt lat="48.35661" lon="2.71295">
        <ele>151.19999694824</ele>
        <time>2022-02-12T14:03:09Z</time>
      </trkpt>
      <trkpt lat="48.35661" lon="2.71293">
        <ele>150.60000610352</ele>
        <time>2022-02-12T14:03:14Z</time>
      </trkpt>
      <trkpt lat="48.35664" lon="2.71286">
        <ele>150</ele>
        <time>2022-02-12T14:03:19Z</time>
      </trkpt>
      <trkpt lat="48.35668" lon="2.7128">
        <ele>149.39999389648</ele>
        <time>2022-02-12T14:03:24Z</time>
      </trkpt>
      <trkpt lat="48.35672" lon="2.71275">
        <ele>149.60000610352</ele>
        <time>2022-02-12T14:03:29Z</time>
      </trkpt>
      <trkpt lat="48.35675" lon="2.7127">
        <ele>150.19999694824</ele>
        <time>2022-02-12T14:03:34Z</time>
      </trkpt>
      <trkpt lat="48.35679" lon="2.71265">
        <ele>150.39999389648</ele>
        <time>2022-02-12T14:03:39Z</time>
      </trkpt>
      <trkpt lat="48.35682" lon="2.71261">
        <ele>150.80000305176</ele>
        <time>2022-02-12T14:03:44Z</time>
      </trkpt>
      <trkpt lat="48.35684" lon="2.71257">
        <ele>151.19999694824</ele>
        <time>2022-02-12T14:03:49Z</time>
      </trkpt>
      <trkpt lat="48.35686" lon="2.71252">
        <ele>151</ele>
        <time>2022-02-12T14:03:54Z</time>
      </trkpt>
      <trkpt lat="48.35688" lon="2.7125">
        <ele>150.80000305176</ele>
        <time>2022-02-12T14:03:59Z</time>
      </trkpt>
      <trkpt lat="48.3569" lon="2.71249">
        <ele>150.39999389648</ele>
        <time>2022-02-12T14:04:04Z</time>
      </trkpt>
      <trkpt lat="48.35694" lon="2.71245">
        <ele>149.80000305176</ele>
        <time>2022-02-12T14:04:09Z</time>
      </trkpt>
      <trkpt lat="48.35697" lon="2.71241">
        <ele>150.19999694824</ele>
        <time>2022-02-12T14:04:14Z</time>
      </trkpt>
      <trkpt lat="48.35699" lon="2.71235">
        <ele>150.60000610352</ele>
        <time>2022-02-12T14:04:19Z</time>
      </trkpt>
      <trkpt lat="48.35701" lon="2.7123">
        <ele>151</ele>
        <time>2022-02-12T14:04:24Z</time>
      </trkpt>
      <trkpt lat="48.35702" lon="2.71224">
        <ele>151.39999389648</ele>
        <time>2022-02-12T14:04:29Z</time>
      </trkpt>
      <trkpt lat="48.35704" lon="2.71222">
        <ele>152</ele>
        <time>2022-02-12T14:04:34Z</time>
      </trkpt>
      <trkpt lat="48.35705" lon="2.71218">
        <ele>152.39999389648</ele>
        <time>2022-02-12T14:04:39Z</time>
      </trkpt>
      <trkpt lat="48.35705" lon="2.71215">
        <ele>152.39999389648</ele>
        <time>2022-02-12T14:04:44Z</time>
      </trkpt>
      <trkpt lat="48.35705" lon="2.71213">
        <ele>152.39999389648</ele>
        <time>2022-02-12T14:04:49Z</time>
      </trkpt>
      <trkpt lat="48.35705" lon="2.71211">
        <ele>152.60000610352</ele>
        <time>2022-02-12T14:04:54Z</time>
      </trkpt>
      <trkpt lat="48.35704" lon="2.7121">
        <ele>152.60000610352</ele>
        <time>2022-02-12T14:04:59Z</time>
      </trkpt>
      <trkpt lat="48.35703" lon="2.7121">
        <ele>152.60000610352</ele>
        <time>2022-02-12T14:05:04Z</time>
      </trkpt>
      <trkpt lat="48.35704" lon="2.71208">
        <ele>152.60000610352</ele>
        <time>2022-02-12T14:05:09Z</time>
      </trkpt>
      <trkpt lat="48.35705" lon="2.71207">
        <ele>152.80000305176</ele>
        <time>2022-02-12T14:05:14Z</time>
      </trkpt>
      <trkpt lat="48.35706" lon="2.71206">
        <ele>152.80000305176</ele>
        <time>2022-02-12T14:05:19Z</time>
      </trkpt>
      <trkpt lat="48.35705" lon="2.71204">
        <ele>152.19999694824</ele>
        <time>2022-02-12T14:05:24Z</time>
      </trkpt>
      <trkpt lat="48.35705" lon="2.71203">
        <ele>152</ele>
        <time>2022-02-12T14:05:29Z</time>
      </trkpt>
      <trkpt lat="48.35705" lon="2.71203">
        <ele>151.80000305176</ele>
        <time>2022-02-12T14:05:34Z</time>
      </trkpt>
      <trkpt lat="48.35705" lon="2.71204">
        <ele>151.80000305176</ele>
        <time>2022-02-12T14:05:39Z</time>
      </trkpt>
      <trkpt lat="48.35705" lon="2.71203">
        <ele>151.80000305176</ele>
        <time>2022-02-12T14:05:44Z</time>
      </trkpt>
      <trkpt lat="48.35705" lon="2.71203">
        <ele>152</ele>
        <time>2022-02-12T14:05:49Z</time>
      </trkpt>
      <trkpt lat="48.35705" lon="2.71203">
        <ele>152</ele>
        <time>2022-02-12T14:05:54Z</time>
      </trkpt>
      <trkpt lat="48.35706" lon="2.71205">
        <ele>152</ele>
        <time>2022-02-12T14:05:59Z</time>
      </trkpt>
      <trkpt lat="48.35707" lon="2.71206">
        <ele>152</ele>
        <time>2022-02-12T14:06:04Z</time>
      </trkpt>
      <trkpt lat="48.35708" lon="2.71206">
        <ele>152</ele>
        <time>2022-02-12T14:06:09Z</time>
      </trkpt>
      <trkpt lat="48.35709" lon="2.71206">
        <ele>152</ele>
        <time>2022-02-12T14:06:14Z</time>
      </trkpt>
      <trkpt lat="48.3571" lon="2.71206">
        <ele>152</ele>
        <time>2022-02-12T14:06:19Z</time>
      </trkpt>
      <trkpt lat="48.3571" lon="2.71207">
        <ele>152</ele>
        <time>2022-02-12T14:06:24Z</time>
      </trkpt>
      <trkpt lat="48.3571" lon="2.71209">
        <ele>152</ele>
        <time>2022-02-12T14:06:29Z</time>
      </trkpt>
      <trkpt lat="48.3571" lon="2.71209">
        <ele>152</ele>
        <time>2022-02-12T14:06:34Z</time>
      </trkpt>
      <trkpt lat="48.35711" lon="2.71209">
        <ele>152</ele>
        <time>2022-02-12T14:06:39Z</time>
      </trkpt>
      <trkpt lat="48.35711" lon="2.71209">
        <ele>152</ele>
        <time>2022-02-12T14:06:44Z</time>
      </trkpt>
      <trkpt lat="48.35711" lon="2.71209">
        <ele>152</ele>
        <time>2022-02-12T14:06:49Z</time>
      </trkpt>
      <trkpt lat="48.35711" lon="2.71208">
        <ele>152</ele>
        <time>2022-02-12T14:06:54Z</time>
      </trkpt>
      <trkpt lat="48.35711" lon="2.71209">
        <ele>152</ele>
        <time>2022-02-12T14:06:59Z</time>
      </trkpt>
      <trkpt lat="48.3571" lon="2.71209">
        <ele>152</ele>
        <time>2022-02-12T14:07:04Z</time>
      </trkpt>
      <trkpt lat="48.3571" lon="2.7121">
        <ele>152</ele>
        <time>2022-02-12T14:07:09Z</time>
      </trkpt>
      <trkpt lat="48.35709" lon="2.71211">
        <ele>152</ele>
        <time>2022-02-12T14:07:14Z</time>
      </trkpt>
      <trkpt lat="48.35709" lon="2.71211">
        <ele>152</ele>
        <time>2022-02-12T14:07:19Z</time>
      </trkpt>
      <trkpt lat="48.35709" lon="2.71211">
        <ele>152</ele>
        <time>2022-02-12T14:07:24Z</time>
      </trkpt>
      <trkpt lat="48.35709" lon="2.71211">
        <ele>152</ele>
        <time>2022-02-12T14:07:29Z</time>
      </trkpt>
      <trkpt lat="48.35709" lon="2.7121">
        <ele>152</ele>
        <time>2022-02-12T14:07:34Z</time>
      </trkpt>
      <trkpt lat="48.35709" lon="2.71209">
        <ele>152</ele>
        <time>2022-02-12T14:07:39Z</time>
      </trkpt>
      <trkpt lat="48.35709" lon="2.71207">
        <ele>152</ele>
        <time>2022-02-12T14:07:44Z</time>
      </trkpt>
      <trkpt lat="48.35709" lon="2.71206">
        <ele>152</ele>
        <time>2022-02-12T14:07:49Z</time>
      </trkpt>
      <trkpt lat="48.35708" lon="2.71206">
        <ele>152</ele>
        <time>2022-02-12T14:07:54Z</time>
      </trkpt>
      <trkpt lat="48.35708" lon="2.71206">
        <ele>152</ele>
        <time>2022-02-12T14:07:59Z</time>
      </trkpt>
      <trkpt lat="48.35708" lon="2.71207">
        <ele>152</ele>
        <time>2022-02-12T14:08:04Z</time>
      </trkpt>
      <trkpt lat="48.35707" lon="2.71206">
        <ele>152</ele>
        <time>2022-02-12T14:08:09Z</time>
      </trkpt>
      <trkpt lat="48.35707" lon="2.71205">
        <ele>152</ele>
        <time>2022-02-12T14:08:14Z</time>
      </trkpt>
      <trkpt lat="48.35707" lon="2.71203">
        <ele>152</ele>
        <time>2022-02-12T14:08:19Z</time>
      </trkpt>
      <trkpt lat="48.35706" lon="2.71202">
        <ele>152</ele>
        <time>2022-02-12T14:08:24Z</time>
      </trkpt>
      <trkpt lat="48.35706" lon="2.712">
        <ele>152</ele>
        <time>2022-02-12T14:08:29Z</time>
      </trkpt>
      <trkpt lat="48.35706" lon="2.712">
        <ele>152</ele>
        <time>2022-02-12T14:08:34Z</time>
      </trkpt>
      <trkpt lat="48.35707" lon="2.712">
        <ele>152</ele>
        <time>2022-02-12T14:08:39Z</time>
      </trkpt>
      <trkpt lat="48.35706" lon="2.71201">
        <ele>152</ele>
        <time>2022-02-12T14:08:44Z</time>
      </trkpt>
      <trkpt lat="48.35706" lon="2.71201">
        <ele>152</ele>
        <time>2022-02-12T14:08:49Z</time>
      </trkpt>
      <trkpt lat="48.35706" lon="2.712">
        <ele>152</ele>
        <time>2022-02-12T14:08:54Z</time>
      </trkpt>
      <trkpt lat="48.35706" lon="2.712">
        <ele>152</ele>
        <time>2022-02-12T14:08:59Z</time>
      </trkpt>
      <trkpt lat="48.35706" lon="2.71201">
        <ele>152</ele>
        <time>2022-02-12T14:09:04Z</time>
      </trkpt>
      <trkpt lat="48.35706" lon="2.71201">
        <ele>152</ele>
        <time>2022-02-12T14:09:09Z</time>
      </trkpt>
      <trkpt lat="48.35706" lon="2.71202">
        <ele>152</ele>
        <time>2022-02-12T14:09:14Z</time>
      </trkpt>
      <trkpt lat="48.35707" lon="2.71203">
        <ele>152</ele>
        <time>2022-02-12T14:09:19Z</time>
      </trkpt>
      <trkpt lat="48.35707" lon="2.71203">
        <ele>152</ele>
        <time>2022-02-12T14:09:24Z</time>
      </trkpt>
      <trkpt lat="48.35707" lon="2.71203">
        <ele>152</ele>
        <time>2022-02-12T14:09:29Z</time>
      </trkpt>
      <trkpt lat="48.35708" lon="2.71203">
        <ele>152</ele>
        <time>2022-02-12T14:09:34Z</time>
      </trkpt>
      <trkpt lat="48.35708" lon="2.71201">
        <ele>152</ele>
        <time>2022-02-12T14:09:39Z</time>
      </trkpt>
      <trkpt lat="48.35708" lon="2.712">
        <ele>152</ele>
        <time>2022-02-12T14:09:44Z</time>
      </trkpt>
      <trkpt lat="48.35708" lon="2.712">
        <ele>152</ele>
        <time>2022-02-12T14:09:49Z</time>
      </trkpt>
      <trkpt lat="48.35707" lon="2.71201">
        <ele>152</ele>
        <time>2022-02-12T14:09:54Z</time>
      </trkpt>
      <trkpt lat="48.35708" lon="2.71202">
        <ele>152</ele>
        <time>2022-02-12T14:09:59Z</time>
      </trkpt>
      <trkpt lat="48.35708" lon="2.71202">
        <ele>152</ele>
        <time>2022-02-12T14:10:04Z</time>
      </trkpt>
      <trkpt lat="48.35707" lon="2.712">
        <ele>152</ele>
        <time>2022-02-12T14:10:09Z</time>
      </trkpt>
      <trkpt lat="48.35705" lon="2.71197">
        <ele>152</ele>
        <time>2022-02-12T14:10:14Z</time>
      </trkpt>
      <trkpt lat="48.35706" lon="2.71192">
        <ele>152</ele>
        <time>2022-02-12T14:10:19Z</time>
      </trkpt>
      <trkpt lat="48.35706" lon="2.71188">
        <ele>152</ele>
        <time>2022-02-12T14:10:24Z</time>
      </trkpt>
      <trkpt lat="48.35707" lon="2.71183">
        <ele>152</ele>
        <time>2022-02-12T14:10:29Z</time>
      </trkpt>
      <trkpt lat="48.35709" lon="2.7118">
        <ele>152</ele>
        <time>2022-02-12T14:10:34Z</time>
      </trkpt>
      <trkpt lat="48.35709" lon="2.71176">
        <ele>152</ele>
        <time>2022-02-12T14:10:39Z</time>
      </trkpt>
      <trkpt lat="48.35709" lon="2.7117">
        <ele>152</ele>
        <time>2022-02-12T14:10:44Z</time>
      </trkpt>
      <trkpt lat="48.35708" lon="2.71163">
        <ele>152</ele>
        <time>2022-02-12T14:10:49Z</time>
      </trkpt>
      <trkpt lat="48.35707" lon="2.71156">
        <ele>152</ele>
        <time>2022-02-12T14:10:54Z</time>
      </trkpt>
      <trkpt lat="48.35707" lon="2.71152">
        <ele>152</ele>
        <time>2022-02-12T14:10:59Z</time>
      </trkpt>
      <trkpt lat="48.35709" lon="2.71147">
        <ele>152</ele>
        <time>2022-02-12T14:11:04Z</time>
      </trkpt>
      <trkpt lat="48.35713" lon="2.71142">
        <ele>152</ele>
        <time>2022-02-12T14:11:09Z</time>
      </trkpt>
      <trkpt lat="48.35716" lon="2.7114">
        <ele>152</ele>
        <time>2022-02-12T14:11:14Z</time>
      </trkpt>
      <trkpt lat="48.35721" lon="2.71137">
        <ele>152</ele>
        <time>2022-02-12T14:11:19Z</time>
      </trkpt>
      <trkpt lat="48.35725" lon="2.71132">
        <ele>152.60000610352</ele>
        <time>2022-02-12T14:11:24Z</time>
      </trkpt>
      <trkpt lat="48.3573" lon="2.71127">
        <ele>153</ele>
        <time>2022-02-12T14:11:29Z</time>
      </trkpt>
      <trkpt lat="48.35735" lon="2.71123">
        <ele>153</ele>
        <time>2022-02-12T14:11:34Z</time>
      </trkpt>
      <trkpt lat="48.35741" lon="2.71117">
        <ele>153</ele>
        <time>2022-02-12T14:11:39Z</time>
      </trkpt>
      <trkpt lat="48.35747" lon="2.71113">
        <ele>153</ele>
        <time>2022-02-12T14:11:44Z</time>
      </trkpt>
      <trkpt lat="48.35752" lon="2.7111">
        <ele>153</ele>
        <time>2022-02-12T14:11:49Z</time>
      </trkpt>
      <trkpt lat="48.35756" lon="2.71105">
        <ele>153</ele>
        <time>2022-02-12T14:11:54Z</time>
      </trkpt>
      <trkpt lat="48.35758" lon="2.71104">
        <ele>153</ele>
        <time>2022-02-12T14:11:59Z</time>
      </trkpt>
      <trkpt lat="48.35762" lon="2.71103">
        <ele>153</ele>
        <time>2022-02-12T14:12:04Z</time>
      </trkpt>
      <trkpt lat="48.35767" lon="2.71099">
        <ele>153</ele>
        <time>2022-02-12T14:12:09Z</time>
      </trkpt>
      <trkpt lat="48.35771" lon="2.71093">
        <ele>153</ele>
        <time>2022-02-12T14:12:14Z</time>
      </trkpt>
      <trkpt lat="48.35776" lon="2.71092">
        <ele>153</ele>
        <time>2022-02-12T14:12:19Z</time>
      </trkpt>
      <trkpt lat="48.35781" lon="2.7109">
        <ele>153</ele>
        <time>2022-02-12T14:12:24Z</time>
      </trkpt>
      <trkpt lat="48.35783" lon="2.71088">
        <ele>153</ele>
        <time>2022-02-12T14:12:29Z</time>
      </trkpt>
      <trkpt lat="48.35783" lon="2.71087">
        <ele>153</ele>
        <time>2022-02-12T14:12:34Z</time>
      </trkpt>
      <trkpt lat="48.35784" lon="2.71085">
        <ele>153</ele>
        <time>2022-02-12T14:12:39Z</time>
      </trkpt>
      <trkpt lat="48.35785" lon="2.71084">
        <ele>153</ele>
        <time>2022-02-12T14:12:44Z</time>
      </trkpt>
      <trkpt lat="48.35786" lon="2.71083">
        <ele>153</ele>
        <time>2022-02-12T14:12:49Z</time>
      </trkpt>
      <trkpt lat="48.35786" lon="2.71083">
        <ele>153</ele>
        <time>2022-02-12T14:12:54Z</time>
      </trkpt>
      <trkpt lat="48.35787" lon="2.71082">
        <ele>153</ele>
        <time>2022-02-12T14:12:59Z</time>
      </trkpt>
      <trkpt lat="48.35788" lon="2.71082">
        <ele>153</ele>
        <time>2022-02-12T14:13:04Z</time>
      </trkpt>
      <trkpt lat="48.35789" lon="2.71081">
        <ele>153</ele>
        <time>2022-02-12T14:13:09Z</time>
      </trkpt>
      <trkpt lat="48.35791" lon="2.71079">
        <ele>153</ele>
        <time>2022-02-12T14:13:14Z</time>
      </trkpt>
      <trkpt lat="48.35794" lon="2.71078">
        <ele>153</ele>
        <time>2022-02-12T14:13:19Z</time>
      </trkpt>
      <trkpt lat="48.35798" lon="2.71081">
        <ele>153</ele>
        <time>2022-02-12T14:13:24Z</time>
      </trkpt>
      <trkpt lat="48.35802" lon="2.71083">
        <ele>153</ele>
        <time>2022-02-12T14:13:29Z</time>
      </trkpt>
      <trkpt lat="48.35805" lon="2.71081">
        <ele>153</ele>
        <time>2022-02-12T14:13:34Z</time>
      </trkpt>
      <trkpt lat="48.35806" lon="2.71081">
        <ele>153</ele>
        <time>2022-02-12T14:13:39Z</time>
      </trkpt>
      <trkpt lat="48.35807" lon="2.71081">
        <ele>153</ele>
        <time>2022-02-12T14:13:44Z</time>
      </trkpt>
      <trkpt lat="48.35808" lon="2.71081">
        <ele>153</ele>
        <time>2022-02-12T14:13:49Z</time>
      </trkpt>
      <trkpt lat="48.35808" lon="2.7108">
        <ele>153</ele>
        <time>2022-02-12T14:13:54Z</time>
      </trkpt>
      <trkpt lat="48.35809" lon="2.7108">
        <ele>153</ele>
        <time>2022-02-12T14:13:59Z</time>
      </trkpt>
      <trkpt lat="48.3581" lon="2.71081">
        <ele>153</ele>
        <time>2022-02-12T14:14:04Z</time>
      </trkpt>
      <trkpt lat="48.35811" lon="2.71082">
        <ele>153</ele>
        <time>2022-02-12T14:14:09Z</time>
      </trkpt>
      <trkpt lat="48.35812" lon="2.71081">
        <ele>153</ele>
        <time>2022-02-12T14:14:14Z</time>
      </trkpt>
      <trkpt lat="48.35812" lon="2.71081">
        <ele>153</ele>
        <time>2022-02-12T14:14:19Z</time>
      </trkpt>
      <trkpt lat="48.35813" lon="2.7108">
        <ele>153</ele>
        <time>2022-02-12T14:14:24Z</time>
      </trkpt>
      <trkpt lat="48.35812" lon="2.7108">
        <ele>153</ele>
        <time>2022-02-12T14:14:29Z</time>
      </trkpt>
      <trkpt lat="48.35812" lon="2.71078">
        <ele>153</ele>
        <time>2022-02-12T14:14:34Z</time>
      </trkpt>
      <trkpt lat="48.35812" lon="2.71077">
        <ele>153</ele>
        <time>2022-02-12T14:14:39Z</time>
      </trkpt>
      <trkpt lat="48.35811" lon="2.71078">
        <ele>153</ele>
        <time>2022-02-12T14:14:44Z</time>
      </trkpt>
      <trkpt lat="48.35811" lon="2.71079">
        <ele>153</ele>
        <time>2022-02-12T14:14:49Z</time>
      </trkpt>
      <trkpt lat="48.35811" lon="2.71079">
        <ele>153</ele>
        <time>2022-02-12T14:14:54Z</time>
      </trkpt>
      <trkpt lat="48.35812" lon="2.71079">
        <ele>153</ele>
        <time>2022-02-12T14:14:59Z</time>
      </trkpt>
      <trkpt lat="48.35813" lon="2.71079">
        <ele>153</ele>
        <time>2022-02-12T14:15:04Z</time>
      </trkpt>
      <trkpt lat="48.35814" lon="2.71079">
        <ele>153</ele>
        <time>2022-02-12T14:15:09Z</time>
      </trkpt>
      <trkpt lat="48.35814" lon="2.7108">
        <ele>153</ele>
        <time>2022-02-12T14:15:14Z</time>
      </trkpt>
      <trkpt lat="48.35813" lon="2.71082">
        <ele>153</ele>
        <time>2022-02-12T14:15:19Z</time>
      </trkpt>
      <trkpt lat="48.35813" lon="2.71083">
        <ele>153</ele>
        <time>2022-02-12T14:15:24Z</time>
      </trkpt>
      <trkpt lat="48.35813" lon="2.71083">
        <ele>153</ele>
        <time>2022-02-12T14:15:29Z</time>
      </trkpt>
      <trkpt lat="48.35813" lon="2.71082">
        <ele>153</ele>
        <time>2022-02-12T14:15:34Z</time>
      </trkpt>
      <trkpt lat="48.35814" lon="2.71081">
        <ele>153</ele>
        <time>2022-02-12T14:15:39Z</time>
      </trkpt>
      <trkpt lat="48.35815" lon="2.7108">
        <ele>153</ele>
        <time>2022-02-12T14:15:44Z</time>
      </trkpt>
      <trkpt lat="48.35816" lon="2.71079">
        <ele>153</ele>
        <time>2022-02-12T14:15:49Z</time>
      </trkpt>
      <trkpt lat="48.35816" lon="2.71079">
        <ele>153</ele>
        <time>2022-02-12T14:15:54Z</time>
      </trkpt>
      <trkpt lat="48.35816" lon="2.71078">
        <ele>153</ele>
        <time>2022-02-12T14:15:59Z</time>
      </trkpt>
      <trkpt lat="48.35814" lon="2.71073">
        <ele>153</ele>
        <time>2022-02-12T14:16:04Z</time>
      </trkpt>
      <trkpt lat="48.35813" lon="2.71069">
        <ele>153</ele>
        <time>2022-02-12T14:16:09Z</time>
      </trkpt>
      <trkpt lat="48.35811" lon="2.71065">
        <ele>153</ele>
        <time>2022-02-12T14:16:14Z</time>
      </trkpt>
      <trkpt lat="48.3581" lon="2.71061">
        <ele>153</ele>
        <time>2022-02-12T14:16:19Z</time>
      </trkpt>
      <trkpt lat="48.3581" lon="2.71056">
        <ele>153</ele>
        <time>2022-02-12T14:16:24Z</time>
      </trkpt>
      <trkpt lat="48.35812" lon="2.71049">
        <ele>153</ele>
        <time>2022-02-12T14:16:29Z</time>
      </trkpt>
      <trkpt lat="48.35813" lon="2.71043">
        <ele>153</ele>
        <time>2022-02-12T14:16:34Z</time>
      </trkpt>
      <trkpt lat="48.35814" lon="2.71037">
        <ele>153</ele>
        <time>2022-02-12T14:16:39Z</time>
      </trkpt>
      <trkpt lat="48.3581" lon="2.7103">
        <ele>153</ele>
        <time>2022-02-12T14:16:44Z</time>
      </trkpt>
      <trkpt lat="48.35808" lon="2.71026">
        <ele>153</ele>
        <time>2022-02-12T14:16:49Z</time>
      </trkpt>
      <trkpt lat="48.35805" lon="2.71022">
        <ele>153</ele>
        <time>2022-02-12T14:16:54Z</time>
      </trkpt>
      <trkpt lat="48.35803" lon="2.71017">
        <ele>153</ele>
        <time>2022-02-12T14:16:59Z</time>
      </trkpt>
      <trkpt lat="48.35802" lon="2.71014">
        <ele>153</ele>
        <time>2022-02-12T14:17:04Z</time>
      </trkpt>
      <trkpt lat="48.358" lon="2.71011">
        <ele>153</ele>
        <time>2022-02-12T14:17:09Z</time>
      </trkpt>
      <trkpt lat="48.35798" lon="2.71006">
        <ele>153</ele>
        <time>2022-02-12T14:17:14Z</time>
      </trkpt>
      <trkpt lat="48.35796" lon="2.71002">
        <ele>153</ele>
        <time>2022-02-12T14:17:19Z</time>
      </trkpt>
      <trkpt lat="48.35793" lon="2.70996">
        <ele>153</ele>
        <time>2022-02-12T14:17:24Z</time>
      </trkpt>
      <trkpt lat="48.35791" lon="2.70991">
        <ele>153</ele>
        <time>2022-02-12T14:17:29Z</time>
      </trkpt>
      <trkpt lat="48.35794" lon="2.70984">
        <ele>153</ele>
        <time>2022-02-12T14:17:34Z</time>
      </trkpt>
      <trkpt lat="48.35796" lon="2.70973">
        <ele>153</ele>
        <time>2022-02-12T14:17:39Z</time>
      </trkpt>
      <trkpt lat="48.35799" lon="2.70963">
        <ele>153</ele>
        <time>2022-02-12T14:17:44Z</time>
      </trkpt>
      <trkpt lat="48.35803" lon="2.70958">
        <ele>153</ele>
        <time>2022-02-12T14:17:49Z</time>
      </trkpt>
      <trkpt lat="48.35807" lon="2.70953">
        <ele>153</ele>
        <time>2022-02-12T14:17:54Z</time>
      </trkpt>
      <trkpt lat="48.35812" lon="2.7095">
        <ele>153</ele>
        <time>2022-02-12T14:17:59Z</time>
      </trkpt>
      <trkpt lat="48.35816" lon="2.70949">
        <ele>153</ele>
        <time>2022-02-12T14:18:04Z</time>
      </trkpt>
      <trkpt lat="48.35818" lon="2.70949">
        <ele>153</ele>
        <time>2022-02-12T14:18:09Z</time>
      </trkpt>
      <trkpt lat="48.35819" lon="2.70952">
        <ele>153</ele>
        <time>2022-02-12T14:18:14Z</time>
      </trkpt>
      <trkpt lat="48.35824" lon="2.70953">
        <ele>153</ele>
        <time>2022-02-12T14:18:19Z</time>
      </trkpt>
      <trkpt lat="48.35828" lon="2.70953">
        <ele>153</ele>
        <time>2022-02-12T14:18:24Z</time>
      </trkpt>
      <trkpt lat="48.35833" lon="2.70955">
        <ele>153</ele>
        <time>2022-02-12T14:18:29Z</time>
      </trkpt>
      <trkpt lat="48.35838" lon="2.70953">
        <ele>153</ele>
        <time>2022-02-12T14:18:34Z</time>
      </trkpt>
      <trkpt lat="48.35843" lon="2.70952">
        <ele>153</ele>
        <time>2022-02-12T14:18:39Z</time>
      </trkpt>
      <trkpt lat="48.35849" lon="2.7095">
        <ele>153</ele>
        <time>2022-02-12T14:18:44Z</time>
      </trkpt>
      <trkpt lat="48.35855" lon="2.70949">
        <ele>153</ele>
        <time>2022-02-12T14:18:49Z</time>
      </trkpt>
      <trkpt lat="48.35861" lon="2.70948">
        <ele>153</ele>
        <time>2022-02-12T14:18:54Z</time>
      </trkpt>
      <trkpt lat="48.35865" lon="2.70947">
        <ele>153</ele>
        <time>2022-02-12T14:18:59Z</time>
      </trkpt>
      <trkpt lat="48.35866" lon="2.70945">
        <ele>153</ele>
        <time>2022-02-12T14:19:04Z</time>
      </trkpt>
      <trkpt lat="48.35867" lon="2.70946">
        <ele>153</ele>
        <time>2022-02-12T14:19:09Z</time>
      </trkpt>
      <trkpt lat="48.3587" lon="2.70945">
        <ele>153</ele>
        <time>2022-02-12T14:19:14Z</time>
      </trkpt>
      <trkpt lat="48.35872" lon="2.70942">
        <ele>153</ele>
        <time>2022-02-12T14:19:19Z</time>
      </trkpt>
      <trkpt lat="48.35875" lon="2.70936">
        <ele>153</ele>
        <time>2022-02-12T14:19:24Z</time>
      </trkpt>
      <trkpt lat="48.35878" lon="2.70928">
        <ele>153</ele>
        <time>2022-02-12T14:19:29Z</time>
      </trkpt>
      <trkpt lat="48.35879" lon="2.70921">
        <ele>153</ele>
        <time>2022-02-12T14:19:34Z</time>
      </trkpt>
      <trkpt lat="48.3588" lon="2.70912">
        <ele>153</ele>
        <time>2022-02-12T14:19:39Z</time>
      </trkpt>
      <trkpt lat="48.35882" lon="2.70905">
        <ele>153</ele>
        <time>2022-02-12T14:19:44Z</time>
      </trkpt>
      <trkpt lat="48.35883" lon="2.70899">
        <ele>153</ele>
        <time>2022-02-12T14:19:49Z</time>
      </trkpt>
      <trkpt lat="48.35883" lon="2.70895">
        <ele>153</ele>
        <time>2022-02-12T14:19:54Z</time>
      </trkpt>
      <trkpt lat="48.35884" lon="2.70891">
        <ele>153</ele>
        <time>2022-02-12T14:19:59Z</time>
      </trkpt>
      <trkpt lat="48.35886" lon="2.70886">
        <ele>153</ele>
        <time>2022-02-12T14:20:04Z</time>
      </trkpt>
      <trkpt lat="48.3589" lon="2.70877">
        <ele>153</ele>
        <time>2022-02-12T14:20:09Z</time>
      </trkpt>
      <trkpt lat="48.35892" lon="2.7087">
        <ele>153</ele>
        <time>2022-02-12T14:20:14Z</time>
      </trkpt>
      <trkpt lat="48.35897" lon="2.70862">
        <ele>153</ele>
        <time>2022-02-12T14:20:19Z</time>
      </trkpt>
      <trkpt lat="48.35899" lon="2.70855">
        <ele>153</ele>
        <time>2022-02-12T14:20:24Z</time>
      </trkpt>
      <trkpt lat="48.35902" lon="2.70846">
        <ele>153</ele>
        <time>2022-02-12T14:20:29Z</time>
      </trkpt>
      <trkpt lat="48.35904" lon="2.70838">
        <ele>153</ele>
        <time>2022-02-12T14:20:34Z</time>
      </trkpt>
      <trkpt lat="48.35909" lon="2.7083">
        <ele>153</ele>
        <time>2022-02-12T14:20:39Z</time>
      </trkpt>
      <trkpt lat="48.35913" lon="2.70822">
        <ele>153</ele>
        <time>2022-02-12T14:20:44Z</time>
      </trkpt>
      <trkpt lat="48.35917" lon="2.70815">
        <ele>153</ele>
        <time>2022-02-12T14:20:49Z</time>
      </trkpt>
      <trkpt lat="48.3592" lon="2.70809">
        <ele>153</ele>
        <time>2022-02-12T14:20:54Z</time>
      </trkpt>
      <trkpt lat="48.35925" lon="2.70805">
        <ele>153</ele>
        <time>2022-02-12T14:20:59Z</time>
      </trkpt>
      <trkpt lat="48.3593" lon="2.70799">
        <ele>153.39999389648</ele>
        <time>2022-02-12T14:21:04Z</time>
      </trkpt>
      <trkpt lat="48.35934" lon="2.70795">
        <ele>155.80000305176</ele>
        <time>2022-02-12T14:21:09Z</time>
      </trkpt>
      <trkpt lat="48.35939" lon="2.70788">
        <ele>155.80000305176</ele>
        <time>2022-02-12T14:21:14Z</time>
      </trkpt>
      <trkpt lat="48.35943" lon="2.70783">
        <ele>155.60000610352</ele>
        <time>2022-02-12T14:21:19Z</time>
      </trkpt>
      <trkpt lat="48.35947" lon="2.70781">
        <ele>155.60000610352</ele>
        <time>2022-02-12T14:21:24Z</time>
      </trkpt>
      <trkpt lat="48.35953" lon="2.70779">
        <ele>155.60000610352</ele>
        <time>2022-02-12T14:21:29Z</time>
      </trkpt>
      <trkpt lat="48.35958" lon="2.70776">
        <ele>155.39999389648</ele>
        <time>2022-02-12T14:21:34Z</time>
      </trkpt>
      <trkpt lat="48.35961" lon="2.70772">
        <ele>155.19999694824</ele>
        <time>2022-02-12T14:21:39Z</time>
      </trkpt>
      <trkpt lat="48.35966" lon="2.70768">
        <ele>155.19999694824</ele>
        <time>2022-02-12T14:21:44Z</time>
      </trkpt>
      <trkpt lat="48.35971" lon="2.70764">
        <ele>155.19999694824</ele>
        <time>2022-02-12T14:21:49Z</time>
      </trkpt>
      <trkpt lat="48.35974" lon="2.7076">
        <ele>155.19999694824</ele>
        <time>2022-02-12T14:21:54Z</time>
      </trkpt>
      <trkpt lat="48.35978" lon="2.70755">
        <ele>155.39999389648</ele>
        <time>2022-02-12T14:21:59Z</time>
      </trkpt>
      <trkpt lat="48.35983" lon="2.7075">
        <ele>155.60000610352</ele>
        <time>2022-02-12T14:22:04Z</time>
      </trkpt>
      <trkpt lat="48.35986" lon="2.70748">
        <ele>155.39999389648</ele>
        <time>2022-02-12T14:22:09Z</time>
      </trkpt>
      <trkpt lat="48.35988" lon="2.70745">
        <ele>155.39999389648</ele>
        <time>2022-02-12T14:22:14Z</time>
      </trkpt>
      <trkpt lat="48.3599" lon="2.70742">
        <ele>155.39999389648</ele>
        <time>2022-02-12T14:22:19Z</time>
      </trkpt>
      <trkpt lat="48.35992" lon="2.70736">
        <ele>155.39999389648</ele>
        <time>2022-02-12T14:22:24Z</time>
      </trkpt>
      <trkpt lat="48.35993" lon="2.70728">
        <ele>155.39999389648</ele>
        <time>2022-02-12T14:22:29Z</time>
      </trkpt>
      <trkpt lat="48.35993" lon="2.7072">
        <ele>155.39999389648</ele>
        <time>2022-02-12T14:22:34Z</time>
      </trkpt>
      <trkpt lat="48.35994" lon="2.70713">
        <ele>155.39999389648</ele>
        <time>2022-02-12T14:22:39Z</time>
      </trkpt>
      <trkpt lat="48.35993" lon="2.70705">
        <ele>155.39999389648</ele>
        <time>2022-02-12T14:22:44Z</time>
      </trkpt>
      <trkpt lat="48.35992" lon="2.70696">
        <ele>155.19999694824</ele>
        <time>2022-02-12T14:22:49Z</time>
      </trkpt>
      <trkpt lat="48.35993" lon="2.70688">
        <ele>155.19999694824</ele>
        <time>2022-02-12T14:22:54Z</time>
      </trkpt>
      <trkpt lat="48.35995" lon="2.70678">
        <ele>155.19999694824</ele>
        <time>2022-02-12T14:22:59Z</time>
      </trkpt>
      <trkpt lat="48.35999" lon="2.70671">
        <ele>155.19999694824</ele>
        <time>2022-02-12T14:23:04Z</time>
      </trkpt>
      <trkpt lat="48.35998" lon="2.70662">
        <ele>155.39999389648</ele>
        <time>2022-02-12T14:23:09Z</time>
      </trkpt>
      <trkpt lat="48.35994" lon="2.70655">
        <ele>155.39999389648</ele>
        <time>2022-02-12T14:23:14Z</time>
      </trkpt>
      <trkpt lat="48.35992" lon="2.70646">
        <ele>155.39999389648</ele>
        <time>2022-02-12T14:23:19Z</time>
      </trkpt>
      <trkpt lat="48.35988" lon="2.70638">
        <ele>155.39999389648</ele>
        <time>2022-02-12T14:23:24Z</time>
      </trkpt>
      <trkpt lat="48.35983" lon="2.70631">
        <ele>155.39999389648</ele>
        <time>2022-02-12T14:23:29Z</time>
      </trkpt>
      <trkpt lat="48.35979" lon="2.70624">
        <ele>155.39999389648</ele>
        <time>2022-02-12T14:23:34Z</time>
      </trkpt>
      <trkpt lat="48.35979" lon="2.70617">
        <ele>155.39999389648</ele>
        <time>2022-02-12T14:23:39Z</time>
      </trkpt>
      <trkpt lat="48.35977" lon="2.7061">
        <ele>155.39999389648</ele>
        <time>2022-02-12T14:23:44Z</time>
      </trkpt>
      <trkpt lat="48.35976" lon="2.70605">
        <ele>155.39999389648</ele>
        <time>2022-02-12T14:23:49Z</time>
      </trkpt>
      <trkpt lat="48.35976" lon="2.706">
        <ele>155.39999389648</ele>
        <time>2022-02-12T14:23:54Z</time>
      </trkpt>
      <trkpt lat="48.35973" lon="2.70593">
        <ele>155.39999389648</ele>
        <time>2022-02-12T14:23:59Z</time>
      </trkpt>
      <trkpt lat="48.35972" lon="2.70588">
        <ele>155.39999389648</ele>
        <time>2022-02-12T14:24:04Z</time>
      </trkpt>
      <trkpt lat="48.35971" lon="2.70581">
        <ele>155.39999389648</ele>
        <time>2022-02-12T14:24:09Z</time>
      </trkpt>
      <trkpt lat="48.3597" lon="2.70574">
        <ele>155.39999389648</ele>
        <time>2022-02-12T14:24:14Z</time>
      </trkpt>
      <trkpt lat="48.35969" lon="2.70568">
        <ele>155.39999389648</ele>
        <time>2022-02-12T14:24:19Z</time>
      </trkpt>
      <trkpt lat="48.35967" lon="2.70564">
        <ele>155.39999389648</ele>
        <time>2022-02-12T14:24:24Z</time>
      </trkpt>
      <trkpt lat="48.35967" lon="2.70559">
        <ele>155.39999389648</ele>
        <time>2022-02-12T14:24:29Z</time>
      </trkpt>
      <trkpt lat="48.35968" lon="2.70551">
        <ele>155.39999389648</ele>
        <time>2022-02-12T14:24:34Z</time>
      </trkpt>
      <trkpt lat="48.35967" lon="2.70549">
        <ele>155.39999389648</ele>
        <time>2022-02-12T14:24:39Z</time>
      </trkpt>
      <trkpt lat="48.35968" lon="2.70542">
        <ele>155.39999389648</ele>
        <time>2022-02-12T14:24:44Z</time>
      </trkpt>
      <trkpt lat="48.35968" lon="2.70533">
        <ele>155.39999389648</ele>
        <time>2022-02-12T14:24:49Z</time>
      </trkpt>
      <trkpt lat="48.35969" lon="2.70523">
        <ele>155.39999389648</ele>
        <time>2022-02-12T14:24:54Z</time>
      </trkpt>
      <trkpt lat="48.35971" lon="2.70516">
        <ele>155.39999389648</ele>
        <time>2022-02-12T14:24:59Z</time>
      </trkpt>
      <trkpt lat="48.35973" lon="2.70509">
        <ele>155.39999389648</ele>
        <time>2022-02-12T14:25:04Z</time>
      </trkpt>
      <trkpt lat="48.35973" lon="2.70501">
        <ele>155.39999389648</ele>
        <time>2022-02-12T14:25:09Z</time>
      </trkpt>
      <trkpt lat="48.35973" lon="2.70494">
        <ele>155.39999389648</ele>
        <time>2022-02-12T14:25:14Z</time>
      </trkpt>
      <trkpt lat="48.35976" lon="2.70488">
        <ele>155.39999389648</ele>
        <time>2022-02-12T14:25:19Z</time>
      </trkpt>
      <trkpt lat="48.35977" lon="2.70484">
        <ele>155.39999389648</ele>
        <time>2022-02-12T14:25:24Z</time>
      </trkpt>
      <trkpt lat="48.35978" lon="2.70479">
        <ele>155.39999389648</ele>
        <time>2022-02-12T14:25:29Z</time>
      </trkpt>
      <trkpt lat="48.3598" lon="2.70473">
        <ele>155.39999389648</ele>
        <time>2022-02-12T14:25:34Z</time>
      </trkpt>
      <trkpt lat="48.35981" lon="2.70466">
        <ele>155.39999389648</ele>
        <time>2022-02-12T14:25:39Z</time>
      </trkpt>
      <trkpt lat="48.35983" lon="2.70463">
        <ele>155.39999389648</ele>
        <time>2022-02-12T14:25:44Z</time>
      </trkpt>
      <trkpt lat="48.35986" lon="2.70459">
        <ele>155.39999389648</ele>
        <time>2022-02-12T14:25:49Z</time>
      </trkpt>
      <trkpt lat="48.3599" lon="2.7045">
        <ele>155.39999389648</ele>
        <time>2022-02-12T14:25:54Z</time>
      </trkpt>
      <trkpt lat="48.35994" lon="2.70441">
        <ele>155.39999389648</ele>
        <time>2022-02-12T14:25:59Z</time>
      </trkpt>
      <trkpt lat="48.35996" lon="2.70439">
        <ele>155.39999389648</ele>
        <time>2022-02-12T14:26:04Z</time>
      </trkpt>
      <trkpt lat="48.35999" lon="2.70436">
        <ele>155.39999389648</ele>
        <time>2022-02-12T14:26:09Z</time>
      </trkpt>
      <trkpt lat="48.36003" lon="2.70429">
        <ele>155.39999389648</ele>
        <time>2022-02-12T14:26:14Z</time>
      </trkpt>
      <trkpt lat="48.36007" lon="2.70419">
        <ele>155.39999389648</ele>
        <time>2022-02-12T14:26:19Z</time>
      </trkpt>
      <trkpt lat="48.3601" lon="2.70413">
        <ele>155.39999389648</ele>
        <time>2022-02-12T14:26:24Z</time>
      </trkpt>
      <trkpt lat="48.36012" lon="2.70407">
        <ele>155.39999389648</ele>
        <time>2022-02-12T14:26:29Z</time>
      </trkpt>
      <trkpt lat="48.36016" lon="2.70399">
        <ele>155.39999389648</ele>
        <time>2022-02-12T14:26:34Z</time>
      </trkpt>
      <trkpt lat="48.36018" lon="2.70392">
        <ele>155.39999389648</ele>
        <time>2022-02-12T14:26:39Z</time>
      </trkpt>
      <trkpt lat="48.36019" lon="2.70383">
        <ele>155.39999389648</ele>
        <time>2022-02-12T14:26:44Z</time>
      </trkpt>
      <trkpt lat="48.36021" lon="2.70376">
        <ele>155.39999389648</ele>
        <time>2022-02-12T14:26:49Z</time>
      </trkpt>
      <trkpt lat="48.36022" lon="2.70373">
        <ele>155.39999389648</ele>
        <time>2022-02-12T14:26:54Z</time>
      </trkpt>
      <trkpt lat="48.36024" lon="2.70368">
        <ele>155.39999389648</ele>
        <time>2022-02-12T14:26:59Z</time>
      </trkpt>
      <trkpt lat="48.36026" lon="2.70358">
        <ele>155.39999389648</ele>
        <time>2022-02-12T14:27:04Z</time>
      </trkpt>
      <trkpt lat="48.36029" lon="2.70352">
        <ele>155.39999389648</ele>
        <time>2022-02-12T14:27:09Z</time>
      </trkpt>
      <trkpt lat="48.3603" lon="2.70344">
        <ele>155.39999389648</ele>
        <time>2022-02-12T14:27:14Z</time>
      </trkpt>
      <trkpt lat="48.3603" lon="2.70342">
        <ele>155.39999389648</ele>
        <time>2022-02-12T14:27:19Z</time>
      </trkpt>
      <trkpt lat="48.36031" lon="2.70338">
        <ele>155.39999389648</ele>
        <time>2022-02-12T14:27:24Z</time>
      </trkpt>
      <trkpt lat="48.36034" lon="2.70329">
        <ele>155.39999389648</ele>
        <time>2022-02-12T14:27:29Z</time>
      </trkpt>
      <trkpt lat="48.36039" lon="2.7032">
        <ele>155.39999389648</ele>
        <time>2022-02-12T14:27:34Z</time>
      </trkpt>
      <trkpt lat="48.36045" lon="2.70312">
        <ele>155.39999389648</ele>
        <time>2022-02-12T14:27:39Z</time>
      </trkpt>
      <trkpt lat="48.36048" lon="2.70303">
        <ele>155.39999389648</ele>
        <time>2022-02-12T14:27:44Z</time>
      </trkpt>
      <trkpt lat="48.36051" lon="2.70295">
        <ele>155.39999389648</ele>
        <time>2022-02-12T14:27:49Z</time>
      </trkpt>
      <trkpt lat="48.36054" lon="2.7029">
        <ele>155.39999389648</ele>
        <time>2022-02-12T14:27:54Z</time>
      </trkpt>
      <trkpt lat="48.36057" lon="2.70283">
        <ele>155.39999389648</ele>
        <time>2022-02-12T14:27:59Z</time>
      </trkpt>
      <trkpt lat="48.36064" lon="2.70277">
        <ele>155.39999389648</ele>
        <time>2022-02-12T14:28:04Z</time>
      </trkpt>
      <trkpt lat="48.36066" lon="2.70275">
        <ele>155.39999389648</ele>
        <time>2022-02-12T14:28:09Z</time>
      </trkpt>
      <trkpt lat="48.36072" lon="2.70268">
        <ele>155.39999389648</ele>
        <time>2022-02-12T14:28:14Z</time>
      </trkpt>
      <trkpt lat="48.36076" lon="2.70259">
        <ele>155.39999389648</ele>
        <time>2022-02-12T14:28:19Z</time>
      </trkpt>
      <trkpt lat="48.36079" lon="2.70255">
        <ele>155.39999389648</ele>
        <time>2022-02-12T14:28:24Z</time>
      </trkpt>
      <trkpt lat="48.36082" lon="2.70248">
        <ele>155.39999389648</ele>
        <time>2022-02-12T14:28:29Z</time>
      </trkpt>
      <trkpt lat="48.36085" lon="2.70243">
        <ele>155.39999389648</ele>
        <time>2022-02-12T14:28:34Z</time>
      </trkpt>
      <trkpt lat="48.36088" lon="2.70238">
        <ele>155.39999389648</ele>
        <time>2022-02-12T14:28:39Z</time>
      </trkpt>
      <trkpt lat="48.3609" lon="2.70234">
        <ele>155.39999389648</ele>
        <time>2022-02-12T14:28:44Z</time>
      </trkpt>
      <trkpt lat="48.36091" lon="2.70232">
        <ele>155.39999389648</ele>
        <time>2022-02-12T14:28:49Z</time>
      </trkpt>
      <trkpt lat="48.36096" lon="2.70226">
        <ele>155.39999389648</ele>
        <time>2022-02-12T14:28:54Z</time>
      </trkpt>
      <trkpt lat="48.36101" lon="2.70221">
        <ele>155.39999389648</ele>
        <time>2022-02-12T14:28:59Z</time>
      </trkpt>
      <trkpt lat="48.36107" lon="2.70215">
        <ele>155.39999389648</ele>
        <time>2022-02-12T14:29:04Z</time>
      </trkpt>
      <trkpt lat="48.36112" lon="2.70211">
        <ele>155.39999389648</ele>
        <time>2022-02-12T14:29:09Z</time>
      </trkpt>
      <trkpt lat="48.36115" lon="2.70211">
        <ele>155.39999389648</ele>
        <time>2022-02-12T14:29:14Z</time>
      </trkpt>
      <trkpt lat="48.36117" lon="2.7021">
        <ele>155.39999389648</ele>
        <time>2022-02-12T14:29:19Z</time>
      </trkpt>
      <trkpt lat="48.36119" lon="2.70209">
        <ele>155.39999389648</ele>
        <time>2022-02-12T14:29:24Z</time>
      </trkpt>
      <trkpt lat="48.3612" lon="2.70208">
        <ele>155.39999389648</ele>
        <time>2022-02-12T14:29:29Z</time>
      </trkpt>
      <trkpt lat="48.36122" lon="2.70207">
        <ele>155.39999389648</ele>
        <time>2022-02-12T14:29:34Z</time>
      </trkpt>
      <trkpt lat="48.36123" lon="2.70207">
        <ele>155.39999389648</ele>
        <time>2022-02-12T14:29:39Z</time>
      </trkpt>
      <trkpt lat="48.36125" lon="2.70207">
        <ele>155.39999389648</ele>
        <time>2022-02-12T14:29:44Z</time>
      </trkpt>
      <trkpt lat="48.36126" lon="2.70207">
        <ele>155.39999389648</ele>
        <time>2022-02-12T14:29:49Z</time>
      </trkpt>
      <trkpt lat="48.36127" lon="2.70208">
        <ele>155.39999389648</ele>
        <time>2022-02-12T14:29:54Z</time>
      </trkpt>
      <trkpt lat="48.36131" lon="2.70207">
        <ele>155.39999389648</ele>
        <time>2022-02-12T14:29:59Z</time>
      </trkpt>
      <trkpt lat="48.36132" lon="2.70206">
        <ele>155.39999389648</ele>
        <time>2022-02-12T14:30:04Z</time>
      </trkpt>
      <trkpt lat="48.36131" lon="2.70204">
        <ele>155.39999389648</ele>
        <time>2022-02-12T14:30:09Z</time>
      </trkpt>
      <trkpt lat="48.36131" lon="2.70203">
        <ele>155.39999389648</ele>
        <time>2022-02-12T14:30:14Z</time>
      </trkpt>
      <trkpt lat="48.3613" lon="2.702">
        <ele>155.39999389648</ele>
        <time>2022-02-12T14:30:19Z</time>
      </trkpt>
      <trkpt lat="48.36131" lon="2.70199">
        <ele>155.39999389648</ele>
        <time>2022-02-12T14:30:24Z</time>
      </trkpt>
      <trkpt lat="48.36131" lon="2.70197">
        <ele>155.39999389648</ele>
        <time>2022-02-12T14:30:29Z</time>
      </trkpt>
      <trkpt lat="48.36131" lon="2.70197">
        <ele>155.39999389648</ele>
        <time>2022-02-12T14:30:34Z</time>
      </trkpt>
      <trkpt lat="48.36131" lon="2.70198">
        <ele>155.39999389648</ele>
        <time>2022-02-12T14:30:39Z</time>
      </trkpt>
      <trkpt lat="48.36132" lon="2.702">
        <ele>155.39999389648</ele>
        <time>2022-02-12T14:30:44Z</time>
      </trkpt>
      <trkpt lat="48.36133" lon="2.70203">
        <ele>155.39999389648</ele>
        <time>2022-02-12T14:30:49Z</time>
      </trkpt>
      <trkpt lat="48.36134" lon="2.70207">
        <ele>155.39999389648</ele>
        <time>2022-02-12T14:30:54Z</time>
      </trkpt>
      <trkpt lat="48.36135" lon="2.7021">
        <ele>155.39999389648</ele>
        <time>2022-02-12T14:30:59Z</time>
      </trkpt>
      <trkpt lat="48.36136" lon="2.70212">
        <ele>155.39999389648</ele>
        <time>2022-02-12T14:31:04Z</time>
      </trkpt>
      <trkpt lat="48.36136" lon="2.70217">
        <ele>155.39999389648</ele>
        <time>2022-02-12T14:31:09Z</time>
      </trkpt>
      <trkpt lat="48.36136" lon="2.7022">
        <ele>155.39999389648</ele>
        <time>2022-02-12T14:31:14Z</time>
      </trkpt>
      <trkpt lat="48.36136" lon="2.70222">
        <ele>148.80000305176</ele>
        <time>2022-02-12T14:31:19Z</time>
      </trkpt>
      <trkpt lat="48.36136" lon="2.70224">
        <ele>147.19999694824</ele>
        <time>2022-02-12T14:31:24Z</time>
      </trkpt>
      <trkpt lat="48.36136" lon="2.70227">
        <ele>147</ele>
        <time>2022-02-12T14:31:29Z</time>
      </trkpt>
      <trkpt lat="48.36136" lon="2.7023">
        <ele>146.60000610352</ele>
        <time>2022-02-12T14:31:34Z</time>
      </trkpt>
      <trkpt lat="48.36137" lon="2.70237">
        <ele>146.19999694824</ele>
        <time>2022-02-12T14:31:39Z</time>
      </trkpt>
      <trkpt lat="48.36138" lon="2.70241">
        <ele>145.60000610352</ele>
        <time>2022-02-12T14:31:44Z</time>
      </trkpt>
      <trkpt lat="48.36139" lon="2.70247">
        <ele>145</ele>
        <time>2022-02-12T14:31:49Z</time>
      </trkpt>
      <trkpt lat="48.3614" lon="2.70251">
        <ele>144.19999694824</ele>
        <time>2022-02-12T14:31:54Z</time>
      </trkpt>
      <trkpt lat="48.36139" lon="2.70255">
        <ele>143.39999389648</ele>
        <time>2022-02-12T14:31:59Z</time>
      </trkpt>
      <trkpt lat="48.3614" lon="2.70257">
        <ele>142.80000305176</ele>
        <time>2022-02-12T14:32:04Z</time>
      </trkpt>
      <trkpt lat="48.3614" lon="2.7026">
        <ele>142.19999694824</ele>
        <time>2022-02-12T14:32:09Z</time>
      </trkpt>
      <trkpt lat="48.36141" lon="2.70264">
        <ele>141.60000610352</ele>
        <time>2022-02-12T14:32:14Z</time>
      </trkpt>
      <trkpt lat="48.36143" lon="2.70266">
        <ele>141.60000610352</ele>
        <time>2022-02-12T14:32:19Z</time>
      </trkpt>
      <trkpt lat="48.36143" lon="2.7027">
        <ele>141</ele>
        <time>2022-02-12T14:32:24Z</time>
      </trkpt>
      <trkpt lat="48.36144" lon="2.70273">
        <ele>140.60000610352</ele>
        <time>2022-02-12T14:32:29Z</time>
      </trkpt>
      <trkpt lat="48.36149" lon="2.70282">
        <ele>140.19999694824</ele>
        <time>2022-02-12T14:32:34Z</time>
      </trkpt>
      <trkpt lat="48.36152" lon="2.70289">
        <ele>140.39999389648</ele>
        <time>2022-02-12T14:32:39Z</time>
      </trkpt>
      <trkpt lat="48.36153" lon="2.70292">
        <ele>140.80000305176</ele>
        <time>2022-02-12T14:32:44Z</time>
      </trkpt>
      <trkpt lat="48.36153" lon="2.70293">
        <ele>141.39999389648</ele>
        <time>2022-02-12T14:32:49Z</time>
      </trkpt>
      <trkpt lat="48.36154" lon="2.70294">
        <ele>141.39999389648</ele>
        <time>2022-02-12T14:32:54Z</time>
      </trkpt>
      <trkpt lat="48.36156" lon="2.70296">
        <ele>141.19999694824</ele>
        <time>2022-02-12T14:32:59Z</time>
      </trkpt>
      <trkpt lat="48.36158" lon="2.70299">
        <ele>140.60000610352</ele>
        <time>2022-02-12T14:33:04Z</time>
      </trkpt>
      <trkpt lat="48.36158" lon="2.70301">
        <ele>140</ele>
        <time>2022-02-12T14:33:09Z</time>
      </trkpt>
      <trkpt lat="48.36159" lon="2.70305">
        <ele>139.39999389648</ele>
        <time>2022-02-12T14:33:14Z</time>
      </trkpt>
      <trkpt lat="48.36159" lon="2.70306">
        <ele>138.80000305176</ele>
        <time>2022-02-12T14:33:19Z</time>
      </trkpt>
      <trkpt lat="48.36158" lon="2.70309">
        <ele>138.19999694824</ele>
        <time>2022-02-12T14:33:24Z</time>
      </trkpt>
      <trkpt lat="48.36158" lon="2.70311">
        <ele>137.80000305176</ele>
        <time>2022-02-12T14:33:29Z</time>
      </trkpt>
      <trkpt lat="48.36157" lon="2.70312">
        <ele>137.39999389648</ele>
        <time>2022-02-12T14:33:34Z</time>
      </trkpt>
      <trkpt lat="48.36156" lon="2.70317">
        <ele>137</ele>
        <time>2022-02-12T14:33:39Z</time>
      </trkpt>
      <trkpt lat="48.36152" lon="2.70322">
        <ele>136.39999389648</ele>
        <time>2022-02-12T14:33:44Z</time>
      </trkpt>
      <trkpt lat="48.36151" lon="2.70323">
        <ele>136.19999694824</ele>
        <time>2022-02-12T14:33:49Z</time>
      </trkpt>
      <trkpt lat="48.3615" lon="2.70328">
        <ele>136.19999694824</ele>
        <time>2022-02-12T14:33:54Z</time>
      </trkpt>
      <trkpt lat="48.36147" lon="2.70332">
        <ele>136</ele>
        <time>2022-02-12T14:33:59Z</time>
      </trkpt>
      <trkpt lat="48.36144" lon="2.7034">
        <ele>135.80000305176</ele>
        <time>2022-02-12T14:34:04Z</time>
      </trkpt>
      <trkpt lat="48.36143" lon="2.70344">
        <ele>135.39999389648</ele>
        <time>2022-02-12T14:34:09Z</time>
      </trkpt>
      <trkpt lat="48.36144" lon="2.70347">
        <ele>135.19999694824</ele>
        <time>2022-02-12T14:34:14Z</time>
      </trkpt>
      <trkpt lat="48.36144" lon="2.70354">
        <ele>134.80000305176</ele>
        <time>2022-02-12T14:34:19Z</time>
      </trkpt>
      <trkpt lat="48.36145" lon="2.70356">
        <ele>134.60000610352</ele>
        <time>2022-02-12T14:34:24Z</time>
      </trkpt>
      <trkpt lat="48.36146" lon="2.70359">
        <ele>134.39999389648</ele>
        <time>2022-02-12T14:34:29Z</time>
      </trkpt>
      <trkpt lat="48.36146" lon="2.70361">
        <ele>134.39999389648</ele>
        <time>2022-02-12T14:34:34Z</time>
      </trkpt>
      <trkpt lat="48.36145" lon="2.70364">
        <ele>134.39999389648</ele>
        <time>2022-02-12T14:34:39Z</time>
      </trkpt>
      <trkpt lat="48.36146" lon="2.70367">
        <ele>134.39999389648</ele>
        <time>2022-02-12T14:34:44Z</time>
      </trkpt>
      <trkpt lat="48.36145" lon="2.70373">
        <ele>134.19999694824</ele>
        <time>2022-02-12T14:34:49Z</time>
      </trkpt>
      <trkpt lat="48.36144" lon="2.70375">
        <ele>134.19999694824</ele>
        <time>2022-02-12T14:34:54Z</time>
      </trkpt>
      <trkpt lat="48.36145" lon="2.70382">
        <ele>134.19999694824</ele>
        <time>2022-02-12T14:34:59Z</time>
      </trkpt>
      <trkpt lat="48.36145" lon="2.7039">
        <ele>134</ele>
        <time>2022-02-12T14:35:04Z</time>
      </trkpt>
      <trkpt lat="48.36145" lon="2.70395">
        <ele>133.80000305176</ele>
        <time>2022-02-12T14:35:09Z</time>
      </trkpt>
      <trkpt lat="48.36144" lon="2.70401">
        <ele>133.60000610352</ele>
        <time>2022-02-12T14:35:14Z</time>
      </trkpt>
      <trkpt lat="48.36143" lon="2.70407">
        <ele>133.39999389648</ele>
        <time>2022-02-12T14:35:19Z</time>
      </trkpt>
      <trkpt lat="48.36143" lon="2.70413">
        <ele>133.19999694824</ele>
        <time>2022-02-12T14:35:24Z</time>
      </trkpt>
      <trkpt lat="48.36144" lon="2.70419">
        <ele>133</ele>
        <time>2022-02-12T14:35:29Z</time>
      </trkpt>
      <trkpt lat="48.36147" lon="2.70427">
        <ele>132.80000305176</ele>
        <time>2022-02-12T14:35:34Z</time>
      </trkpt>
      <trkpt lat="48.36147" lon="2.7043">
        <ele>132.80000305176</ele>
        <time>2022-02-12T14:35:39Z</time>
      </trkpt>
      <trkpt lat="48.36148" lon="2.70438">
        <ele>132.80000305176</ele>
        <time>2022-02-12T14:35:44Z</time>
      </trkpt>
      <trkpt lat="48.3615" lon="2.70444">
        <ele>132.60000610352</ele>
        <time>2022-02-12T14:35:49Z</time>
      </trkpt>
      <trkpt lat="48.36151" lon="2.70449">
        <ele>132.39999389648</ele>
        <time>2022-02-12T14:35:54Z</time>
      </trkpt>
      <trkpt lat="48.36152" lon="2.70454">
        <ele>132.39999389648</ele>
        <time>2022-02-12T14:35:59Z</time>
      </trkpt>
      <trkpt lat="48.36153" lon="2.70455">
        <ele>132.39999389648</ele>
        <time>2022-02-12T14:36:04Z</time>
      </trkpt>
      <trkpt lat="48.36153" lon="2.70457">
        <ele>132.39999389648</ele>
        <time>2022-02-12T14:36:09Z</time>
      </trkpt>
      <trkpt lat="48.36153" lon="2.70459">
        <ele>132.39999389648</ele>
        <time>2022-02-12T14:36:14Z</time>
      </trkpt>
      <trkpt lat="48.36152" lon="2.70461">
        <ele>132.39999389648</ele>
        <time>2022-02-12T14:36:19Z</time>
      </trkpt>
      <trkpt lat="48.36151" lon="2.70464">
        <ele>132.39999389648</ele>
        <time>2022-02-12T14:36:24Z</time>
      </trkpt>
      <trkpt lat="48.36151" lon="2.70466">
        <ele>132.39999389648</ele>
        <time>2022-02-12T14:36:29Z</time>
      </trkpt>
      <trkpt lat="48.36152" lon="2.70469">
        <ele>132.19999694824</ele>
        <time>2022-02-12T14:36:34Z</time>
      </trkpt>
      <trkpt lat="48.36152" lon="2.70476">
        <ele>131.80000305176</ele>
        <time>2022-02-12T14:36:39Z</time>
      </trkpt>
      <trkpt lat="48.36154" lon="2.70479">
        <ele>131.60000610352</ele>
        <time>2022-02-12T14:36:44Z</time>
      </trkpt>
      <trkpt lat="48.36155" lon="2.70487">
        <ele>131.39999389648</ele>
        <time>2022-02-12T14:36:49Z</time>
      </trkpt>
      <trkpt lat="48.36156" lon="2.7049">
        <ele>131.19999694824</ele>
        <time>2022-02-12T14:36:54Z</time>
      </trkpt>
      <trkpt lat="48.36157" lon="2.70493">
        <ele>131</ele>
        <time>2022-02-12T14:36:59Z</time>
      </trkpt>
      <trkpt lat="48.36159" lon="2.70495">
        <ele>131</ele>
        <time>2022-02-12T14:37:04Z</time>
      </trkpt>
      <trkpt lat="48.36159" lon="2.705">
        <ele>131</ele>
        <time>2022-02-12T14:37:09Z</time>
      </trkpt>
      <trkpt lat="48.36158" lon="2.70506">
        <ele>130.80000305176</ele>
        <time>2022-02-12T14:37:14Z</time>
      </trkpt>
      <trkpt lat="48.36157" lon="2.70513">
        <ele>130.60000610352</ele>
        <time>2022-02-12T14:37:19Z</time>
      </trkpt>
      <trkpt lat="48.36159" lon="2.7052">
        <ele>130.60000610352</ele>
        <time>2022-02-12T14:37:24Z</time>
      </trkpt>
      <trkpt lat="48.36159" lon="2.70523">
        <ele>130.60000610352</ele>
        <time>2022-02-12T14:37:29Z</time>
      </trkpt>
      <trkpt lat="48.36158" lon="2.70526">
        <ele>130.80000305176</ele>
        <time>2022-02-12T14:37:34Z</time>
      </trkpt>
      <trkpt lat="48.36157" lon="2.70532">
        <ele>131</ele>
        <time>2022-02-12T14:37:39Z</time>
      </trkpt>
      <trkpt lat="48.36156" lon="2.70541">
        <ele>131.19999694824</ele>
        <time>2022-02-12T14:37:44Z</time>
      </trkpt>
      <trkpt lat="48.36155" lon="2.70549">
        <ele>131</ele>
        <time>2022-02-12T14:37:49Z</time>
      </trkpt>
      <trkpt lat="48.36154" lon="2.70557">
        <ele>130.60000610352</ele>
        <time>2022-02-12T14:37:54Z</time>
      </trkpt>
      <trkpt lat="48.36153" lon="2.70562">
        <ele>130.39999389648</ele>
        <time>2022-02-12T14:37:59Z</time>
      </trkpt>
      <trkpt lat="48.36152" lon="2.70566">
        <ele>130.19999694824</ele>
        <time>2022-02-12T14:38:04Z</time>
      </trkpt>
      <trkpt lat="48.36151" lon="2.70569">
        <ele>130.19999694824</ele>
        <time>2022-02-12T14:38:09Z</time>
      </trkpt>
      <trkpt lat="48.3615" lon="2.70574">
        <ele>130.19999694824</ele>
        <time>2022-02-12T14:38:14Z</time>
      </trkpt>
      <trkpt lat="48.36149" lon="2.7058">
        <ele>130.19999694824</ele>
        <time>2022-02-12T14:38:19Z</time>
      </trkpt>
      <trkpt lat="48.36148" lon="2.70585">
        <ele>130.19999694824</ele>
        <time>2022-02-12T14:38:24Z</time>
      </trkpt>
      <trkpt lat="48.36147" lon="2.70589">
        <ele>130.19999694824</ele>
        <time>2022-02-12T14:38:29Z</time>
      </trkpt>
      <trkpt lat="48.36144" lon="2.70595">
        <ele>130.19999694824</ele>
        <time>2022-02-12T14:38:34Z</time>
      </trkpt>
      <trkpt lat="48.36144" lon="2.706">
        <ele>130.19999694824</ele>
        <time>2022-02-12T14:38:39Z</time>
      </trkpt>
      <trkpt lat="48.36145" lon="2.70605">
        <ele>130.19999694824</ele>
        <time>2022-02-12T14:38:44Z</time>
      </trkpt>
      <trkpt lat="48.36146" lon="2.70612">
        <ele>130.19999694824</ele>
        <time>2022-02-12T14:38:49Z</time>
      </trkpt>
      <trkpt lat="48.36147" lon="2.70618">
        <ele>130.19999694824</ele>
        <time>2022-02-12T14:38:54Z</time>
      </trkpt>
      <trkpt lat="48.36149" lon="2.70623">
        <ele>130.19999694824</ele>
        <time>2022-02-12T14:38:59Z</time>
      </trkpt>
      <trkpt lat="48.3615" lon="2.70627">
        <ele>130.19999694824</ele>
        <time>2022-02-12T14:39:04Z</time>
      </trkpt>
      <trkpt lat="48.3615" lon="2.70629">
        <ele>130.19999694824</ele>
        <time>2022-02-12T14:39:09Z</time>
      </trkpt>
      <trkpt lat="48.36149" lon="2.7063">
        <ele>130.19999694824</ele>
        <time>2022-02-12T14:39:14Z</time>
      </trkpt>
      <trkpt lat="48.36147" lon="2.70635">
        <ele>130.19999694824</ele>
        <time>2022-02-12T14:39:19Z</time>
      </trkpt>
      <trkpt lat="48.36147" lon="2.70642">
        <ele>130.19999694824</ele>
        <time>2022-02-12T14:39:24Z</time>
      </trkpt>
      <trkpt lat="48.36147" lon="2.70643">
        <ele>130.19999694824</ele>
        <time>2022-02-12T14:39:29Z</time>
      </trkpt>
      <trkpt lat="48.36148" lon="2.70644">
        <ele>130.19999694824</ele>
        <time>2022-02-12T14:39:34Z</time>
      </trkpt>
      <trkpt lat="48.36148" lon="2.70653">
        <ele>130.19999694824</ele>
        <time>2022-02-12T14:39:39Z</time>
      </trkpt>
      <trkpt lat="48.36148" lon="2.70663">
        <ele>130.19999694824</ele>
        <time>2022-02-12T14:39:44Z</time>
      </trkpt>
      <trkpt lat="48.36146" lon="2.70668">
        <ele>130.19999694824</ele>
        <time>2022-02-12T14:39:49Z</time>
      </trkpt>
      <trkpt lat="48.36147" lon="2.70669">
        <ele>130.19999694824</ele>
        <time>2022-02-12T14:39:54Z</time>
      </trkpt>
      <trkpt lat="48.36147" lon="2.70672">
        <ele>130.19999694824</ele>
        <time>2022-02-12T14:39:59Z</time>
      </trkpt>
      <trkpt lat="48.36147" lon="2.70673">
        <ele>130.19999694824</ele>
        <time>2022-02-12T14:40:04Z</time>
      </trkpt>
      <trkpt lat="48.36145" lon="2.70677">
        <ele>130.19999694824</ele>
        <time>2022-02-12T14:40:09Z</time>
      </trkpt>
      <trkpt lat="48.36143" lon="2.70684">
        <ele>130.19999694824</ele>
        <time>2022-02-12T14:40:14Z</time>
      </trkpt>
      <trkpt lat="48.36142" lon="2.70689">
        <ele>130.19999694824</ele>
        <time>2022-02-12T14:40:19Z</time>
      </trkpt>
      <trkpt lat="48.36142" lon="2.70692">
        <ele>130.19999694824</ele>
        <time>2022-02-12T14:40:24Z</time>
      </trkpt>
      <trkpt lat="48.36142" lon="2.70697">
        <ele>126.40000152588</ele>
        <time>2022-02-12T14:40:29Z</time>
      </trkpt>
      <trkpt lat="48.3614" lon="2.70702">
        <ele>126.40000152588</ele>
        <time>2022-02-12T14:40:34Z</time>
      </trkpt>
      <trkpt lat="48.36139" lon="2.70707">
        <ele>126.40000152588</ele>
        <time>2022-02-12T14:40:39Z</time>
      </trkpt>
      <trkpt lat="48.36138" lon="2.70711">
        <ele>126.19999694824</ele>
        <time>2022-02-12T14:40:44Z</time>
      </trkpt>
      <trkpt lat="48.36139" lon="2.70713">
        <ele>126.19999694824</ele>
        <time>2022-02-12T14:40:49Z</time>
      </trkpt>
      <trkpt lat="48.3614" lon="2.70717">
        <ele>126.19999694824</ele>
        <time>2022-02-12T14:40:54Z</time>
      </trkpt>
      <trkpt lat="48.36142" lon="2.7072">
        <ele>126.40000152588</ele>
        <time>2022-02-12T14:40:59Z</time>
      </trkpt>
      <trkpt lat="48.36143" lon="2.70725">
        <ele>126.40000152588</ele>
        <time>2022-02-12T14:41:04Z</time>
      </trkpt>
      <trkpt lat="48.36141" lon="2.70732">
        <ele>126.40000152588</ele>
        <time>2022-02-12T14:41:09Z</time>
      </trkpt>
      <trkpt lat="48.36143" lon="2.70739">
        <ele>126.40000152588</ele>
        <time>2022-02-12T14:41:14Z</time>
      </trkpt>
      <trkpt lat="48.36145" lon="2.70747">
        <ele>126.40000152588</ele>
        <time>2022-02-12T14:41:19Z</time>
      </trkpt>
      <trkpt lat="48.36147" lon="2.70754">
        <ele>126.40000152588</ele>
        <time>2022-02-12T14:41:24Z</time>
      </trkpt>
      <trkpt lat="48.3615" lon="2.7076">
        <ele>126.19999694824</ele>
        <time>2022-02-12T14:41:29Z</time>
      </trkpt>
      <trkpt lat="48.36153" lon="2.70767">
        <ele>126</ele>
        <time>2022-02-12T14:41:34Z</time>
      </trkpt>
      <trkpt lat="48.36152" lon="2.70773">
        <ele>126</ele>
        <time>2022-02-12T14:41:39Z</time>
      </trkpt>
      <trkpt lat="48.36151" lon="2.70783">
        <ele>126</ele>
        <time>2022-02-12T14:41:44Z</time>
      </trkpt>
      <trkpt lat="48.3615" lon="2.7079">
        <ele>126</ele>
        <time>2022-02-12T14:41:49Z</time>
      </trkpt>
      <trkpt lat="48.36148" lon="2.70797">
        <ele>126</ele>
        <time>2022-02-12T14:41:54Z</time>
      </trkpt>
      <trkpt lat="48.36147" lon="2.70804">
        <ele>126</ele>
        <time>2022-02-12T14:41:59Z</time>
      </trkpt>
      <trkpt lat="48.36145" lon="2.70812">
        <ele>126</ele>
        <time>2022-02-12T14:42:04Z</time>
      </trkpt>
      <trkpt lat="48.36146" lon="2.70818">
        <ele>126</ele>
        <time>2022-02-12T14:42:09Z</time>
      </trkpt>
      <trkpt lat="48.36147" lon="2.70823">
        <ele>126</ele>
        <time>2022-02-12T14:42:14Z</time>
      </trkpt>
      <trkpt lat="48.36146" lon="2.70829">
        <ele>126</ele>
        <time>2022-02-12T14:42:19Z</time>
      </trkpt>
      <trkpt lat="48.36145" lon="2.70835">
        <ele>126</ele>
        <time>2022-02-12T14:42:24Z</time>
      </trkpt>
      <trkpt lat="48.36146" lon="2.70838">
        <ele>126</ele>
        <time>2022-02-12T14:42:29Z</time>
      </trkpt>
      <trkpt lat="48.36145" lon="2.70845">
        <ele>126</ele>
        <time>2022-02-12T14:42:34Z</time>
      </trkpt>
      <trkpt lat="48.36146" lon="2.70853">
        <ele>126</ele>
        <time>2022-02-12T14:42:39Z</time>
      </trkpt>
      <trkpt lat="48.36147" lon="2.7086">
        <ele>126</ele>
        <time>2022-02-12T14:42:44Z</time>
      </trkpt>
      <trkpt lat="48.36148" lon="2.70868">
        <ele>126</ele>
        <time>2022-02-12T14:42:49Z</time>
      </trkpt>
      <trkpt lat="48.36149" lon="2.70873">
        <ele>126</ele>
        <time>2022-02-12T14:42:54Z</time>
      </trkpt>
      <trkpt lat="48.36149" lon="2.70876">
        <ele>126</ele>
        <time>2022-02-12T14:42:59Z</time>
      </trkpt>
      <trkpt lat="48.3615" lon="2.70879">
        <ele>126</ele>
        <time>2022-02-12T14:43:04Z</time>
      </trkpt>
      <trkpt lat="48.36152" lon="2.70887">
        <ele>126</ele>
        <time>2022-02-12T14:43:09Z</time>
      </trkpt>
      <trkpt lat="48.36154" lon="2.70895">
        <ele>126</ele>
        <time>2022-02-12T14:43:14Z</time>
      </trkpt>
      <trkpt lat="48.36155" lon="2.709">
        <ele>126</ele>
        <time>2022-02-12T14:43:19Z</time>
      </trkpt>
      <trkpt lat="48.36155" lon="2.70904">
        <ele>126</ele>
        <time>2022-02-12T14:43:24Z</time>
      </trkpt>
      <trkpt lat="48.36156" lon="2.70908">
        <ele>126</ele>
        <time>2022-02-12T14:43:29Z</time>
      </trkpt>
      <trkpt lat="48.36158" lon="2.70916">
        <ele>126</ele>
        <time>2022-02-12T14:43:34Z</time>
      </trkpt>
      <trkpt lat="48.36162" lon="2.70922">
        <ele>126</ele>
        <time>2022-02-12T14:43:39Z</time>
      </trkpt>
      <trkpt lat="48.36163" lon="2.70927">
        <ele>126</ele>
        <time>2022-02-12T14:43:44Z</time>
      </trkpt>
      <trkpt lat="48.36163" lon="2.70931">
        <ele>126</ele>
        <time>2022-02-12T14:43:49Z</time>
      </trkpt>
      <trkpt lat="48.36164" lon="2.70935">
        <ele>126</ele>
        <time>2022-02-12T14:43:54Z</time>
      </trkpt>
      <trkpt lat="48.36165" lon="2.70937">
        <ele>126</ele>
        <time>2022-02-12T14:43:59Z</time>
      </trkpt>
      <trkpt lat="48.36165" lon="2.70938">
        <ele>126</ele>
        <time>2022-02-12T14:44:04Z</time>
      </trkpt>
      <trkpt lat="48.36166" lon="2.70938">
        <ele>126</ele>
        <time>2022-02-12T14:44:09Z</time>
      </trkpt>
      <trkpt lat="48.36167" lon="2.70938">
        <ele>126</ele>
        <time>2022-02-12T14:44:14Z</time>
      </trkpt>
      <trkpt lat="48.36169" lon="2.70939">
        <ele>126</ele>
        <time>2022-02-12T14:44:19Z</time>
      </trkpt>
      <trkpt lat="48.36171" lon="2.70941">
        <ele>126</ele>
        <time>2022-02-12T14:44:24Z</time>
      </trkpt>
      <trkpt lat="48.36172" lon="2.70945">
        <ele>126</ele>
        <time>2022-02-12T14:44:29Z</time>
      </trkpt>
      <trkpt lat="48.36173" lon="2.70947">
        <ele>126</ele>
        <time>2022-02-12T14:44:34Z</time>
      </trkpt>
      <trkpt lat="48.36172" lon="2.70949">
        <ele>126</ele>
        <time>2022-02-12T14:44:39Z</time>
      </trkpt>
      <trkpt lat="48.36173" lon="2.70948">
        <ele>126</ele>
        <time>2022-02-12T14:44:44Z</time>
      </trkpt>
      <trkpt lat="48.36174" lon="2.70948">
        <ele>126</ele>
        <time>2022-02-12T14:44:49Z</time>
      </trkpt>
      <trkpt lat="48.36176" lon="2.70947">
        <ele>126</ele>
        <time>2022-02-12T14:44:54Z</time>
      </trkpt>
      <trkpt lat="48.36178" lon="2.70947">
        <ele>126</ele>
        <time>2022-02-12T14:44:59Z</time>
      </trkpt>
      <trkpt lat="48.3618" lon="2.70948">
        <ele>126</ele>
        <time>2022-02-12T14:45:04Z</time>
      </trkpt>
      <trkpt lat="48.36182" lon="2.70947">
        <ele>126</ele>
        <time>2022-02-12T14:45:09Z</time>
      </trkpt>
      <trkpt lat="48.36183" lon="2.70946">
        <ele>126</ele>
        <time>2022-02-12T14:45:14Z</time>
      </trkpt>
      <trkpt lat="48.36184" lon="2.70945">
        <ele>126</ele>
        <time>2022-02-12T14:45:19Z</time>
      </trkpt>
      <trkpt lat="48.36186" lon="2.70944">
        <ele>126</ele>
        <time>2022-02-12T14:45:24Z</time>
      </trkpt>
      <trkpt lat="48.36185" lon="2.70944">
        <ele>126</ele>
        <time>2022-02-12T14:45:29Z</time>
      </trkpt>
      <trkpt lat="48.36185" lon="2.70946">
        <ele>126</ele>
        <time>2022-02-12T14:45:34Z</time>
      </trkpt>
      <trkpt lat="48.36184" lon="2.70947">
        <ele>126</ele>
        <time>2022-02-12T14:45:39Z</time>
      </trkpt>
      <trkpt lat="48.36183" lon="2.70948">
        <ele>126</ele>
        <time>2022-02-12T14:45:44Z</time>
      </trkpt>
      <trkpt lat="48.36183" lon="2.70948">
        <ele>126</ele>
        <time>2022-02-12T14:45:49Z</time>
      </trkpt>
      <trkpt lat="48.36183" lon="2.70949">
        <ele>126</ele>
        <time>2022-02-12T14:45:54Z</time>
      </trkpt>
      <trkpt lat="48.36181" lon="2.7095">
        <ele>126</ele>
        <time>2022-02-12T14:45:59Z</time>
      </trkpt>
      <trkpt lat="48.36179" lon="2.7095">
        <ele>126</ele>
        <time>2022-02-12T14:46:04Z</time>
      </trkpt>
      <trkpt lat="48.36179" lon="2.7095">
        <ele>126</ele>
        <time>2022-02-12T14:46:09Z</time>
      </trkpt>
      <trkpt lat="48.36179" lon="2.70949">
        <ele>126</ele>
        <time>2022-02-12T14:46:14Z</time>
      </trkpt>
      <trkpt lat="48.36177" lon="2.7095">
        <ele>126</ele>
        <time>2022-02-12T14:46:19Z</time>
      </trkpt>
      <trkpt lat="48.36178" lon="2.7095">
        <ele>126</ele>
        <time>2022-02-12T14:46:24Z</time>
      </trkpt>
      <trkpt lat="48.36178" lon="2.7095">
        <ele>126</ele>
        <time>2022-02-12T14:46:29Z</time>
      </trkpt>
      <trkpt lat="48.36178" lon="2.7095">
        <ele>126</ele>
        <time>2022-02-12T14:46:34Z</time>
      </trkpt>
      <trkpt lat="48.36178" lon="2.7095">
        <ele>126</ele>
        <time>2022-02-12T14:46:39Z</time>
      </trkpt>
      <trkpt lat="48.36177" lon="2.70949">
        <ele>126</ele>
        <time>2022-02-12T14:46:44Z</time>
      </trkpt>
      <trkpt lat="48.36178" lon="2.70948">
        <ele>126</ele>
        <time>2022-02-12T14:46:49Z</time>
      </trkpt>
      <trkpt lat="48.36179" lon="2.70947">
        <ele>126</ele>
        <time>2022-02-12T14:46:54Z</time>
      </trkpt>
      <trkpt lat="48.36179" lon="2.70947">
        <ele>126</ele>
        <time>2022-02-12T14:46:59Z</time>
      </trkpt>
      <trkpt lat="48.36179" lon="2.70946">
        <ele>126</ele>
        <time>2022-02-12T14:47:04Z</time>
      </trkpt>
      <trkpt lat="48.3618" lon="2.70945">
        <ele>126</ele>
        <time>2022-02-12T14:47:09Z</time>
      </trkpt>
      <trkpt lat="48.36179" lon="2.70944">
        <ele>126</ele>
        <time>2022-02-12T14:47:14Z</time>
      </trkpt>
      <trkpt lat="48.36179" lon="2.70943">
        <ele>126</ele>
        <time>2022-02-12T14:47:19Z</time>
      </trkpt>
      <trkpt lat="48.36179" lon="2.70941">
        <ele>126</ele>
        <time>2022-02-12T14:47:24Z</time>
      </trkpt>
      <trkpt lat="48.36179" lon="2.7094">
        <ele>126</ele>
        <time>2022-02-12T14:47:29Z</time>
      </trkpt>
      <trkpt lat="48.36179" lon="2.7094">
        <ele>126</ele>
        <time>2022-02-12T14:47:34Z</time>
      </trkpt>
      <trkpt lat="48.36179" lon="2.7094">
        <ele>126</ele>
        <time>2022-02-12T14:47:39Z</time>
      </trkpt>
      <trkpt lat="48.36179" lon="2.70941">
        <ele>126</ele>
        <time>2022-02-12T14:47:44Z</time>
      </trkpt>
      <trkpt lat="48.36178" lon="2.70943">
        <ele>126</ele>
        <time>2022-02-12T14:47:49Z</time>
      </trkpt>
      <trkpt lat="48.36178" lon="2.70945">
        <ele>126</ele>
        <time>2022-02-12T14:47:54Z</time>
      </trkpt>
      <trkpt lat="48.36179" lon="2.70946">
        <ele>126</ele>
        <time>2022-02-12T14:47:59Z</time>
      </trkpt>
      <trkpt lat="48.36179" lon="2.70946">
        <ele>126</ele>
        <time>2022-02-12T14:48:04Z</time>
      </trkpt>
      <trkpt lat="48.36179" lon="2.70945">
        <ele>126</ele>
        <time>2022-02-12T14:48:09Z</time>
      </trkpt>
      <trkpt lat="48.36178" lon="2.70944">
        <ele>126</ele>
        <time>2022-02-12T14:48:14Z</time>
      </trkpt>
      <trkpt lat="48.36179" lon="2.70945">
        <ele>126</ele>
        <time>2022-02-12T14:48:19Z</time>
      </trkpt>
      <trkpt lat="48.36179" lon="2.70946">
        <ele>126</ele>
        <time>2022-02-12T14:48:24Z</time>
      </trkpt>
      <trkpt lat="48.36181" lon="2.70947">
        <ele>126</ele>
        <time>2022-02-12T14:48:29Z</time>
      </trkpt>
      <trkpt lat="48.36182" lon="2.70947">
        <ele>126</ele>
        <time>2022-02-12T14:48:34Z</time>
      </trkpt>
      <trkpt lat="48.36182" lon="2.70948">
        <ele>126</ele>
        <time>2022-02-12T14:48:39Z</time>
      </trkpt>
      <trkpt lat="48.36183" lon="2.70948">
        <ele>126</ele>
        <time>2022-02-12T14:48:44Z</time>
      </trkpt>
      <trkpt lat="48.36182" lon="2.70947">
        <ele>126</ele>
        <time>2022-02-12T14:48:49Z</time>
      </trkpt>
      <trkpt lat="48.36181" lon="2.70946">
        <ele>126</ele>
        <time>2022-02-12T14:48:54Z</time>
      </trkpt>
      <trkpt lat="48.3618" lon="2.70945">
        <ele>126</ele>
        <time>2022-02-12T14:48:59Z</time>
      </trkpt>
      <trkpt lat="48.3618" lon="2.70944">
        <ele>126</ele>
        <time>2022-02-12T14:49:04Z</time>
      </trkpt>
      <trkpt lat="48.36179" lon="2.70944">
        <ele>126</ele>
        <time>2022-02-12T14:49:09Z</time>
      </trkpt>
      <trkpt lat="48.3618" lon="2.70943">
        <ele>126</ele>
        <time>2022-02-12T14:49:14Z</time>
      </trkpt>
      <trkpt lat="48.36181" lon="2.70944">
        <ele>126</ele>
        <time>2022-02-12T14:49:19Z</time>
      </trkpt>
      <trkpt lat="48.36184" lon="2.70944">
        <ele>126</ele>
        <time>2022-02-12T14:49:24Z</time>
      </trkpt>
      <trkpt lat="48.36185" lon="2.70944">
        <ele>126</ele>
        <time>2022-02-12T14:49:29Z</time>
      </trkpt>
      <trkpt lat="48.36185" lon="2.70943">
        <ele>126</ele>
        <time>2022-02-12T14:49:34Z</time>
      </trkpt>
      <trkpt lat="48.36184" lon="2.70943">
        <ele>126</ele>
        <time>2022-02-12T14:49:39Z</time>
      </trkpt>
      <trkpt lat="48.36184" lon="2.70943">
        <ele>126</ele>
        <time>2022-02-12T14:49:44Z</time>
      </trkpt>
      <trkpt lat="48.36183" lon="2.70944">
        <ele>126</ele>
        <time>2022-02-12T14:49:49Z</time>
      </trkpt>
      <trkpt lat="48.36182" lon="2.70945">
        <ele>126</ele>
        <time>2022-02-12T14:49:54Z</time>
      </trkpt>
      <trkpt lat="48.3618" lon="2.70946">
        <ele>126</ele>
        <time>2022-02-12T14:49:59Z</time>
      </trkpt>
      <trkpt lat="48.36181" lon="2.70946">
        <ele>126</ele>
        <time>2022-02-12T14:50:04Z</time>
      </trkpt>
      <trkpt lat="48.36184" lon="2.70945">
        <ele>126</ele>
        <time>2022-02-12T14:50:09Z</time>
      </trkpt>
      <trkpt lat="48.36186" lon="2.70946">
        <ele>126</ele>
        <time>2022-02-12T14:50:14Z</time>
      </trkpt>
      <trkpt lat="48.36189" lon="2.70946">
        <ele>126</ele>
        <time>2022-02-12T14:50:19Z</time>
      </trkpt>
      <trkpt lat="48.36191" lon="2.70946">
        <ele>126</ele>
        <time>2022-02-12T14:50:24Z</time>
      </trkpt>
      <trkpt lat="48.36191" lon="2.70946">
        <ele>126</ele>
        <time>2022-02-12T14:50:29Z</time>
      </trkpt>
      <trkpt lat="48.36191" lon="2.70946">
        <ele>126</ele>
        <time>2022-02-12T14:50:34Z</time>
      </trkpt>
      <trkpt lat="48.36194" lon="2.70946">
        <ele>126</ele>
        <time>2022-02-12T14:50:39Z</time>
      </trkpt>
      <trkpt lat="48.36195" lon="2.70946">
        <ele>126</ele>
        <time>2022-02-12T14:50:44Z</time>
      </trkpt>
      <trkpt lat="48.36195" lon="2.70946">
        <ele>126</ele>
        <time>2022-02-12T14:50:49Z</time>
      </trkpt>
      <trkpt lat="48.36195" lon="2.70946">
        <ele>126</ele>
        <time>2022-02-12T14:50:54Z</time>
      </trkpt>
      <trkpt lat="48.36192" lon="2.70945">
        <ele>126</ele>
        <time>2022-02-12T14:50:59Z</time>
      </trkpt>
      <trkpt lat="48.36189" lon="2.70943">
        <ele>126</ele>
        <time>2022-02-12T14:51:04Z</time>
      </trkpt>
      <trkpt lat="48.36187" lon="2.70943">
        <ele>126</ele>
        <time>2022-02-12T14:51:09Z</time>
      </trkpt>
      <trkpt lat="48.36186" lon="2.70944">
        <ele>126</ele>
        <time>2022-02-12T14:51:14Z</time>
      </trkpt>
      <trkpt lat="48.36185" lon="2.70944">
        <ele>126</ele>
        <time>2022-02-12T14:51:19Z</time>
      </trkpt>
      <trkpt lat="48.36184" lon="2.70945">
        <ele>126</ele>
        <time>2022-02-12T14:51:24Z</time>
      </trkpt>
      <trkpt lat="48.36182" lon="2.70946">
        <ele>126</ele>
        <time>2022-02-12T14:51:29Z</time>
      </trkpt>
      <trkpt lat="48.36181" lon="2.70947">
        <ele>126</ele>
        <time>2022-02-12T14:51:34Z</time>
      </trkpt>
      <trkpt lat="48.3618" lon="2.70948">
        <ele>126</ele>
        <time>2022-02-12T14:51:39Z</time>
      </trkpt>
      <trkpt lat="48.3618" lon="2.70947">
        <ele>126</ele>
        <time>2022-02-12T14:51:44Z</time>
      </trkpt>
      <trkpt lat="48.3618" lon="2.70947">
        <ele>126</ele>
        <time>2022-02-12T14:51:49Z</time>
      </trkpt>
      <trkpt lat="48.36179" lon="2.70948">
        <ele>126</ele>
        <time>2022-02-12T14:51:54Z</time>
      </trkpt>
      <trkpt lat="48.36176" lon="2.70949">
        <ele>126</ele>
        <time>2022-02-12T14:51:59Z</time>
      </trkpt>
      <trkpt lat="48.36175" lon="2.7095">
        <ele>126</ele>
        <time>2022-02-12T14:52:04Z</time>
      </trkpt>
      <trkpt lat="48.36174" lon="2.70953">
        <ele>126</ele>
        <time>2022-02-12T14:52:09Z</time>
      </trkpt>
      <trkpt lat="48.36173" lon="2.70953">
        <ele>126</ele>
        <time>2022-02-12T14:52:14Z</time>
      </trkpt>
      <trkpt lat="48.36172" lon="2.70952">
        <ele>126</ele>
        <time>2022-02-12T14:52:19Z</time>
      </trkpt>
      <trkpt lat="48.36173" lon="2.70951">
        <ele>126</ele>
        <time>2022-02-12T14:52:24Z</time>
      </trkpt>
      <trkpt lat="48.36175" lon="2.70951">
        <ele>126</ele>
        <time>2022-02-12T14:52:29Z</time>
      </trkpt>
      <trkpt lat="48.36174" lon="2.7095">
        <ele>126</ele>
        <time>2022-02-12T14:52:34Z</time>
      </trkpt>
      <trkpt lat="48.36174" lon="2.7095">
        <ele>126</ele>
        <time>2022-02-12T14:52:39Z</time>
      </trkpt>
      <trkpt lat="48.36175" lon="2.7095">
        <ele>126</ele>
        <time>2022-02-12T14:52:44Z</time>
      </trkpt>
      <trkpt lat="48.36177" lon="2.7095">
        <ele>126</ele>
        <time>2022-02-12T14:52:49Z</time>
      </trkpt>
      <trkpt lat="48.36177" lon="2.70954">
        <ele>126</ele>
        <time>2022-02-12T14:52:54Z</time>
      </trkpt>
      <trkpt lat="48.36179" lon="2.70957">
        <ele>126</ele>
        <time>2022-02-12T14:52:59Z</time>
      </trkpt>
      <trkpt lat="48.36181" lon="2.7096">
        <ele>126</ele>
        <time>2022-02-12T14:53:04Z</time>
      </trkpt>
      <trkpt lat="48.36184" lon="2.70968">
        <ele>126</ele>
        <time>2022-02-12T14:53:09Z</time>
      </trkpt>
      <trkpt lat="48.36187" lon="2.70977">
        <ele>126</ele>
        <time>2022-02-12T14:53:14Z</time>
      </trkpt>
      <trkpt lat="48.36189" lon="2.70983">
        <ele>126.40000152588</ele>
        <time>2022-02-12T14:53:19Z</time>
      </trkpt>
      <trkpt lat="48.3619" lon="2.70988">
        <ele>126.59999847412</ele>
        <time>2022-02-12T14:53:24Z</time>
      </trkpt>
      <trkpt lat="48.36192" lon="2.70993">
        <ele>126.59999847412</ele>
        <time>2022-02-12T14:53:29Z</time>
      </trkpt>
      <trkpt lat="48.36193" lon="2.70999">
        <ele>126.59999847412</ele>
        <time>2022-02-12T14:53:34Z</time>
      </trkpt>
      <trkpt lat="48.36194" lon="2.71005">
        <ele>126.59999847412</ele>
        <time>2022-02-12T14:53:39Z</time>
      </trkpt>
      <trkpt lat="48.36194" lon="2.71012">
        <ele>126.59999847412</ele>
        <time>2022-02-12T14:53:44Z</time>
      </trkpt>
      <trkpt lat="48.36196" lon="2.71019">
        <ele>126.59999847412</ele>
        <time>2022-02-12T14:53:49Z</time>
      </trkpt>
      <trkpt lat="48.36199" lon="2.71026">
        <ele>126.40000152588</ele>
        <time>2022-02-12T14:53:54Z</time>
      </trkpt>
      <trkpt lat="48.36201" lon="2.71031">
        <ele>126.40000152588</ele>
        <time>2022-02-12T14:53:59Z</time>
      </trkpt>
      <trkpt lat="48.36203" lon="2.71039">
        <ele>126.19999694824</ele>
        <time>2022-02-12T14:54:04Z</time>
      </trkpt>
      <trkpt lat="48.36203" lon="2.71045">
        <ele>126.40000152588</ele>
        <time>2022-02-12T14:54:09Z</time>
      </trkpt>
      <trkpt lat="48.36203" lon="2.71053">
        <ele>126.40000152588</ele>
        <time>2022-02-12T14:54:14Z</time>
      </trkpt>
      <trkpt lat="48.36205" lon="2.7106">
        <ele>126.40000152588</ele>
        <time>2022-02-12T14:54:19Z</time>
      </trkpt>
      <trkpt lat="48.36206" lon="2.71069">
        <ele>126.40000152588</ele>
        <time>2022-02-12T14:54:24Z</time>
      </trkpt>
      <trkpt lat="48.36207" lon="2.71077">
        <ele>126.19999694824</ele>
        <time>2022-02-12T14:54:29Z</time>
      </trkpt>
      <trkpt lat="48.36207" lon="2.71085">
        <ele>126</ele>
        <time>2022-02-12T14:54:34Z</time>
      </trkpt>
      <trkpt lat="48.36207" lon="2.71091">
        <ele>126</ele>
        <time>2022-02-12T14:54:39Z</time>
      </trkpt>
      <trkpt lat="48.36208" lon="2.71099">
        <ele>125.80000305176</ele>
        <time>2022-02-12T14:54:44Z</time>
      </trkpt>
      <trkpt lat="48.3621" lon="2.71108">
        <ele>125.59999847412</ele>
        <time>2022-02-12T14:54:49Z</time>
      </trkpt>
      <trkpt lat="48.36211" lon="2.71117">
        <ele>125.19999694824</ele>
        <time>2022-02-12T14:54:54Z</time>
      </trkpt>
      <trkpt lat="48.36213" lon="2.71123">
        <ele>125</ele>
        <time>2022-02-12T14:54:59Z</time>
      </trkpt>
      <trkpt lat="48.36214" lon="2.71128">
        <ele>124.80000305176</ele>
        <time>2022-02-12T14:55:04Z</time>
      </trkpt>
      <trkpt lat="48.36216" lon="2.71134">
        <ele>124.59999847412</ele>
        <time>2022-02-12T14:55:09Z</time>
      </trkpt>
      <trkpt lat="48.36216" lon="2.71142">
        <ele>124.59999847412</ele>
        <time>2022-02-12T14:55:14Z</time>
      </trkpt>
      <trkpt lat="48.36215" lon="2.71149">
        <ele>124.59999847412</ele>
        <time>2022-02-12T14:55:19Z</time>
      </trkpt>
      <trkpt lat="48.36216" lon="2.71154">
        <ele>124.80000305176</ele>
        <time>2022-02-12T14:55:24Z</time>
      </trkpt>
      <trkpt lat="48.36216" lon="2.71161">
        <ele>124.80000305176</ele>
        <time>2022-02-12T14:55:29Z</time>
      </trkpt>
      <trkpt lat="48.36215" lon="2.71169">
        <ele>125</ele>
        <time>2022-02-12T14:55:34Z</time>
      </trkpt>
      <trkpt lat="48.36215" lon="2.71178">
        <ele>125.19999694824</ele>
        <time>2022-02-12T14:55:39Z</time>
      </trkpt>
      <trkpt lat="48.36215" lon="2.71187">
        <ele>125.19999694824</ele>
        <time>2022-02-12T14:55:44Z</time>
      </trkpt>
      <trkpt lat="48.36214" lon="2.71196">
        <ele>125.19999694824</ele>
        <time>2022-02-12T14:55:49Z</time>
      </trkpt>
      <trkpt lat="48.36215" lon="2.71204">
        <ele>125.40000152588</ele>
        <time>2022-02-12T14:55:54Z</time>
      </trkpt>
      <trkpt lat="48.36214" lon="2.7121">
        <ele>125.40000152588</ele>
        <time>2022-02-12T14:55:59Z</time>
      </trkpt>
      <trkpt lat="48.36214" lon="2.71215">
        <ele>125.40000152588</ele>
        <time>2022-02-12T14:56:04Z</time>
      </trkpt>
      <trkpt lat="48.36215" lon="2.71221">
        <ele>125.40000152588</ele>
        <time>2022-02-12T14:56:09Z</time>
      </trkpt>
      <trkpt lat="48.36217" lon="2.71229">
        <ele>125.40000152588</ele>
        <time>2022-02-12T14:56:14Z</time>
      </trkpt>
      <trkpt lat="48.36217" lon="2.71236">
        <ele>125.19999694824</ele>
        <time>2022-02-12T14:56:19Z</time>
      </trkpt>
      <trkpt lat="48.36218" lon="2.71242">
        <ele>125</ele>
        <time>2022-02-12T14:56:24Z</time>
      </trkpt>
      <trkpt lat="48.36218" lon="2.7125">
        <ele>125</ele>
        <time>2022-02-12T14:56:29Z</time>
      </trkpt>
      <trkpt lat="48.36219" lon="2.71258">
        <ele>125</ele>
        <time>2022-02-12T14:56:34Z</time>
      </trkpt>
      <trkpt lat="48.36222" lon="2.71267">
        <ele>124.80000305176</ele>
        <time>2022-02-12T14:56:39Z</time>
      </trkpt>
      <trkpt lat="48.36225" lon="2.71277">
        <ele>124.59999847412</ele>
        <time>2022-02-12T14:56:44Z</time>
      </trkpt>
      <trkpt lat="48.36225" lon="2.71286">
        <ele>124.40000152588</ele>
        <time>2022-02-12T14:56:49Z</time>
      </trkpt>
      <trkpt lat="48.36225" lon="2.71292">
        <ele>124.40000152588</ele>
        <time>2022-02-12T14:56:54Z</time>
      </trkpt>
      <trkpt lat="48.36226" lon="2.71297">
        <ele>124.40000152588</ele>
        <time>2022-02-12T14:56:59Z</time>
      </trkpt>
      <trkpt lat="48.36226" lon="2.71305">
        <ele>124.19999694824</ele>
        <time>2022-02-12T14:57:04Z</time>
      </trkpt>
      <trkpt lat="48.36225" lon="2.71311">
        <ele>124.19999694824</ele>
        <time>2022-02-12T14:57:09Z</time>
      </trkpt>
      <trkpt lat="48.36224" lon="2.71317">
        <ele>124</ele>
        <time>2022-02-12T14:57:14Z</time>
      </trkpt>
      <trkpt lat="48.36224" lon="2.71325">
        <ele>123.80000305176</ele>
        <time>2022-02-12T14:57:19Z</time>
      </trkpt>
      <trkpt lat="48.36224" lon="2.71333">
        <ele>123.40000152588</ele>
        <time>2022-02-12T14:57:24Z</time>
      </trkpt>
      <trkpt lat="48.36223" lon="2.71341">
        <ele>123.19999694824</ele>
        <time>2022-02-12T14:57:29Z</time>
      </trkpt>
      <trkpt lat="48.36223" lon="2.71349">
        <ele>122.80000305176</ele>
        <time>2022-02-12T14:57:34Z</time>
      </trkpt>
      <trkpt lat="48.36223" lon="2.71356">
        <ele>122.80000305176</ele>
        <time>2022-02-12T14:57:39Z</time>
      </trkpt>
      <trkpt lat="48.36224" lon="2.71363">
        <ele>122.40000152588</ele>
        <time>2022-02-12T14:57:44Z</time>
      </trkpt>
      <trkpt lat="48.36225" lon="2.71369">
        <ele>122.19999694824</ele>
        <time>2022-02-12T14:57:49Z</time>
      </trkpt>
      <trkpt lat="48.36225" lon="2.71376">
        <ele>122</ele>
        <time>2022-02-12T14:57:54Z</time>
      </trkpt>
      <trkpt lat="48.36226" lon="2.71384">
        <ele>121.80000305176</ele>
        <time>2022-02-12T14:57:59Z</time>
      </trkpt>
      <trkpt lat="48.36226" lon="2.71391">
        <ele>121.59999847412</ele>
        <time>2022-02-12T14:58:04Z</time>
      </trkpt>
      <trkpt lat="48.36227" lon="2.71398">
        <ele>121.40000152588</ele>
        <time>2022-02-12T14:58:09Z</time>
      </trkpt>
      <trkpt lat="48.36229" lon="2.71405">
        <ele>121.40000152588</ele>
        <time>2022-02-12T14:58:14Z</time>
      </trkpt>
      <trkpt lat="48.36231" lon="2.71415">
        <ele>121.19999694824</ele>
        <time>2022-02-12T14:58:19Z</time>
      </trkpt>
      <trkpt lat="48.36234" lon="2.71424">
        <ele>121.19999694824</ele>
        <time>2022-02-12T14:58:24Z</time>
      </trkpt>
      <trkpt lat="48.36234" lon="2.71432">
        <ele>121.19999694824</ele>
        <time>2022-02-12T14:58:29Z</time>
      </trkpt>
      <trkpt lat="48.36234" lon="2.71438">
        <ele>121.19999694824</ele>
        <time>2022-02-12T14:58:34Z</time>
      </trkpt>
      <trkpt lat="48.36233" lon="2.71446">
        <ele>121.19999694824</ele>
        <time>2022-02-12T14:58:39Z</time>
      </trkpt>
      <trkpt lat="48.36233" lon="2.71453">
        <ele>121.40000152588</ele>
        <time>2022-02-12T14:58:44Z</time>
      </trkpt>
      <trkpt lat="48.36233" lon="2.7146">
        <ele>121.59999847412</ele>
        <time>2022-02-12T14:58:49Z</time>
      </trkpt>
      <trkpt lat="48.36236" lon="2.71469">
        <ele>121.80000305176</ele>
        <time>2022-02-12T14:58:54Z</time>
      </trkpt>
      <trkpt lat="48.36236" lon="2.7148">
        <ele>121.80000305176</ele>
        <time>2022-02-12T14:58:59Z</time>
      </trkpt>
      <trkpt lat="48.36236" lon="2.71486">
        <ele>122</ele>
        <time>2022-02-12T14:59:04Z</time>
      </trkpt>
      <trkpt lat="48.36236" lon="2.71491">
        <ele>122</ele>
        <time>2022-02-12T14:59:09Z</time>
      </trkpt>
      <trkpt lat="48.36237" lon="2.71499">
        <ele>122.19999694824</ele>
        <time>2022-02-12T14:59:14Z</time>
      </trkpt>
      <trkpt lat="48.36238" lon="2.71506">
        <ele>122.19999694824</ele>
        <time>2022-02-12T14:59:19Z</time>
      </trkpt>
      <trkpt lat="48.3624" lon="2.71512">
        <ele>122</ele>
        <time>2022-02-12T14:59:24Z</time>
      </trkpt>
      <trkpt lat="48.36241" lon="2.71518">
        <ele>122</ele>
        <time>2022-02-12T14:59:29Z</time>
      </trkpt>
      <trkpt lat="48.36241" lon="2.71523">
        <ele>121.40000152588</ele>
        <time>2022-02-12T14:59:34Z</time>
      </trkpt>
      <trkpt lat="48.36241" lon="2.71529">
        <ele>121.19999694824</ele>
        <time>2022-02-12T14:59:39Z</time>
      </trkpt>
      <trkpt lat="48.3624" lon="2.71539">
        <ele>120.80000305176</ele>
        <time>2022-02-12T14:59:44Z</time>
      </trkpt>
      <trkpt lat="48.36241" lon="2.7155">
        <ele>120.59999847412</ele>
        <time>2022-02-12T14:59:49Z</time>
      </trkpt>
      <trkpt lat="48.36242" lon="2.71559">
        <ele>120.19999694824</ele>
        <time>2022-02-12T14:59:54Z</time>
      </trkpt>
      <trkpt lat="48.36243" lon="2.71568">
        <ele>120</ele>
        <time>2022-02-12T14:59:59Z</time>
      </trkpt>
      <trkpt lat="48.36247" lon="2.71575">
        <ele>119.80000305176</ele>
        <time>2022-02-12T15:00:04Z</time>
      </trkpt>
      <trkpt lat="48.36247" lon="2.71582">
        <ele>119.59999847412</ele>
        <time>2022-02-12T15:00:09Z</time>
      </trkpt>
      <trkpt lat="48.36246" lon="2.71589">
        <ele>119.40000152588</ele>
        <time>2022-02-12T15:00:14Z</time>
      </trkpt>
      <trkpt lat="48.36245" lon="2.71596">
        <ele>119.19999694824</ele>
        <time>2022-02-12T15:00:19Z</time>
      </trkpt>
      <trkpt lat="48.36246" lon="2.71604">
        <ele>119.19999694824</ele>
        <time>2022-02-12T15:00:24Z</time>
      </trkpt>
      <trkpt lat="48.36245" lon="2.71611">
        <ele>119</ele>
        <time>2022-02-12T15:00:29Z</time>
      </trkpt>
      <trkpt lat="48.36245" lon="2.71618">
        <ele>119</ele>
        <time>2022-02-12T15:00:34Z</time>
      </trkpt>
      <trkpt lat="48.36245" lon="2.71622">
        <ele>119</ele>
        <time>2022-02-12T15:00:39Z</time>
      </trkpt>
      <trkpt lat="48.36247" lon="2.71625">
        <ele>118.80000305176</ele>
        <time>2022-02-12T15:00:44Z</time>
      </trkpt>
      <trkpt lat="48.36249" lon="2.71629">
        <ele>119</ele>
        <time>2022-02-12T15:00:49Z</time>
      </trkpt>
      <trkpt lat="48.36251" lon="2.71635">
        <ele>119</ele>
        <time>2022-02-12T15:00:54Z</time>
      </trkpt>
      <trkpt lat="48.36255" lon="2.71644">
        <ele>119</ele>
        <time>2022-02-12T15:00:59Z</time>
      </trkpt>
      <trkpt lat="48.36258" lon="2.71649">
        <ele>119.19999694824</ele>
        <time>2022-02-12T15:01:04Z</time>
      </trkpt>
      <trkpt lat="48.36262" lon="2.71654">
        <ele>119.19999694824</ele>
        <time>2022-02-12T15:01:09Z</time>
      </trkpt>
      <trkpt lat="48.36264" lon="2.71659">
        <ele>119.40000152588</ele>
        <time>2022-02-12T15:01:14Z</time>
      </trkpt>
      <trkpt lat="48.36266" lon="2.71661">
        <ele>119.59999847412</ele>
        <time>2022-02-12T15:01:19Z</time>
      </trkpt>
      <trkpt lat="48.36267" lon="2.71664">
        <ele>120</ele>
        <time>2022-02-12T15:01:24Z</time>
      </trkpt>
      <trkpt lat="48.36271" lon="2.71668">
        <ele>120</ele>
        <time>2022-02-12T15:01:29Z</time>
      </trkpt>
      <trkpt lat="48.36275" lon="2.71673">
        <ele>120.19999694824</ele>
        <time>2022-02-12T15:01:34Z</time>
      </trkpt>
      <trkpt lat="48.36279" lon="2.71676">
        <ele>120.59999847412</ele>
        <time>2022-02-12T15:01:39Z</time>
      </trkpt>
      <trkpt lat="48.36282" lon="2.7168">
        <ele>120.80000305176</ele>
        <time>2022-02-12T15:01:44Z</time>
      </trkpt>
      <trkpt lat="48.36284" lon="2.71687">
        <ele>120.80000305176</ele>
        <time>2022-02-12T15:01:49Z</time>
      </trkpt>
      <trkpt lat="48.36289" lon="2.7169">
        <ele>121.19999694824</ele>
        <time>2022-02-12T15:01:54Z</time>
      </trkpt>
      <trkpt lat="48.3629" lon="2.7169">
        <ele>121.19999694824</ele>
        <time>2022-02-12T15:01:59Z</time>
      </trkpt>
      <trkpt lat="48.36295" lon="2.71691">
        <ele>121.59999847412</ele>
        <time>2022-02-12T15:02:04Z</time>
      </trkpt>
      <trkpt lat="48.36298" lon="2.71694">
        <ele>121.80000305176</ele>
        <time>2022-02-12T15:02:09Z</time>
      </trkpt>
      <trkpt lat="48.36304" lon="2.71695">
        <ele>122</ele>
        <time>2022-02-12T15:02:14Z</time>
      </trkpt>
      <trkpt lat="48.36309" lon="2.71696">
        <ele>122.40000152588</ele>
        <time>2022-02-12T15:02:19Z</time>
      </trkpt>
      <trkpt lat="48.36312" lon="2.71697">
        <ele>122.80000305176</ele>
        <time>2022-02-12T15:02:24Z</time>
      </trkpt>
      <trkpt lat="48.36315" lon="2.717">
        <ele>123.19999694824</ele>
        <time>2022-02-12T15:02:29Z</time>
      </trkpt>
      <trkpt lat="48.3632" lon="2.71702">
        <ele>123.40000152588</ele>
        <time>2022-02-12T15:02:34Z</time>
      </trkpt>
      <trkpt lat="48.36325" lon="2.71703">
        <ele>123.40000152588</ele>
        <time>2022-02-12T15:02:39Z</time>
      </trkpt>
      <trkpt lat="48.36329" lon="2.71705">
        <ele>123.59999847412</ele>
        <time>2022-02-12T15:02:44Z</time>
      </trkpt>
      <trkpt lat="48.36333" lon="2.71708">
        <ele>123.40000152588</ele>
        <time>2022-02-12T15:02:49Z</time>
      </trkpt>
      <trkpt lat="48.36338" lon="2.71711">
        <ele>123.19999694824</ele>
        <time>2022-02-12T15:02:54Z</time>
      </trkpt>
      <trkpt lat="48.36343" lon="2.71717">
        <ele>123.19999694824</ele>
        <time>2022-02-12T15:02:59Z</time>
      </trkpt>
      <trkpt lat="48.3635" lon="2.71721">
        <ele>122.80000305176</ele>
        <time>2022-02-12T15:03:04Z</time>
      </trkpt>
      <trkpt lat="48.36354" lon="2.71724">
        <ele>122.59999847412</ele>
        <time>2022-02-12T15:03:09Z</time>
      </trkpt>
      <trkpt lat="48.36359" lon="2.71726">
        <ele>121.80000305176</ele>
        <time>2022-02-12T15:03:14Z</time>
      </trkpt>
      <trkpt lat="48.36363" lon="2.71729">
        <ele>121.19999694824</ele>
        <time>2022-02-12T15:03:19Z</time>
      </trkpt>
      <trkpt lat="48.36368" lon="2.71731">
        <ele>121</ele>
        <time>2022-02-12T15:03:24Z</time>
      </trkpt>
      <trkpt lat="48.36374" lon="2.71734">
        <ele>120.59999847412</ele>
        <time>2022-02-12T15:03:29Z</time>
      </trkpt>
      <trkpt lat="48.3638" lon="2.71736">
        <ele>120.19999694824</ele>
        <time>2022-02-12T15:03:34Z</time>
      </trkpt>
      <trkpt lat="48.36387" lon="2.71737">
        <ele>119.80000305176</ele>
        <time>2022-02-12T15:03:39Z</time>
      </trkpt>
      <trkpt lat="48.36391" lon="2.71741">
        <ele>119.59999847412</ele>
        <time>2022-02-12T15:03:44Z</time>
      </trkpt>
      <trkpt lat="48.36397" lon="2.71744">
        <ele>119.19999694824</ele>
        <time>2022-02-12T15:03:49Z</time>
      </trkpt>
      <trkpt lat="48.36401" lon="2.71748">
        <ele>118.40000152588</ele>
        <time>2022-02-12T15:03:54Z</time>
      </trkpt>
      <trkpt lat="48.36403" lon="2.71753">
        <ele>118.19999694824</ele>
        <time>2022-02-12T15:03:59Z</time>
      </trkpt>
      <trkpt lat="48.36408" lon="2.71756">
        <ele>117.80000305176</ele>
        <time>2022-02-12T15:04:04Z</time>
      </trkpt>
      <trkpt lat="48.3641" lon="2.71761">
        <ele>117.40000152588</ele>
        <time>2022-02-12T15:04:09Z</time>
      </trkpt>
      <trkpt lat="48.36413" lon="2.71764">
        <ele>117</ele>
        <time>2022-02-12T15:04:14Z</time>
      </trkpt>
      <trkpt lat="48.36413" lon="2.7177">
        <ele>117</ele>
        <time>2022-02-12T15:04:19Z</time>
      </trkpt>
      <trkpt lat="48.36413" lon="2.71772">
        <ele>116.80000305176</ele>
        <time>2022-02-12T15:04:24Z</time>
      </trkpt>
      <trkpt lat="48.36414" lon="2.71775">
        <ele>116.80000305176</ele>
        <time>2022-02-12T15:04:29Z</time>
      </trkpt>
      <trkpt lat="48.36415" lon="2.71778">
        <ele>116.59999847412</ele>
        <time>2022-02-12T15:04:34Z</time>
      </trkpt>
      <trkpt lat="48.36422" lon="2.71782">
        <ele>116.40000152588</ele>
        <time>2022-02-12T15:04:39Z</time>
      </trkpt>
      <trkpt lat="48.36426" lon="2.71787">
        <ele>116.19999694824</ele>
        <time>2022-02-12T15:04:44Z</time>
      </trkpt>
      <trkpt lat="48.36428" lon="2.71793">
        <ele>116</ele>
        <time>2022-02-12T15:04:49Z</time>
      </trkpt>
      <trkpt lat="48.3643" lon="2.71799">
        <ele>115.80000305176</ele>
        <time>2022-02-12T15:04:54Z</time>
      </trkpt>
      <trkpt lat="48.36431" lon="2.71804">
        <ele>115.80000305176</ele>
        <time>2022-02-12T15:04:59Z</time>
      </trkpt>
      <trkpt lat="48.36432" lon="2.7181">
        <ele>115.80000305176</ele>
        <time>2022-02-12T15:05:04Z</time>
      </trkpt>
      <trkpt lat="48.36431" lon="2.71811">
        <ele>115.40000152588</ele>
        <time>2022-02-12T15:05:09Z</time>
      </trkpt>
      <trkpt lat="48.36432" lon="2.71812">
        <ele>115.40000152588</ele>
        <time>2022-02-12T15:05:14Z</time>
      </trkpt>
      <trkpt lat="48.36433" lon="2.71814">
        <ele>115.19999694824</ele>
        <time>2022-02-12T15:05:19Z</time>
      </trkpt>
      <trkpt lat="48.36434" lon="2.7182">
        <ele>115.19999694824</ele>
        <time>2022-02-12T15:05:24Z</time>
      </trkpt>
      <trkpt lat="48.36438" lon="2.71826">
        <ele>115</ele>
        <time>2022-02-12T15:05:29Z</time>
      </trkpt>
      <trkpt lat="48.36443" lon="2.71835">
        <ele>115</ele>
        <time>2022-02-12T15:05:34Z</time>
      </trkpt>
      <trkpt lat="48.36444" lon="2.71844">
        <ele>115.19999694824</ele>
        <time>2022-02-12T15:05:39Z</time>
      </trkpt>
      <trkpt lat="48.36449" lon="2.71852">
        <ele>115.19999694824</ele>
        <time>2022-02-12T15:05:44Z</time>
      </trkpt>
      <trkpt lat="48.36452" lon="2.71856">
        <ele>115.19999694824</ele>
        <time>2022-02-12T15:05:49Z</time>
      </trkpt>
      <trkpt lat="48.36454" lon="2.71861">
        <ele>115.19999694824</ele>
        <time>2022-02-12T15:05:54Z</time>
      </trkpt>
      <trkpt lat="48.36457" lon="2.71867">
        <ele>115.19999694824</ele>
        <time>2022-02-12T15:05:59Z</time>
      </trkpt>
      <trkpt lat="48.36459" lon="2.7187">
        <ele>115</ele>
        <time>2022-02-12T15:06:04Z</time>
      </trkpt>
      <trkpt lat="48.3646" lon="2.71875">
        <ele>114.80000305176</ele>
        <time>2022-02-12T15:06:09Z</time>
      </trkpt>
      <trkpt lat="48.36462" lon="2.71881">
        <ele>114.80000305176</ele>
        <time>2022-02-12T15:06:14Z</time>
      </trkpt>
      <trkpt lat="48.36464" lon="2.7189">
        <ele>114.40000152588</ele>
        <time>2022-02-12T15:06:19Z</time>
      </trkpt>
      <trkpt lat="48.36467" lon="2.71894">
        <ele>114.40000152588</ele>
        <time>2022-02-12T15:06:24Z</time>
      </trkpt>
      <trkpt lat="48.36468" lon="2.71899">
        <ele>114.19999694824</ele>
        <time>2022-02-12T15:06:29Z</time>
      </trkpt>
      <trkpt lat="48.36469" lon="2.71903">
        <ele>114.19999694824</ele>
        <time>2022-02-12T15:06:34Z</time>
      </trkpt>
      <trkpt lat="48.36469" lon="2.71908">
        <ele>114</ele>
        <time>2022-02-12T15:06:39Z</time>
      </trkpt>
      <trkpt lat="48.36472" lon="2.71918">
        <ele>114</ele>
        <time>2022-02-12T15:06:44Z</time>
      </trkpt>
      <trkpt lat="48.36476" lon="2.7193">
        <ele>113.80000305176</ele>
        <time>2022-02-12T15:06:49Z</time>
      </trkpt>
      <trkpt lat="48.3648" lon="2.71936">
        <ele>113.80000305176</ele>
        <time>2022-02-12T15:06:54Z</time>
      </trkpt>
      <trkpt lat="48.36482" lon="2.7194">
        <ele>113.80000305176</ele>
        <time>2022-02-12T15:06:59Z</time>
      </trkpt>
      <trkpt lat="48.36485" lon="2.71945">
        <ele>113.80000305176</ele>
        <time>2022-02-12T15:07:04Z</time>
      </trkpt>
      <trkpt lat="48.36486" lon="2.71951">
        <ele>114</ele>
        <time>2022-02-12T15:07:09Z</time>
      </trkpt>
      <trkpt lat="48.36489" lon="2.71959">
        <ele>114</ele>
        <time>2022-02-12T15:07:14Z</time>
      </trkpt>
      <trkpt lat="48.36492" lon="2.71969">
        <ele>114</ele>
        <time>2022-02-12T15:07:19Z</time>
      </trkpt>
      <trkpt lat="48.36495" lon="2.71977">
        <ele>114</ele>
        <time>2022-02-12T15:07:24Z</time>
      </trkpt>
      <trkpt lat="48.36497" lon="2.71982">
        <ele>114.19999694824</ele>
        <time>2022-02-12T15:07:29Z</time>
      </trkpt>
      <trkpt lat="48.36499" lon="2.71989">
        <ele>114.19999694824</ele>
        <time>2022-02-12T15:07:34Z</time>
      </trkpt>
      <trkpt lat="48.365" lon="2.71996">
        <ele>114.19999694824</ele>
        <time>2022-02-12T15:07:39Z</time>
      </trkpt>
      <trkpt lat="48.365" lon="2.72002">
        <ele>114.19999694824</ele>
        <time>2022-02-12T15:07:44Z</time>
      </trkpt>
      <trkpt lat="48.36501" lon="2.7201">
        <ele>114.19999694824</ele>
        <time>2022-02-12T15:07:49Z</time>
      </trkpt>
      <trkpt lat="48.36501" lon="2.72018">
        <ele>114.19999694824</ele>
        <time>2022-02-12T15:07:54Z</time>
      </trkpt>
      <trkpt lat="48.36497" lon="2.72024">
        <ele>114.40000152588</ele>
        <time>2022-02-12T15:07:59Z</time>
      </trkpt>
      <trkpt lat="48.36496" lon="2.72033">
        <ele>114.40000152588</ele>
        <time>2022-02-12T15:08:04Z</time>
      </trkpt>
      <trkpt lat="48.36496" lon="2.72042">
        <ele>114.40000152588</ele>
        <time>2022-02-12T15:08:09Z</time>
      </trkpt>
      <trkpt lat="48.36497" lon="2.72048">
        <ele>114.59999847412</ele>
        <time>2022-02-12T15:08:14Z</time>
      </trkpt>
      <trkpt lat="48.36497" lon="2.72053">
        <ele>114.80000305176</ele>
        <time>2022-02-12T15:08:19Z</time>
      </trkpt>
      <trkpt lat="48.36496" lon="2.72059">
        <ele>115</ele>
        <time>2022-02-12T15:08:24Z</time>
      </trkpt>
      <trkpt lat="48.36495" lon="2.72061">
        <ele>115.19999694824</ele>
        <time>2022-02-12T15:08:29Z</time>
      </trkpt>
      <trkpt lat="48.36493" lon="2.72063">
        <ele>115.19999694824</ele>
        <time>2022-02-12T15:08:34Z</time>
      </trkpt>
      <trkpt lat="48.36495" lon="2.72065">
        <ele>115.19999694824</ele>
        <time>2022-02-12T15:08:39Z</time>
      </trkpt>
      <trkpt lat="48.36496" lon="2.7207">
        <ele>115.19999694824</ele>
        <time>2022-02-12T15:08:44Z</time>
      </trkpt>
      <trkpt lat="48.36492" lon="2.72078">
        <ele>115.19999694824</ele>
        <time>2022-02-12T15:08:49Z</time>
      </trkpt>
      <trkpt lat="48.36492" lon="2.72085">
        <ele>115.19999694824</ele>
        <time>2022-02-12T15:08:54Z</time>
      </trkpt>
      <trkpt lat="48.36489" lon="2.72091">
        <ele>115.19999694824</ele>
        <time>2022-02-12T15:08:59Z</time>
      </trkpt>
      <trkpt lat="48.3649" lon="2.72099">
        <ele>115.19999694824</ele>
        <time>2022-02-12T15:09:04Z</time>
      </trkpt>
      <trkpt lat="48.36487" lon="2.72105">
        <ele>115.19999694824</ele>
        <time>2022-02-12T15:09:09Z</time>
      </trkpt>
      <trkpt lat="48.36483" lon="2.72118">
        <ele>115.19999694824</ele>
        <time>2022-02-12T15:09:14Z</time>
      </trkpt>
      <trkpt lat="48.36482" lon="2.72127">
        <ele>115</ele>
        <time>2022-02-12T15:09:19Z</time>
      </trkpt>
      <trkpt lat="48.36481" lon="2.72138">
        <ele>115</ele>
        <time>2022-02-12T15:09:24Z</time>
      </trkpt>
      <trkpt lat="48.36481" lon="2.72147">
        <ele>115</ele>
        <time>2022-02-12T15:09:29Z</time>
      </trkpt>
      <trkpt lat="48.3648" lon="2.72154">
        <ele>115</ele>
        <time>2022-02-12T15:09:34Z</time>
      </trkpt>
      <trkpt lat="48.36478" lon="2.72162">
        <ele>115</ele>
        <time>2022-02-12T15:09:39Z</time>
      </trkpt>
      <trkpt lat="48.36478" lon="2.72171">
        <ele>115</ele>
        <time>2022-02-12T15:09:44Z</time>
      </trkpt>
      <trkpt lat="48.36478" lon="2.72178">
        <ele>115</ele>
        <time>2022-02-12T15:09:49Z</time>
      </trkpt>
      <trkpt lat="48.36478" lon="2.72184">
        <ele>114.80000305176</ele>
        <time>2022-02-12T15:09:54Z</time>
      </trkpt>
      <trkpt lat="48.36478" lon="2.72188">
        <ele>114.80000305176</ele>
        <time>2022-02-12T15:09:59Z</time>
      </trkpt>
      <trkpt lat="48.36476" lon="2.72194">
        <ele>114.59999847412</ele>
        <time>2022-02-12T15:10:04Z</time>
      </trkpt>
      <trkpt lat="48.36475" lon="2.72199">
        <ele>114.40000152588</ele>
        <time>2022-02-12T15:10:09Z</time>
      </trkpt>
      <trkpt lat="48.36476" lon="2.72207">
        <ele>114.19999694824</ele>
        <time>2022-02-12T15:10:14Z</time>
      </trkpt>
      <trkpt lat="48.36475" lon="2.72218">
        <ele>114.19999694824</ele>
        <time>2022-02-12T15:10:19Z</time>
      </trkpt>
      <trkpt lat="48.36476" lon="2.72228">
        <ele>114</ele>
        <time>2022-02-12T15:10:24Z</time>
      </trkpt>
      <trkpt lat="48.36475" lon="2.72236">
        <ele>114</ele>
        <time>2022-02-12T15:10:29Z</time>
      </trkpt>
      <trkpt lat="48.36477" lon="2.72244">
        <ele>114</ele>
        <time>2022-02-12T15:10:34Z</time>
      </trkpt>
      <trkpt lat="48.36476" lon="2.72253">
        <ele>113.80000305176</ele>
        <time>2022-02-12T15:10:39Z</time>
      </trkpt>
      <trkpt lat="48.36475" lon="2.7226">
        <ele>113.80000305176</ele>
        <time>2022-02-12T15:10:44Z</time>
      </trkpt>
      <trkpt lat="48.36473" lon="2.72264">
        <ele>113.59999847412</ele>
        <time>2022-02-12T15:10:49Z</time>
      </trkpt>
      <trkpt lat="48.36471" lon="2.72267">
        <ele>113.59999847412</ele>
        <time>2022-02-12T15:10:54Z</time>
      </trkpt>
      <trkpt lat="48.36473" lon="2.72271">
        <ele>113.40000152588</ele>
        <time>2022-02-12T15:10:59Z</time>
      </trkpt>
      <trkpt lat="48.36471" lon="2.72278">
        <ele>113.40000152588</ele>
        <time>2022-02-12T15:11:04Z</time>
      </trkpt>
      <trkpt lat="48.3647" lon="2.72285">
        <ele>113.40000152588</ele>
        <time>2022-02-12T15:11:09Z</time>
      </trkpt>
      <trkpt lat="48.36466" lon="2.72292">
        <ele>113.19999694824</ele>
        <time>2022-02-12T15:11:14Z</time>
      </trkpt>
      <trkpt lat="48.36466" lon="2.72299">
        <ele>113.19999694824</ele>
        <time>2022-02-12T15:11:19Z</time>
      </trkpt>
      <trkpt lat="48.36466" lon="2.72308">
        <ele>113.19999694824</ele>
        <time>2022-02-12T15:11:24Z</time>
      </trkpt>
      <trkpt lat="48.36465" lon="2.72315">
        <ele>113.19999694824</ele>
        <time>2022-02-12T15:11:29Z</time>
      </trkpt>
      <trkpt lat="48.36464" lon="2.72324">
        <ele>113.19999694824</ele>
        <time>2022-02-12T15:11:34Z</time>
      </trkpt>
      <trkpt lat="48.36463" lon="2.7233">
        <ele>113.40000152588</ele>
        <time>2022-02-12T15:11:39Z</time>
      </trkpt>
      <trkpt lat="48.36464" lon="2.72337">
        <ele>113.40000152588</ele>
        <time>2022-02-12T15:11:44Z</time>
      </trkpt>
      <trkpt lat="48.36465" lon="2.72344">
        <ele>113.40000152588</ele>
        <time>2022-02-12T15:11:49Z</time>
      </trkpt>
      <trkpt lat="48.36463" lon="2.72353">
        <ele>113.40000152588</ele>
        <time>2022-02-12T15:11:54Z</time>
      </trkpt>
      <trkpt lat="48.3646" lon="2.72362">
        <ele>113.40000152588</ele>
        <time>2022-02-12T15:11:59Z</time>
      </trkpt>
      <trkpt lat="48.36458" lon="2.72371">
        <ele>113.40000152588</ele>
        <time>2022-02-12T15:12:04Z</time>
      </trkpt>
      <trkpt lat="48.36457" lon="2.72379">
        <ele>113.59999847412</ele>
        <time>2022-02-12T15:12:09Z</time>
      </trkpt>
      <trkpt lat="48.36456" lon="2.72386">
        <ele>114</ele>
        <time>2022-02-12T15:12:14Z</time>
      </trkpt>
      <trkpt lat="48.36454" lon="2.72394">
        <ele>114.19999694824</ele>
        <time>2022-02-12T15:12:19Z</time>
      </trkpt>
      <trkpt lat="48.36453" lon="2.72401">
        <ele>114.19999694824</ele>
        <time>2022-02-12T15:12:24Z</time>
      </trkpt>
      <trkpt lat="48.3645" lon="2.72406">
        <ele>114.19999694824</ele>
        <time>2022-02-12T15:12:29Z</time>
      </trkpt>
      <trkpt lat="48.36448" lon="2.72417">
        <ele>114.40000152588</ele>
        <time>2022-02-12T15:12:34Z</time>
      </trkpt>
      <trkpt lat="48.36448" lon="2.72426">
        <ele>114.40000152588</ele>
        <time>2022-02-12T15:12:39Z</time>
      </trkpt>
      <trkpt lat="48.36449" lon="2.72435">
        <ele>114.59999847412</ele>
        <time>2022-02-12T15:12:44Z</time>
      </trkpt>
      <trkpt lat="48.36448" lon="2.72444">
        <ele>114.80000305176</ele>
        <time>2022-02-12T15:12:49Z</time>
      </trkpt>
      <trkpt lat="48.36448" lon="2.72452">
        <ele>115</ele>
        <time>2022-02-12T15:12:54Z</time>
      </trkpt>
      <trkpt lat="48.36447" lon="2.7246">
        <ele>115</ele>
        <time>2022-02-12T15:12:59Z</time>
      </trkpt>
      <trkpt lat="48.36447" lon="2.72468">
        <ele>115</ele>
        <time>2022-02-12T15:13:04Z</time>
      </trkpt>
      <trkpt lat="48.36448" lon="2.72474">
        <ele>115</ele>
        <time>2022-02-12T15:13:09Z</time>
      </trkpt>
      <trkpt lat="48.36449" lon="2.7248">
        <ele>115</ele>
        <time>2022-02-12T15:13:14Z</time>
      </trkpt>
      <trkpt lat="48.36447" lon="2.72486">
        <ele>115</ele>
        <time>2022-02-12T15:13:19Z</time>
      </trkpt>
      <trkpt lat="48.36449" lon="2.72494">
        <ele>115</ele>
        <time>2022-02-12T15:13:24Z</time>
      </trkpt>
      <trkpt lat="48.36447" lon="2.72502">
        <ele>115</ele>
        <time>2022-02-12T15:13:29Z</time>
      </trkpt>
      <trkpt lat="48.36444" lon="2.7251">
        <ele>114.80000305176</ele>
        <time>2022-02-12T15:13:34Z</time>
      </trkpt>
      <trkpt lat="48.3644" lon="2.72517">
        <ele>114.80000305176</ele>
        <time>2022-02-12T15:13:39Z</time>
      </trkpt>
      <trkpt lat="48.36439" lon="2.72525">
        <ele>114.80000305176</ele>
        <time>2022-02-12T15:13:44Z</time>
      </trkpt>
      <trkpt lat="48.3644" lon="2.72533">
        <ele>114.80000305176</ele>
        <time>2022-02-12T15:13:49Z</time>
      </trkpt>
      <trkpt lat="48.3644" lon="2.72541">
        <ele>114.59999847412</ele>
        <time>2022-02-12T15:13:54Z</time>
      </trkpt>
      <trkpt lat="48.3644" lon="2.72549">
        <ele>114.59999847412</ele>
        <time>2022-02-12T15:13:59Z</time>
      </trkpt>
      <trkpt lat="48.36442" lon="2.72557">
        <ele>114.59999847412</ele>
        <time>2022-02-12T15:14:04Z</time>
      </trkpt>
      <trkpt lat="48.36442" lon="2.72565">
        <ele>114.59999847412</ele>
        <time>2022-02-12T15:14:09Z</time>
      </trkpt>
      <trkpt lat="48.36442" lon="2.7257">
        <ele>114.59999847412</ele>
        <time>2022-02-12T15:14:14Z</time>
      </trkpt>
      <trkpt lat="48.36441" lon="2.72575">
        <ele>114.59999847412</ele>
        <time>2022-02-12T15:14:19Z</time>
      </trkpt>
      <trkpt lat="48.3644" lon="2.72581">
        <ele>114.59999847412</ele>
        <time>2022-02-12T15:14:24Z</time>
      </trkpt>
      <trkpt lat="48.3644" lon="2.72588">
        <ele>114.40000152588</ele>
        <time>2022-02-12T15:14:29Z</time>
      </trkpt>
      <trkpt lat="48.36443" lon="2.72593">
        <ele>114.59999847412</ele>
        <time>2022-02-12T15:14:34Z</time>
      </trkpt>
      <trkpt lat="48.36443" lon="2.72604">
        <ele>114.59999847412</ele>
        <time>2022-02-12T15:14:39Z</time>
      </trkpt>
      <trkpt lat="48.36441" lon="2.72613">
        <ele>114.59999847412</ele>
        <time>2022-02-12T15:14:44Z</time>
      </trkpt>
      <trkpt lat="48.3644" lon="2.7262">
        <ele>114.40000152588</ele>
        <time>2022-02-12T15:14:49Z</time>
      </trkpt>
      <trkpt lat="48.36439" lon="2.72626">
        <ele>114.40000152588</ele>
        <time>2022-02-12T15:14:54Z</time>
      </trkpt>
      <trkpt lat="48.3644" lon="2.72632">
        <ele>114.40000152588</ele>
        <time>2022-02-12T15:14:59Z</time>
      </trkpt>
      <trkpt lat="48.3644" lon="2.72638">
        <ele>114.40000152588</ele>
        <time>2022-02-12T15:15:04Z</time>
      </trkpt>
      <trkpt lat="48.36439" lon="2.72646">
        <ele>114.40000152588</ele>
        <time>2022-02-12T15:15:09Z</time>
      </trkpt>
      <trkpt lat="48.36438" lon="2.72656">
        <ele>114.40000152588</ele>
        <time>2022-02-12T15:15:14Z</time>
      </trkpt>
      <trkpt lat="48.36437" lon="2.72666">
        <ele>114.19999694824</ele>
        <time>2022-02-12T15:15:19Z</time>
      </trkpt>
      <trkpt lat="48.36436" lon="2.72675">
        <ele>114.40000152588</ele>
        <time>2022-02-12T15:15:24Z</time>
      </trkpt>
      <trkpt lat="48.36433" lon="2.72684">
        <ele>114.40000152588</ele>
        <time>2022-02-12T15:15:29Z</time>
      </trkpt>
      <trkpt lat="48.3643" lon="2.72691">
        <ele>114.40000152588</ele>
        <time>2022-02-12T15:15:34Z</time>
      </trkpt>
      <trkpt lat="48.36426" lon="2.72704">
        <ele>114.59999847412</ele>
        <time>2022-02-12T15:15:39Z</time>
      </trkpt>
      <trkpt lat="48.36424" lon="2.72715">
        <ele>114.59999847412</ele>
        <time>2022-02-12T15:15:44Z</time>
      </trkpt>
      <trkpt lat="48.36423" lon="2.72724">
        <ele>114.80000305176</ele>
        <time>2022-02-12T15:15:49Z</time>
      </trkpt>
      <trkpt lat="48.36422" lon="2.72732">
        <ele>114.80000305176</ele>
        <time>2022-02-12T15:15:54Z</time>
      </trkpt>
      <trkpt lat="48.36421" lon="2.72739">
        <ele>114.80000305176</ele>
        <time>2022-02-12T15:15:59Z</time>
      </trkpt>
      <trkpt lat="48.3642" lon="2.72747">
        <ele>114.80000305176</ele>
        <time>2022-02-12T15:16:04Z</time>
      </trkpt>
      <trkpt lat="48.36419" lon="2.72754">
        <ele>115</ele>
        <time>2022-02-12T15:16:09Z</time>
      </trkpt>
      <trkpt lat="48.36419" lon="2.72762">
        <ele>115.19999694824</ele>
        <time>2022-02-12T15:16:14Z</time>
      </trkpt>
      <trkpt lat="48.3642" lon="2.7277">
        <ele>115.19999694824</ele>
        <time>2022-02-12T15:16:19Z</time>
      </trkpt>
      <trkpt lat="48.36419" lon="2.72778">
        <ele>115.59999847412</ele>
        <time>2022-02-12T15:16:24Z</time>
      </trkpt>
      <trkpt lat="48.36418" lon="2.72783">
        <ele>115.80000305176</ele>
        <time>2022-02-12T15:16:29Z</time>
      </trkpt>
      <trkpt lat="48.36417" lon="2.72789">
        <ele>116</ele>
        <time>2022-02-12T15:16:34Z</time>
      </trkpt>
      <trkpt lat="48.36417" lon="2.72795">
        <ele>116.19999694824</ele>
        <time>2022-02-12T15:16:39Z</time>
      </trkpt>
      <trkpt lat="48.36417" lon="2.72799">
        <ele>116.19999694824</ele>
        <time>2022-02-12T15:16:44Z</time>
      </trkpt>
      <trkpt lat="48.36418" lon="2.72803">
        <ele>116.19999694824</ele>
        <time>2022-02-12T15:16:49Z</time>
      </trkpt>
      <trkpt lat="48.36419" lon="2.72808">
        <ele>116.40000152588</ele>
        <time>2022-02-12T15:16:54Z</time>
      </trkpt>
      <trkpt lat="48.36418" lon="2.72811">
        <ele>116.40000152588</ele>
        <time>2022-02-12T15:16:59Z</time>
      </trkpt>
      <trkpt lat="48.36418" lon="2.72816">
        <ele>116.59999847412</ele>
        <time>2022-02-12T15:17:04Z</time>
      </trkpt>
      <trkpt lat="48.36417" lon="2.7282">
        <ele>116.80000305176</ele>
        <time>2022-02-12T15:17:09Z</time>
      </trkpt>
      <trkpt lat="48.36415" lon="2.72829">
        <ele>116.80000305176</ele>
        <time>2022-02-12T15:17:14Z</time>
      </trkpt>
      <trkpt lat="48.36413" lon="2.72838">
        <ele>116.80000305176</ele>
        <time>2022-02-12T15:17:19Z</time>
      </trkpt>
      <trkpt lat="48.36411" lon="2.72847">
        <ele>117</ele>
        <time>2022-02-12T15:17:24Z</time>
      </trkpt>
      <trkpt lat="48.3641" lon="2.72856">
        <ele>117</ele>
        <time>2022-02-12T15:17:29Z</time>
      </trkpt>
      <trkpt lat="48.36406" lon="2.72863">
        <ele>117</ele>
        <time>2022-02-12T15:17:34Z</time>
      </trkpt>
      <trkpt lat="48.36404" lon="2.72872">
        <ele>117</ele>
        <time>2022-02-12T15:17:39Z</time>
      </trkpt>
      <trkpt lat="48.36404" lon="2.7288">
        <ele>117</ele>
        <time>2022-02-12T15:17:44Z</time>
      </trkpt>
      <trkpt lat="48.36404" lon="2.72886">
        <ele>116.80000305176</ele>
        <time>2022-02-12T15:17:49Z</time>
      </trkpt>
      <trkpt lat="48.36403" lon="2.72889">
        <ele>116.80000305176</ele>
        <time>2022-02-12T15:17:54Z</time>
      </trkpt>
      <trkpt lat="48.36402" lon="2.72893">
        <ele>117</ele>
        <time>2022-02-12T15:17:59Z</time>
      </trkpt>
      <trkpt lat="48.364" lon="2.72902">
        <ele>117</ele>
        <time>2022-02-12T15:18:04Z</time>
      </trkpt>
      <trkpt lat="48.36399" lon="2.72907">
        <ele>117</ele>
        <time>2022-02-12T15:18:09Z</time>
      </trkpt>
      <trkpt lat="48.36396" lon="2.72919">
        <ele>117</ele>
        <time>2022-02-12T15:18:14Z</time>
      </trkpt>
      <trkpt lat="48.36396" lon="2.72931">
        <ele>117</ele>
        <time>2022-02-12T15:18:19Z</time>
      </trkpt>
      <trkpt lat="48.36396" lon="2.72938">
        <ele>117</ele>
        <time>2022-02-12T15:18:24Z</time>
      </trkpt>
      <trkpt lat="48.36392" lon="2.72949">
        <ele>117</ele>
        <time>2022-02-12T15:18:29Z</time>
      </trkpt>
      <trkpt lat="48.3639" lon="2.72957">
        <ele>117</ele>
        <time>2022-02-12T15:18:34Z</time>
      </trkpt>
      <trkpt lat="48.36389" lon="2.72966">
        <ele>117</ele>
        <time>2022-02-12T15:18:39Z</time>
      </trkpt>
      <trkpt lat="48.36388" lon="2.72974">
        <ele>117</ele>
        <time>2022-02-12T15:18:44Z</time>
      </trkpt>
      <trkpt lat="48.36388" lon="2.72982">
        <ele>117</ele>
        <time>2022-02-12T15:18:49Z</time>
      </trkpt>
      <trkpt lat="48.36389" lon="2.72987">
        <ele>117</ele>
        <time>2022-02-12T15:18:54Z</time>
      </trkpt>
      <trkpt lat="48.3639" lon="2.72994">
        <ele>117</ele>
        <time>2022-02-12T15:18:59Z</time>
      </trkpt>
      <trkpt lat="48.36389" lon="2.73002">
        <ele>117</ele>
        <time>2022-02-12T15:19:04Z</time>
      </trkpt>
      <trkpt lat="48.36389" lon="2.73007">
        <ele>117</ele>
        <time>2022-02-12T15:19:09Z</time>
      </trkpt>
      <trkpt lat="48.36387" lon="2.73014">
        <ele>117</ele>
        <time>2022-02-12T15:19:14Z</time>
      </trkpt>
      <trkpt lat="48.36385" lon="2.73025">
        <ele>117</ele>
        <time>2022-02-12T15:19:19Z</time>
      </trkpt>
      <trkpt lat="48.36384" lon="2.73033">
        <ele>117</ele>
        <time>2022-02-12T15:19:24Z</time>
      </trkpt>
      <trkpt lat="48.36385" lon="2.73041">
        <ele>117</ele>
        <time>2022-02-12T15:19:29Z</time>
      </trkpt>
      <trkpt lat="48.36386" lon="2.73047">
        <ele>117</ele>
        <time>2022-02-12T15:19:34Z</time>
      </trkpt>
      <trkpt lat="48.36387" lon="2.73056">
        <ele>117</ele>
        <time>2022-02-12T15:19:39Z</time>
      </trkpt>
      <trkpt lat="48.36387" lon="2.73061">
        <ele>117</ele>
        <time>2022-02-12T15:19:44Z</time>
      </trkpt>
      <trkpt lat="48.36386" lon="2.73075">
        <ele>117</ele>
        <time>2022-02-12T15:19:49Z</time>
      </trkpt>
      <trkpt lat="48.36383" lon="2.73085">
        <ele>117</ele>
        <time>2022-02-12T15:19:54Z</time>
      </trkpt>
      <trkpt lat="48.36382" lon="2.73096">
        <ele>117</ele>
        <time>2022-02-12T15:19:59Z</time>
      </trkpt>
      <trkpt lat="48.36377" lon="2.73102">
        <ele>117</ele>
        <time>2022-02-12T15:20:04Z</time>
      </trkpt>
      <trkpt lat="48.36374" lon="2.73109">
        <ele>117</ele>
        <time>2022-02-12T15:20:09Z</time>
      </trkpt>
      <trkpt lat="48.36373" lon="2.73117">
        <ele>117</ele>
        <time>2022-02-12T15:20:14Z</time>
      </trkpt>
      <trkpt lat="48.36374" lon="2.73126">
        <ele>117</ele>
        <time>2022-02-12T15:20:19Z</time>
      </trkpt>
      <trkpt lat="48.36376" lon="2.73134">
        <ele>117</ele>
        <time>2022-02-12T15:20:24Z</time>
      </trkpt>
      <trkpt lat="48.36379" lon="2.73138">
        <ele>117</ele>
        <time>2022-02-12T15:20:29Z</time>
      </trkpt>
      <trkpt lat="48.36379" lon="2.73141">
        <ele>117</ele>
        <time>2022-02-12T15:20:34Z</time>
      </trkpt>
      <trkpt lat="48.36379" lon="2.73151">
        <ele>117</ele>
        <time>2022-02-12T15:20:39Z</time>
      </trkpt>
      <trkpt lat="48.36379" lon="2.7316">
        <ele>117</ele>
        <time>2022-02-12T15:20:44Z</time>
      </trkpt>
      <trkpt lat="48.36378" lon="2.73164">
        <ele>117</ele>
        <time>2022-02-12T15:20:49Z</time>
      </trkpt>
      <trkpt lat="48.36375" lon="2.73175">
        <ele>117</ele>
        <time>2022-02-12T15:20:54Z</time>
      </trkpt>
      <trkpt lat="48.36375" lon="2.73187">
        <ele>117</ele>
        <time>2022-02-12T15:20:59Z</time>
      </trkpt>
      <trkpt lat="48.36372" lon="2.73197">
        <ele>117</ele>
        <time>2022-02-12T15:21:04Z</time>
      </trkpt>
      <trkpt lat="48.36369" lon="2.73204">
        <ele>117</ele>
        <time>2022-02-12T15:21:09Z</time>
      </trkpt>
      <trkpt lat="48.36369" lon="2.73211">
        <ele>117</ele>
        <time>2022-02-12T15:21:14Z</time>
      </trkpt>
      <trkpt lat="48.36367" lon="2.73219">
        <ele>117</ele>
        <time>2022-02-12T15:21:19Z</time>
      </trkpt>
      <trkpt lat="48.36364" lon="2.73228">
        <ele>117</ele>
        <time>2022-02-12T15:21:24Z</time>
      </trkpt>
      <trkpt lat="48.36362" lon="2.73232">
        <ele>117</ele>
        <time>2022-02-12T15:21:29Z</time>
      </trkpt>
      <trkpt lat="48.36363" lon="2.73241">
        <ele>117</ele>
        <time>2022-02-12T15:21:34Z</time>
      </trkpt>
      <trkpt lat="48.36362" lon="2.73249">
        <ele>117</ele>
        <time>2022-02-12T15:21:39Z</time>
      </trkpt>
      <trkpt lat="48.36362" lon="2.73256">
        <ele>117</ele>
        <time>2022-02-12T15:21:44Z</time>
      </trkpt>
      <trkpt lat="48.36362" lon="2.73263">
        <ele>117</ele>
        <time>2022-02-12T15:21:49Z</time>
      </trkpt>
      <trkpt lat="48.36361" lon="2.73272">
        <ele>117</ele>
        <time>2022-02-12T15:21:54Z</time>
      </trkpt>
      <trkpt lat="48.36361" lon="2.73281">
        <ele>117</ele>
        <time>2022-02-12T15:21:59Z</time>
      </trkpt>
      <trkpt lat="48.36361" lon="2.73289">
        <ele>117</ele>
        <time>2022-02-12T15:22:04Z</time>
      </trkpt>
      <trkpt lat="48.36356" lon="2.73296">
        <ele>117</ele>
        <time>2022-02-12T15:22:09Z</time>
      </trkpt>
      <trkpt lat="48.36359" lon="2.73304">
        <ele>117</ele>
        <time>2022-02-12T15:22:14Z</time>
      </trkpt>
      <trkpt lat="48.36361" lon="2.73311">
        <ele>117</ele>
        <time>2022-02-12T15:22:19Z</time>
      </trkpt>
      <trkpt lat="48.36361" lon="2.7332">
        <ele>117</ele>
        <time>2022-02-12T15:22:24Z</time>
      </trkpt>
      <trkpt lat="48.36354" lon="2.73329">
        <ele>117</ele>
        <time>2022-02-12T15:22:29Z</time>
      </trkpt>
      <trkpt lat="48.36351" lon="2.73338">
        <ele>117.80000305176</ele>
        <time>2022-02-12T15:22:34Z</time>
      </trkpt>
      <trkpt lat="48.36354" lon="2.7335">
        <ele>119.19999694824</ele>
        <time>2022-02-12T15:22:39Z</time>
      </trkpt>
      <trkpt lat="48.36355" lon="2.7336">
        <ele>119.19999694824</ele>
        <time>2022-02-12T15:22:44Z</time>
      </trkpt>
      <trkpt lat="48.36356" lon="2.73367">
        <ele>119.19999694824</ele>
        <time>2022-02-12T15:22:49Z</time>
      </trkpt>
      <trkpt lat="48.36359" lon="2.73378">
        <ele>119.40000152588</ele>
        <time>2022-02-12T15:22:54Z</time>
      </trkpt>
      <trkpt lat="48.36358" lon="2.73388">
        <ele>119.40000152588</ele>
        <time>2022-02-12T15:22:59Z</time>
      </trkpt>
      <trkpt lat="48.36355" lon="2.73393">
        <ele>119.19999694824</ele>
        <time>2022-02-12T15:23:04Z</time>
      </trkpt>
      <trkpt lat="48.36354" lon="2.73395">
        <ele>119</ele>
        <time>2022-02-12T15:23:09Z</time>
      </trkpt>
      <trkpt lat="48.36351" lon="2.73404">
        <ele>119.19999694824</ele>
        <time>2022-02-12T15:23:14Z</time>
      </trkpt>
      <trkpt lat="48.36351" lon="2.73412">
        <ele>119.19999694824</ele>
        <time>2022-02-12T15:23:19Z</time>
      </trkpt>
      <trkpt lat="48.36349" lon="2.73422">
        <ele>119.19999694824</ele>
        <time>2022-02-12T15:23:24Z</time>
      </trkpt>
      <trkpt lat="48.36347" lon="2.73431">
        <ele>119.40000152588</ele>
        <time>2022-02-12T15:23:29Z</time>
      </trkpt>
      <trkpt lat="48.36347" lon="2.73439">
        <ele>119.40000152588</ele>
        <time>2022-02-12T15:23:34Z</time>
      </trkpt>
      <trkpt lat="48.36349" lon="2.73447">
        <ele>119.40000152588</ele>
        <time>2022-02-12T15:23:39Z</time>
      </trkpt>
      <trkpt lat="48.3635" lon="2.73456">
        <ele>119.40000152588</ele>
        <time>2022-02-12T15:23:44Z</time>
      </trkpt>
      <trkpt lat="48.36348" lon="2.73465">
        <ele>119.59999847412</ele>
        <time>2022-02-12T15:23:49Z</time>
      </trkpt>
      <trkpt lat="48.36345" lon="2.73475">
        <ele>119.59999847412</ele>
        <time>2022-02-12T15:23:54Z</time>
      </trkpt>
      <trkpt lat="48.36342" lon="2.73481">
        <ele>119.59999847412</ele>
        <time>2022-02-12T15:23:59Z</time>
      </trkpt>
      <trkpt lat="48.36342" lon="2.73485">
        <ele>119.59999847412</ele>
        <time>2022-02-12T15:24:04Z</time>
      </trkpt>
      <trkpt lat="48.36343" lon="2.73488">
        <ele>119.59999847412</ele>
        <time>2022-02-12T15:24:09Z</time>
      </trkpt>
      <trkpt lat="48.3634" lon="2.735">
        <ele>119.59999847412</ele>
        <time>2022-02-12T15:24:14Z</time>
      </trkpt>
      <trkpt lat="48.36338" lon="2.73512">
        <ele>119.59999847412</ele>
        <time>2022-02-12T15:24:19Z</time>
      </trkpt>
      <trkpt lat="48.36338" lon="2.73522">
        <ele>119.59999847412</ele>
        <time>2022-02-12T15:24:24Z</time>
      </trkpt>
      <trkpt lat="48.36337" lon="2.73531">
        <ele>119.59999847412</ele>
        <time>2022-02-12T15:24:29Z</time>
      </trkpt>
      <trkpt lat="48.36339" lon="2.73541">
        <ele>119.59999847412</ele>
        <time>2022-02-12T15:24:34Z</time>
      </trkpt>
      <trkpt lat="48.36337" lon="2.7355">
        <ele>119.59999847412</ele>
        <time>2022-02-12T15:24:39Z</time>
      </trkpt>
      <trkpt lat="48.36333" lon="2.73556">
        <ele>119.59999847412</ele>
        <time>2022-02-12T15:24:44Z</time>
      </trkpt>
      <trkpt lat="48.36334" lon="2.73562">
        <ele>119.59999847412</ele>
        <time>2022-02-12T15:24:49Z</time>
      </trkpt>
      <trkpt lat="48.36332" lon="2.73571">
        <ele>119.59999847412</ele>
        <time>2022-02-12T15:24:54Z</time>
      </trkpt>
      <trkpt lat="48.36332" lon="2.73578">
        <ele>119.59999847412</ele>
        <time>2022-02-12T15:24:59Z</time>
      </trkpt>
      <trkpt lat="48.36332" lon="2.73585">
        <ele>119.59999847412</ele>
        <time>2022-02-12T15:25:04Z</time>
      </trkpt>
      <trkpt lat="48.36332" lon="2.7359">
        <ele>119.59999847412</ele>
        <time>2022-02-12T15:25:09Z</time>
      </trkpt>
      <trkpt lat="48.36332" lon="2.73596">
        <ele>119.59999847412</ele>
        <time>2022-02-12T15:25:14Z</time>
      </trkpt>
      <trkpt lat="48.36331" lon="2.73606">
        <ele>119.59999847412</ele>
        <time>2022-02-12T15:25:19Z</time>
      </trkpt>
      <trkpt lat="48.36332" lon="2.73618">
        <ele>119.59999847412</ele>
        <time>2022-02-12T15:25:24Z</time>
      </trkpt>
      <trkpt lat="48.36332" lon="2.73624">
        <ele>119.59999847412</ele>
        <time>2022-02-12T15:25:29Z</time>
      </trkpt>
      <trkpt lat="48.36329" lon="2.73632">
        <ele>119.59999847412</ele>
        <time>2022-02-12T15:25:34Z</time>
      </trkpt>
      <trkpt lat="48.36329" lon="2.7364">
        <ele>119.59999847412</ele>
        <time>2022-02-12T15:25:39Z</time>
      </trkpt>
      <trkpt lat="48.36328" lon="2.73646">
        <ele>119.59999847412</ele>
        <time>2022-02-12T15:25:44Z</time>
      </trkpt>
      <trkpt lat="48.36327" lon="2.73649">
        <ele>119.59999847412</ele>
        <time>2022-02-12T15:25:49Z</time>
      </trkpt>
      <trkpt lat="48.36326" lon="2.73656">
        <ele>119.59999847412</ele>
        <time>2022-02-12T15:25:54Z</time>
      </trkpt>
      <trkpt lat="48.36324" lon="2.73666">
        <ele>119.59999847412</ele>
        <time>2022-02-12T15:25:59Z</time>
      </trkpt>
      <trkpt lat="48.36324" lon="2.73673">
        <ele>119.59999847412</ele>
        <time>2022-02-12T15:26:04Z</time>
      </trkpt>
      <trkpt lat="48.36324" lon="2.73681">
        <ele>119.59999847412</ele>
        <time>2022-02-12T15:26:09Z</time>
      </trkpt>
      <trkpt lat="48.36323" lon="2.73691">
        <ele>119.59999847412</ele>
        <time>2022-02-12T15:26:14Z</time>
      </trkpt>
      <trkpt lat="48.36323" lon="2.73699">
        <ele>119.59999847412</ele>
        <time>2022-02-12T15:26:19Z</time>
      </trkpt>
      <trkpt lat="48.36324" lon="2.73702">
        <ele>119.59999847412</ele>
        <time>2022-02-12T15:26:24Z</time>
      </trkpt>
      <trkpt lat="48.36324" lon="2.73704">
        <ele>119.59999847412</ele>
        <time>2022-02-12T15:26:29Z</time>
      </trkpt>
      <trkpt lat="48.36324" lon="2.73708">
        <ele>119.59999847412</ele>
        <time>2022-02-12T15:26:34Z</time>
      </trkpt>
      <trkpt lat="48.36324" lon="2.73712">
        <ele>119.59999847412</ele>
        <time>2022-02-12T15:26:39Z</time>
      </trkpt>
      <trkpt lat="48.36323" lon="2.73722">
        <ele>119.59999847412</ele>
        <time>2022-02-12T15:26:44Z</time>
      </trkpt>
      <trkpt lat="48.36324" lon="2.73722">
        <ele>120.19999694824</ele>
        <time>2022-02-12T15:26:49Z</time>
      </trkpt>
      <trkpt lat="48.36323" lon="2.73723">
        <ele>120.40000152588</ele>
        <time>2022-02-12T15:26:54Z</time>
      </trkpt>
      <trkpt lat="48.36321" lon="2.73724">
        <ele>120.40000152588</ele>
        <time>2022-02-12T15:26:59Z</time>
      </trkpt>
      <trkpt lat="48.36322" lon="2.73725">
        <ele>120.40000152588</ele>
        <time>2022-02-12T15:27:04Z</time>
      </trkpt>
      <trkpt lat="48.36322" lon="2.73723">
        <ele>120.59999847412</ele>
        <time>2022-02-12T15:27:09Z</time>
      </trkpt>
      <trkpt lat="48.36324" lon="2.73719">
        <ele>120.59999847412</ele>
        <time>2022-02-12T15:27:14Z</time>
      </trkpt>
      <trkpt lat="48.36326" lon="2.73714">
        <ele>120.59999847412</ele>
        <time>2022-02-12T15:27:19Z</time>
      </trkpt>
      <trkpt lat="48.36328" lon="2.73715">
        <ele>120.59999847412</ele>
        <time>2022-02-12T15:27:24Z</time>
      </trkpt>
      <trkpt lat="48.36328" lon="2.73719">
        <ele>120.19999694824</ele>
        <time>2022-02-12T15:27:29Z</time>
      </trkpt>
      <trkpt lat="48.36325" lon="2.73724">
        <ele>120.59999847412</ele>
        <time>2022-02-12T15:27:34Z</time>
      </trkpt>
      <trkpt lat="48.36327" lon="2.73726">
        <ele>120.59999847412</ele>
        <time>2022-02-12T15:27:39Z</time>
      </trkpt>
      <trkpt lat="48.36332" lon="2.73726">
        <ele>120.59999847412</ele>
        <time>2022-02-12T15:27:44Z</time>
      </trkpt>
      <trkpt lat="48.36333" lon="2.73725">
        <ele>120.40000152588</ele>
        <time>2022-02-12T15:27:49Z</time>
      </trkpt>
      <trkpt lat="48.36335" lon="2.73725">
        <ele>120.40000152588</ele>
        <time>2022-02-12T15:27:54Z</time>
      </trkpt>
      <trkpt lat="48.36335" lon="2.73726">
        <ele>120.40000152588</ele>
        <time>2022-02-12T15:27:59Z</time>
      </trkpt>
      <trkpt lat="48.36333" lon="2.73731">
        <ele>120.40000152588</ele>
        <time>2022-02-12T15:28:04Z</time>
      </trkpt>
      <trkpt lat="48.3633" lon="2.73735">
        <ele>120.59999847412</ele>
        <time>2022-02-12T15:28:09Z</time>
      </trkpt>
      <trkpt lat="48.36329" lon="2.73741">
        <ele>121</ele>
        <time>2022-02-12T15:28:14Z</time>
      </trkpt>
      <trkpt lat="48.36329" lon="2.73745">
        <ele>120.80000305176</ele>
        <time>2022-02-12T15:28:19Z</time>
      </trkpt>
      <trkpt lat="48.36329" lon="2.7375">
        <ele>121</ele>
        <time>2022-02-12T15:28:24Z</time>
      </trkpt>
      <trkpt lat="48.3633" lon="2.73755">
        <ele>121</ele>
        <time>2022-02-12T15:28:29Z</time>
      </trkpt>
      <trkpt lat="48.36331" lon="2.7376">
        <ele>121</ele>
        <time>2022-02-12T15:28:34Z</time>
      </trkpt>
      <trkpt lat="48.36332" lon="2.73767">
        <ele>121</ele>
        <time>2022-02-12T15:28:39Z</time>
      </trkpt>
      <trkpt lat="48.36332" lon="2.73772">
        <ele>121</ele>
        <time>2022-02-12T15:28:44Z</time>
      </trkpt>
      <trkpt lat="48.36331" lon="2.73779">
        <ele>121.19999694824</ele>
        <time>2022-02-12T15:28:49Z</time>
      </trkpt>
      <trkpt lat="48.36329" lon="2.73786">
        <ele>121.19999694824</ele>
        <time>2022-02-12T15:28:54Z</time>
      </trkpt>
      <trkpt lat="48.36328" lon="2.73795">
        <ele>121.19999694824</ele>
        <time>2022-02-12T15:28:59Z</time>
      </trkpt>
      <trkpt lat="48.36328" lon="2.73803">
        <ele>121.40000152588</ele>
        <time>2022-02-12T15:29:04Z</time>
      </trkpt>
      <trkpt lat="48.36328" lon="2.73806">
        <ele>121.40000152588</ele>
        <time>2022-02-12T15:29:09Z</time>
      </trkpt>
      <trkpt lat="48.36328" lon="2.73809">
        <ele>121.40000152588</ele>
        <time>2022-02-12T15:29:14Z</time>
      </trkpt>
      <trkpt lat="48.36323" lon="2.73818">
        <ele>121.59999847412</ele>
        <time>2022-02-12T15:29:19Z</time>
      </trkpt>
      <trkpt lat="48.36323" lon="2.73828">
        <ele>121.59999847412</ele>
        <time>2022-02-12T15:29:24Z</time>
      </trkpt>
      <trkpt lat="48.36324" lon="2.73834">
        <ele>121.59999847412</ele>
        <time>2022-02-12T15:29:29Z</time>
      </trkpt>
      <trkpt lat="48.36327" lon="2.73843">
        <ele>121.59999847412</ele>
        <time>2022-02-12T15:29:34Z</time>
      </trkpt>
      <trkpt lat="48.36328" lon="2.73848">
        <ele>121.80000305176</ele>
        <time>2022-02-12T15:29:39Z</time>
      </trkpt>
      <trkpt lat="48.36328" lon="2.7385">
        <ele>121.80000305176</ele>
        <time>2022-02-12T15:29:44Z</time>
      </trkpt>
      <trkpt lat="48.36326" lon="2.73855">
        <ele>121.80000305176</ele>
        <time>2022-02-12T15:29:49Z</time>
      </trkpt>
      <trkpt lat="48.36324" lon="2.73863">
        <ele>122</ele>
        <time>2022-02-12T15:29:54Z</time>
      </trkpt>
      <trkpt lat="48.36324" lon="2.73875">
        <ele>122</ele>
        <time>2022-02-12T15:29:59Z</time>
      </trkpt>
      <trkpt lat="48.36321" lon="2.73881">
        <ele>122</ele>
        <time>2022-02-12T15:30:04Z</time>
      </trkpt>
      <trkpt lat="48.36319" lon="2.73888">
        <ele>122.19999694824</ele>
        <time>2022-02-12T15:30:09Z</time>
      </trkpt>
      <trkpt lat="48.36319" lon="2.73898">
        <ele>122.19999694824</ele>
        <time>2022-02-12T15:30:14Z</time>
      </trkpt>
      <trkpt lat="48.36316" lon="2.73906">
        <ele>122.40000152588</ele>
        <time>2022-02-12T15:30:19Z</time>
      </trkpt>
      <trkpt lat="48.36317" lon="2.73912">
        <ele>122.40000152588</ele>
        <time>2022-02-12T15:30:24Z</time>
      </trkpt>
      <trkpt lat="48.3632" lon="2.73922">
        <ele>122.59999847412</ele>
        <time>2022-02-12T15:30:29Z</time>
      </trkpt>
      <trkpt lat="48.36321" lon="2.73928">
        <ele>122.59999847412</ele>
        <time>2022-02-12T15:30:34Z</time>
      </trkpt>
      <trkpt lat="48.36322" lon="2.73935">
        <ele>122.59999847412</ele>
        <time>2022-02-12T15:30:39Z</time>
      </trkpt>
      <trkpt lat="48.36321" lon="2.73944">
        <ele>122.59999847412</ele>
        <time>2022-02-12T15:30:44Z</time>
      </trkpt>
      <trkpt lat="48.36322" lon="2.73952">
        <ele>122.80000305176</ele>
        <time>2022-02-12T15:30:49Z</time>
      </trkpt>
      <trkpt lat="48.36325" lon="2.73961">
        <ele>122.80000305176</ele>
        <time>2022-02-12T15:30:54Z</time>
      </trkpt>
      <trkpt lat="48.36324" lon="2.7397">
        <ele>123</ele>
        <time>2022-02-12T15:30:59Z</time>
      </trkpt>
      <trkpt lat="48.36319" lon="2.73977">
        <ele>123</ele>
        <time>2022-02-12T15:31:04Z</time>
      </trkpt>
      <trkpt lat="48.36318" lon="2.73984">
        <ele>123.19999694824</ele>
        <time>2022-02-12T15:31:09Z</time>
      </trkpt>
      <trkpt lat="48.36321" lon="2.73992">
        <ele>123.19999694824</ele>
        <time>2022-02-12T15:31:14Z</time>
      </trkpt>
      <trkpt lat="48.36324" lon="2.74">
        <ele>123.40000152588</ele>
        <time>2022-02-12T15:31:19Z</time>
      </trkpt>
      <trkpt lat="48.36327" lon="2.74012">
        <ele>123.40000152588</ele>
        <time>2022-02-12T15:31:24Z</time>
      </trkpt>
      <trkpt lat="48.36329" lon="2.74023">
        <ele>123.59999847412</ele>
        <time>2022-02-12T15:31:29Z</time>
      </trkpt>
      <trkpt lat="48.3633" lon="2.74031">
        <ele>123.59999847412</ele>
        <time>2022-02-12T15:31:34Z</time>
      </trkpt>
      <trkpt lat="48.36327" lon="2.74042">
        <ele>123.59999847412</ele>
        <time>2022-02-12T15:31:39Z</time>
      </trkpt>
      <trkpt lat="48.36325" lon="2.74046">
        <ele>123.59999847412</ele>
        <time>2022-02-12T15:31:44Z</time>
      </trkpt>
      <trkpt lat="48.36321" lon="2.74054">
        <ele>123.80000305176</ele>
        <time>2022-02-12T15:31:49Z</time>
      </trkpt>
      <trkpt lat="48.36323" lon="2.74061">
        <ele>123.80000305176</ele>
        <time>2022-02-12T15:31:54Z</time>
      </trkpt>
      <trkpt lat="48.36325" lon="2.74071">
        <ele>124</ele>
        <time>2022-02-12T15:31:59Z</time>
      </trkpt>
      <trkpt lat="48.36325" lon="2.74075">
        <ele>124.40000152588</ele>
        <time>2022-02-12T15:32:04Z</time>
      </trkpt>
      <trkpt lat="48.3632" lon="2.74086">
        <ele>124.59999847412</ele>
        <time>2022-02-12T15:32:09Z</time>
      </trkpt>
      <trkpt lat="48.36318" lon="2.74096">
        <ele>124.59999847412</ele>
        <time>2022-02-12T15:32:14Z</time>
      </trkpt>
      <trkpt lat="48.36315" lon="2.74102">
        <ele>124.59999847412</ele>
        <time>2022-02-12T15:32:19Z</time>
      </trkpt>
      <trkpt lat="48.36314" lon="2.74108">
        <ele>124.80000305176</ele>
        <time>2022-02-12T15:32:24Z</time>
      </trkpt>
      <trkpt lat="48.36314" lon="2.74116">
        <ele>124.80000305176</ele>
        <time>2022-02-12T15:32:29Z</time>
      </trkpt>
      <trkpt lat="48.36313" lon="2.74121">
        <ele>124.80000305176</ele>
        <time>2022-02-12T15:32:34Z</time>
      </trkpt>
      <trkpt lat="48.36313" lon="2.74129">
        <ele>125</ele>
        <time>2022-02-12T15:32:39Z</time>
      </trkpt>
      <trkpt lat="48.36313" lon="2.74138">
        <ele>125</ele>
        <time>2022-02-12T15:32:44Z</time>
      </trkpt>
      <trkpt lat="48.36316" lon="2.74151">
        <ele>125.19999694824</ele>
        <time>2022-02-12T15:32:49Z</time>
      </trkpt>
      <trkpt lat="48.36316" lon="2.74158">
        <ele>125.40000152588</ele>
        <time>2022-02-12T15:32:54Z</time>
      </trkpt>
      <trkpt lat="48.36315" lon="2.74163">
        <ele>125.40000152588</ele>
        <time>2022-02-12T15:32:59Z</time>
      </trkpt>
      <trkpt lat="48.3631" lon="2.74169">
        <ele>125.40000152588</ele>
        <time>2022-02-12T15:33:04Z</time>
      </trkpt>
      <trkpt lat="48.36309" lon="2.74173">
        <ele>125.59999847412</ele>
        <time>2022-02-12T15:33:09Z</time>
      </trkpt>
      <trkpt lat="48.36308" lon="2.74182">
        <ele>125.80000305176</ele>
        <time>2022-02-12T15:33:14Z</time>
      </trkpt>
      <trkpt lat="48.36308" lon="2.7419">
        <ele>126</ele>
        <time>2022-02-12T15:33:19Z</time>
      </trkpt>
      <trkpt lat="48.36306" lon="2.74199">
        <ele>126.19999694824</ele>
        <time>2022-02-12T15:33:24Z</time>
      </trkpt>
      <trkpt lat="48.36307" lon="2.7421">
        <ele>126.19999694824</ele>
        <time>2022-02-12T15:33:29Z</time>
      </trkpt>
      <trkpt lat="48.36308" lon="2.74219">
        <ele>126.19999694824</ele>
        <time>2022-02-12T15:33:34Z</time>
      </trkpt>
      <trkpt lat="48.36308" lon="2.74227">
        <ele>126.40000152588</ele>
        <time>2022-02-12T15:33:39Z</time>
      </trkpt>
      <trkpt lat="48.36311" lon="2.74236">
        <ele>126.40000152588</ele>
        <time>2022-02-12T15:33:44Z</time>
      </trkpt>
      <trkpt lat="48.36311" lon="2.74244">
        <ele>126.59999847412</ele>
        <time>2022-02-12T15:33:49Z</time>
      </trkpt>
      <trkpt lat="48.3631" lon="2.74252">
        <ele>126.80000305176</ele>
        <time>2022-02-12T15:33:54Z</time>
      </trkpt>
      <trkpt lat="48.36312" lon="2.74258">
        <ele>126.80000305176</ele>
        <time>2022-02-12T15:33:59Z</time>
      </trkpt>
      <trkpt lat="48.36311" lon="2.74265">
        <ele>127</ele>
        <time>2022-02-12T15:34:04Z</time>
      </trkpt>
      <trkpt lat="48.36312" lon="2.74274">
        <ele>127.19999694824</ele>
        <time>2022-02-12T15:34:09Z</time>
      </trkpt>
      <trkpt lat="48.36312" lon="2.7428">
        <ele>127.19999694824</ele>
        <time>2022-02-12T15:34:14Z</time>
      </trkpt>
      <trkpt lat="48.36313" lon="2.74286">
        <ele>127.40000152588</ele>
        <time>2022-02-12T15:34:19Z</time>
      </trkpt>
      <trkpt lat="48.36315" lon="2.74294">
        <ele>127.40000152588</ele>
        <time>2022-02-12T15:34:24Z</time>
      </trkpt>
      <trkpt lat="48.36315" lon="2.743">
        <ele>127.59999847412</ele>
        <time>2022-02-12T15:34:29Z</time>
      </trkpt>
      <trkpt lat="48.36314" lon="2.74309">
        <ele>127.80000305176</ele>
        <time>2022-02-12T15:34:34Z</time>
      </trkpt>
      <trkpt lat="48.36312" lon="2.74316">
        <ele>127.80000305176</ele>
        <time>2022-02-12T15:34:39Z</time>
      </trkpt>
      <trkpt lat="48.36313" lon="2.74324">
        <ele>128</ele>
        <time>2022-02-12T15:34:44Z</time>
      </trkpt>
      <trkpt lat="48.36313" lon="2.74335">
        <ele>128.19999694824</ele>
        <time>2022-02-12T15:34:49Z</time>
      </trkpt>
      <trkpt lat="48.36313" lon="2.74347">
        <ele>128.39999389648</ele>
        <time>2022-02-12T15:34:54Z</time>
      </trkpt>
      <trkpt lat="48.36317" lon="2.74355">
        <ele>128.80000305176</ele>
        <time>2022-02-12T15:34:59Z</time>
      </trkpt>
      <trkpt lat="48.3632" lon="2.7436">
        <ele>128.80000305176</ele>
        <time>2022-02-12T15:35:04Z</time>
      </trkpt>
      <trkpt lat="48.36319" lon="2.74369">
        <ele>129</ele>
        <time>2022-02-12T15:35:09Z</time>
      </trkpt>
      <trkpt lat="48.36319" lon="2.74376">
        <ele>129.19999694824</ele>
        <time>2022-02-12T15:35:14Z</time>
      </trkpt>
      <trkpt lat="48.36317" lon="2.74383">
        <ele>129.60000610352</ele>
        <time>2022-02-12T15:35:19Z</time>
      </trkpt>
      <trkpt lat="48.36318" lon="2.7439">
        <ele>129.80000305176</ele>
        <time>2022-02-12T15:35:24Z</time>
      </trkpt>
      <trkpt lat="48.36319" lon="2.74398">
        <ele>129.80000305176</ele>
        <time>2022-02-12T15:35:29Z</time>
      </trkpt>
      <trkpt lat="48.36319" lon="2.74406">
        <ele>130.19999694824</ele>
        <time>2022-02-12T15:35:34Z</time>
      </trkpt>
      <trkpt lat="48.36319" lon="2.74413">
        <ele>130.19999694824</ele>
        <time>2022-02-12T15:35:39Z</time>
      </trkpt>
      <trkpt lat="48.36316" lon="2.7442">
        <ele>130.39999389648</ele>
        <time>2022-02-12T15:35:44Z</time>
      </trkpt>
      <trkpt lat="48.36315" lon="2.74429">
        <ele>130.60000610352</ele>
        <time>2022-02-12T15:35:49Z</time>
      </trkpt>
      <trkpt lat="48.36317" lon="2.74438">
        <ele>130.80000305176</ele>
        <time>2022-02-12T15:35:54Z</time>
      </trkpt>
      <trkpt lat="48.36318" lon="2.74447">
        <ele>131</ele>
        <time>2022-02-12T15:35:59Z</time>
      </trkpt>
      <trkpt lat="48.36317" lon="2.74454">
        <ele>131.19999694824</ele>
        <time>2022-02-12T15:36:04Z</time>
      </trkpt>
      <trkpt lat="48.36317" lon="2.74464">
        <ele>131.60000610352</ele>
        <time>2022-02-12T15:36:09Z</time>
      </trkpt>
      <trkpt lat="48.36321" lon="2.74472">
        <ele>131.80000305176</ele>
        <time>2022-02-12T15:36:14Z</time>
      </trkpt>
      <trkpt lat="48.36323" lon="2.74479">
        <ele>132</ele>
        <time>2022-02-12T15:36:19Z</time>
      </trkpt>
      <trkpt lat="48.36323" lon="2.74487">
        <ele>132.60000610352</ele>
        <time>2022-02-12T15:36:24Z</time>
      </trkpt>
      <trkpt lat="48.36324" lon="2.74496">
        <ele>132.60000610352</ele>
        <time>2022-02-12T15:36:29Z</time>
      </trkpt>
      <trkpt lat="48.36323" lon="2.74504">
        <ele>132.80000305176</ele>
        <time>2022-02-12T15:36:34Z</time>
      </trkpt>
      <trkpt lat="48.36322" lon="2.74515">
        <ele>133</ele>
        <time>2022-02-12T15:36:39Z</time>
      </trkpt>
      <trkpt lat="48.3632" lon="2.74524">
        <ele>133.19999694824</ele>
        <time>2022-02-12T15:36:44Z</time>
      </trkpt>
      <trkpt lat="48.36319" lon="2.74531">
        <ele>133.80000305176</ele>
        <time>2022-02-12T15:36:49Z</time>
      </trkpt>
      <trkpt lat="48.36315" lon="2.74536">
        <ele>133.80000305176</ele>
        <time>2022-02-12T15:36:54Z</time>
      </trkpt>
      <trkpt lat="48.36312" lon="2.74543">
        <ele>134</ele>
        <time>2022-02-12T15:36:59Z</time>
      </trkpt>
      <trkpt lat="48.36309" lon="2.74546">
        <ele>134.19999694824</ele>
        <time>2022-02-12T15:37:04Z</time>
      </trkpt>
      <trkpt lat="48.36305" lon="2.7455">
        <ele>134.39999389648</ele>
        <time>2022-02-12T15:37:09Z</time>
      </trkpt>
      <trkpt lat="48.363" lon="2.74555">
        <ele>134.60000610352</ele>
        <time>2022-02-12T15:37:14Z</time>
      </trkpt>
      <trkpt lat="48.36297" lon="2.74559">
        <ele>134.60000610352</ele>
        <time>2022-02-12T15:37:19Z</time>
      </trkpt>
      <trkpt lat="48.36293" lon="2.74563">
        <ele>134.80000305176</ele>
        <time>2022-02-12T15:37:24Z</time>
      </trkpt>
      <trkpt lat="48.36288" lon="2.74566">
        <ele>135</ele>
        <time>2022-02-12T15:37:29Z</time>
      </trkpt>
      <trkpt lat="48.36286" lon="2.74571">
        <ele>135.60000610352</ele>
        <time>2022-02-12T15:37:34Z</time>
      </trkpt>
      <trkpt lat="48.36282" lon="2.74578">
        <ele>135.80000305176</ele>
        <time>2022-02-12T15:37:39Z</time>
      </trkpt>
      <trkpt lat="48.36275" lon="2.74581">
        <ele>136</ele>
        <time>2022-02-12T15:37:44Z</time>
      </trkpt>
      <trkpt lat="48.36269" lon="2.74587">
        <ele>136</ele>
        <time>2022-02-12T15:37:49Z</time>
      </trkpt>
      <trkpt lat="48.36264" lon="2.74594">
        <ele>136.39999389648</ele>
        <time>2022-02-12T15:37:54Z</time>
      </trkpt>
      <trkpt lat="48.3626" lon="2.74597">
        <ele>136.80000305176</ele>
        <time>2022-02-12T15:37:59Z</time>
      </trkpt>
      <trkpt lat="48.36259" lon="2.74599">
        <ele>137.39999389648</ele>
        <time>2022-02-12T15:38:04Z</time>
      </trkpt>
      <trkpt lat="48.36256" lon="2.74604">
        <ele>137.80000305176</ele>
        <time>2022-02-12T15:38:09Z</time>
      </trkpt>
      <trkpt lat="48.36253" lon="2.74607">
        <ele>138.19999694824</ele>
        <time>2022-02-12T15:38:14Z</time>
      </trkpt>
      <trkpt lat="48.36246" lon="2.74612">
        <ele>138.60000610352</ele>
        <time>2022-02-12T15:38:19Z</time>
      </trkpt>
      <trkpt lat="48.36242" lon="2.74615">
        <ele>139.19999694824</ele>
        <time>2022-02-12T15:38:24Z</time>
      </trkpt>
      <trkpt lat="48.36237" lon="2.74616">
        <ele>139.60000610352</ele>
        <time>2022-02-12T15:38:29Z</time>
      </trkpt>
      <trkpt lat="48.36234" lon="2.74618">
        <ele>140.19999694824</ele>
        <time>2022-02-12T15:38:34Z</time>
      </trkpt>
      <trkpt lat="48.36226" lon="2.74623">
        <ele>140.60000610352</ele>
        <time>2022-02-12T15:38:39Z</time>
      </trkpt>
      <trkpt lat="48.36224" lon="2.74626">
        <ele>141.19999694824</ele>
        <time>2022-02-12T15:38:44Z</time>
      </trkpt>
      <trkpt lat="48.36222" lon="2.74631">
        <ele>141.80000305176</ele>
        <time>2022-02-12T15:38:49Z</time>
      </trkpt>
      <trkpt lat="48.36218" lon="2.74635">
        <ele>142.39999389648</ele>
        <time>2022-02-12T15:38:54Z</time>
      </trkpt>
      <trkpt lat="48.36217" lon="2.74639">
        <ele>143.19999694824</ele>
        <time>2022-02-12T15:38:59Z</time>
      </trkpt>
      <trkpt lat="48.36217" lon="2.74642">
        <ele>143.80000305176</ele>
        <time>2022-02-12T15:39:04Z</time>
      </trkpt>
      <trkpt lat="48.36217" lon="2.74644">
        <ele>144.60000610352</ele>
        <time>2022-02-12T15:39:09Z</time>
      </trkpt>
      <trkpt lat="48.36217" lon="2.74646">
        <ele>145.39999389648</ele>
        <time>2022-02-12T15:39:14Z</time>
      </trkpt>
      <trkpt lat="48.36214" lon="2.74649">
        <ele>146</ele>
        <time>2022-02-12T15:39:19Z</time>
      </trkpt>
      <trkpt lat="48.36213" lon="2.74656">
        <ele>146.80000305176</ele>
        <time>2022-02-12T15:39:24Z</time>
      </trkpt>
      <trkpt lat="48.36221" lon="2.74665">
        <ele>147.19999694824</ele>
        <time>2022-02-12T15:39:29Z</time>
      </trkpt>
      <trkpt lat="48.36228" lon="2.74678">
        <ele>147.60000610352</ele>
        <time>2022-02-12T15:39:34Z</time>
      </trkpt>
      <trkpt lat="48.3623" lon="2.74691">
        <ele>148.60000610352</ele>
        <time>2022-02-12T15:39:39Z</time>
      </trkpt>
      <trkpt lat="48.36227" lon="2.74702">
        <ele>149.39999389648</ele>
        <time>2022-02-12T15:39:44Z</time>
      </trkpt>
      <trkpt lat="48.36229" lon="2.74708">
        <ele>150</ele>
        <time>2022-02-12T15:39:49Z</time>
      </trkpt>
      <trkpt lat="48.36231" lon="2.74714">
        <ele>150.60000610352</ele>
        <time>2022-02-12T15:39:54Z</time>
      </trkpt>
      <trkpt lat="48.36236" lon="2.74716">
        <ele>151.19999694824</ele>
        <time>2022-02-12T15:39:59Z</time>
      </trkpt>
      <trkpt lat="48.36238" lon="2.74717">
        <ele>151.39999389648</ele>
        <time>2022-02-12T15:40:04Z</time>
      </trkpt>
      <trkpt lat="48.36241" lon="2.74721">
        <ele>151.80000305176</ele>
        <time>2022-02-12T15:40:09Z</time>
      </trkpt>
      <trkpt lat="48.36242" lon="2.74725">
        <ele>152.19999694824</ele>
        <time>2022-02-12T15:40:14Z</time>
      </trkpt>
      <trkpt lat="48.36241" lon="2.74729">
        <ele>152.39999389648</ele>
        <time>2022-02-12T15:40:19Z</time>
      </trkpt>
      <trkpt lat="48.36238" lon="2.7474">
        <ele>152.80000305176</ele>
        <time>2022-02-12T15:40:24Z</time>
      </trkpt>
      <trkpt lat="48.36236" lon="2.74748">
        <ele>153.19999694824</ele>
        <time>2022-02-12T15:40:29Z</time>
      </trkpt>
      <trkpt lat="48.36236" lon="2.7475">
        <ele>153.39999389648</ele>
        <time>2022-02-12T15:40:34Z</time>
      </trkpt>
      <trkpt lat="48.36235" lon="2.74751">
        <ele>153.60000610352</ele>
        <time>2022-02-12T15:40:39Z</time>
      </trkpt>
      <trkpt lat="48.36231" lon="2.74753">
        <ele>153.80000305176</ele>
        <time>2022-02-12T15:40:44Z</time>
      </trkpt>
      <trkpt lat="48.36223" lon="2.74758">
        <ele>154.60000610352</ele>
        <time>2022-02-12T15:40:49Z</time>
      </trkpt>
      <trkpt lat="48.36221" lon="2.74758">
        <ele>155</ele>
        <time>2022-02-12T15:40:54Z</time>
      </trkpt>
      <trkpt lat="48.36222" lon="2.74757">
        <ele>155.60000610352</ele>
        <time>2022-02-12T15:40:59Z</time>
      </trkpt>
      <trkpt lat="48.36222" lon="2.74761">
        <ele>155.60000610352</ele>
        <time>2022-02-12T15:41:04Z</time>
      </trkpt>
      <trkpt lat="48.36221" lon="2.74761">
        <ele>155.39999389648</ele>
        <time>2022-02-12T15:41:09Z</time>
      </trkpt>
      <trkpt lat="48.36219" lon="2.74762">
        <ele>155.39999389648</ele>
        <time>2022-02-12T15:41:14Z</time>
      </trkpt>
      <trkpt lat="48.36218" lon="2.74763">
        <ele>155.60000610352</ele>
        <time>2022-02-12T15:41:19Z</time>
      </trkpt>
      <trkpt lat="48.36216" lon="2.74765">
        <ele>155.80000305176</ele>
        <time>2022-02-12T15:41:24Z</time>
      </trkpt>
      <trkpt lat="48.36214" lon="2.74767">
        <ele>156</ele>
        <time>2022-02-12T15:41:29Z</time>
      </trkpt>
      <trkpt lat="48.36213" lon="2.74767">
        <ele>156.60000610352</ele>
        <time>2022-02-12T15:41:34Z</time>
      </trkpt>
      <trkpt lat="48.36213" lon="2.74768">
        <ele>157.39999389648</ele>
        <time>2022-02-12T15:41:39Z</time>
      </trkpt>
      <trkpt lat="48.36213" lon="2.74769">
        <ele>157.80000305176</ele>
        <time>2022-02-12T15:41:44Z</time>
      </trkpt>
      <trkpt lat="48.36209" lon="2.74769">
        <ele>158.19999694824</ele>
        <time>2022-02-12T15:41:49Z</time>
      </trkpt>
      <trkpt lat="48.36204" lon="2.74769">
        <ele>158.80000305176</ele>
        <time>2022-02-12T15:41:54Z</time>
      </trkpt>
      <trkpt lat="48.36198" lon="2.74766">
        <ele>159</ele>
        <time>2022-02-12T15:41:59Z</time>
      </trkpt>
      <trkpt lat="48.36197" lon="2.74763">
        <ele>159.60000610352</ele>
        <time>2022-02-12T15:42:04Z</time>
      </trkpt>
      <trkpt lat="48.36193" lon="2.74758">
        <ele>160.19999694824</ele>
        <time>2022-02-12T15:42:09Z</time>
      </trkpt>
      <trkpt lat="48.36188" lon="2.7475">
        <ele>160.60000610352</ele>
        <time>2022-02-12T15:42:14Z</time>
      </trkpt>
      <trkpt lat="48.36184" lon="2.74741">
        <ele>161</ele>
        <time>2022-02-12T15:42:19Z</time>
      </trkpt>
      <trkpt lat="48.36181" lon="2.74735">
        <ele>161.19999694824</ele>
        <time>2022-02-12T15:42:24Z</time>
      </trkpt>
      <trkpt lat="48.36176" lon="2.74731">
        <ele>161.39999389648</ele>
        <time>2022-02-12T15:42:29Z</time>
      </trkpt>
      <trkpt lat="48.36171" lon="2.74729">
        <ele>161.60000610352</ele>
        <time>2022-02-12T15:42:34Z</time>
      </trkpt>
      <trkpt lat="48.36166" lon="2.74728">
        <ele>161.80000305176</ele>
        <time>2022-02-12T15:42:39Z</time>
      </trkpt>
      <trkpt lat="48.36162" lon="2.74725">
        <ele>161.80000305176</ele>
        <time>2022-02-12T15:42:44Z</time>
      </trkpt>
      <trkpt lat="48.36162" lon="2.74721">
        <ele>162.19999694824</ele>
        <time>2022-02-12T15:42:49Z</time>
      </trkpt>
      <trkpt lat="48.36162" lon="2.7472">
        <ele>162.19999694824</ele>
        <time>2022-02-12T15:42:54Z</time>
      </trkpt>
      <trkpt lat="48.36161" lon="2.74717">
        <ele>162.19999694824</ele>
        <time>2022-02-12T15:42:59Z</time>
      </trkpt>
      <trkpt lat="48.36162" lon="2.74715">
        <ele>162.19999694824</ele>
        <time>2022-02-12T15:43:04Z</time>
      </trkpt>
      <trkpt lat="48.36163" lon="2.74712">
        <ele>162.19999694824</ele>
        <time>2022-02-12T15:43:09Z</time>
      </trkpt>
      <trkpt lat="48.36163" lon="2.7471">
        <ele>162.19999694824</ele>
        <time>2022-02-12T15:43:14Z</time>
      </trkpt>
      <trkpt lat="48.36163" lon="2.74708">
        <ele>162.19999694824</ele>
        <time>2022-02-12T15:43:19Z</time>
      </trkpt>
      <trkpt lat="48.36161" lon="2.74706">
        <ele>162.19999694824</ele>
        <time>2022-02-12T15:43:24Z</time>
      </trkpt>
      <trkpt lat="48.36162" lon="2.74707">
        <ele>162.19999694824</ele>
        <time>2022-02-12T15:43:29Z</time>
      </trkpt>
      <trkpt lat="48.36161" lon="2.74708">
        <ele>162.19999694824</ele>
        <time>2022-02-12T15:43:34Z</time>
      </trkpt>
      <trkpt lat="48.3616" lon="2.74709">
        <ele>162.39999389648</ele>
        <time>2022-02-12T15:43:39Z</time>
      </trkpt>
      <trkpt lat="48.3616" lon="2.74709">
        <ele>162.39999389648</ele>
        <time>2022-02-12T15:43:44Z</time>
      </trkpt>
      <trkpt lat="48.36155" lon="2.74707">
        <ele>162.60000610352</ele>
        <time>2022-02-12T15:43:49Z</time>
      </trkpt>
      <trkpt lat="48.36152" lon="2.74708">
        <ele>162.80000305176</ele>
        <time>2022-02-12T15:43:54Z</time>
      </trkpt>
      <trkpt lat="48.36153" lon="2.74709">
        <ele>163.19999694824</ele>
        <time>2022-02-12T15:43:59Z</time>
      </trkpt>
      <trkpt lat="48.36151" lon="2.74713">
        <ele>163.39999389648</ele>
        <time>2022-02-12T15:44:04Z</time>
      </trkpt>
      <trkpt lat="48.36153" lon="2.74716">
        <ele>163.60000610352</ele>
        <time>2022-02-12T15:44:09Z</time>
      </trkpt>
      <trkpt lat="48.36153" lon="2.7472">
        <ele>163.80000305176</ele>
        <time>2022-02-12T15:44:14Z</time>
      </trkpt>
      <trkpt lat="48.36155" lon="2.74727">
        <ele>164</ele>
        <time>2022-02-12T15:44:19Z</time>
      </trkpt>
      <trkpt lat="48.36155" lon="2.7473">
        <ele>164</ele>
        <time>2022-02-12T15:44:24Z</time>
      </trkpt>
      <trkpt lat="48.36156" lon="2.74733">
        <ele>164.19999694824</ele>
        <time>2022-02-12T15:44:29Z</time>
      </trkpt>
      <trkpt lat="48.36157" lon="2.74737">
        <ele>164.19999694824</ele>
        <time>2022-02-12T15:44:34Z</time>
      </trkpt>
      <trkpt lat="48.3616" lon="2.74743">
        <ele>164.19999694824</ele>
        <time>2022-02-12T15:44:39Z</time>
      </trkpt>
      <trkpt lat="48.36162" lon="2.74748">
        <ele>164.39999389648</ele>
        <time>2022-02-12T15:44:44Z</time>
      </trkpt>
      <trkpt lat="48.36161" lon="2.74754">
        <ele>164.39999389648</ele>
        <time>2022-02-12T15:44:49Z</time>
      </trkpt>
      <trkpt lat="48.36158" lon="2.74765">
        <ele>164.39999389648</ele>
        <time>2022-02-12T15:44:54Z</time>
      </trkpt>
      <trkpt lat="48.36163" lon="2.74774">
        <ele>164.39999389648</ele>
        <time>2022-02-12T15:44:59Z</time>
      </trkpt>
      <trkpt lat="48.36161" lon="2.74784">
        <ele>164.39999389648</ele>
        <time>2022-02-12T15:45:04Z</time>
      </trkpt>
      <trkpt lat="48.36159" lon="2.74793">
        <ele>164.39999389648</ele>
        <time>2022-02-12T15:45:09Z</time>
      </trkpt>
      <trkpt lat="48.36159" lon="2.74801">
        <ele>164.19999694824</ele>
        <time>2022-02-12T15:45:14Z</time>
      </trkpt>
      <trkpt lat="48.36159" lon="2.74808">
        <ele>164.39999389648</ele>
        <time>2022-02-12T15:45:19Z</time>
      </trkpt>
      <trkpt lat="48.36159" lon="2.74819">
        <ele>164.39999389648</ele>
        <time>2022-02-12T15:45:24Z</time>
      </trkpt>
      <trkpt lat="48.36158" lon="2.74828">
        <ele>164.39999389648</ele>
        <time>2022-02-12T15:45:29Z</time>
      </trkpt>
      <trkpt lat="48.36162" lon="2.74834">
        <ele>164.60000610352</ele>
        <time>2022-02-12T15:45:34Z</time>
      </trkpt>
      <trkpt lat="48.36159" lon="2.74845">
        <ele>164.60000610352</ele>
        <time>2022-02-12T15:45:39Z</time>
      </trkpt>
      <trkpt lat="48.3616" lon="2.74854">
        <ele>164.60000610352</ele>
        <time>2022-02-12T15:45:44Z</time>
      </trkpt>
      <trkpt lat="48.3616" lon="2.74863">
        <ele>164.60000610352</ele>
        <time>2022-02-12T15:45:49Z</time>
      </trkpt>
      <trkpt lat="48.36163" lon="2.74871">
        <ele>164.60000610352</ele>
        <time>2022-02-12T15:45:54Z</time>
      </trkpt>
      <trkpt lat="48.36165" lon="2.74877">
        <ele>164.39999389648</ele>
        <time>2022-02-12T15:45:59Z</time>
      </trkpt>
      <trkpt lat="48.36167" lon="2.74884">
        <ele>164.39999389648</ele>
        <time>2022-02-12T15:46:04Z</time>
      </trkpt>
      <trkpt lat="48.36172" lon="2.74894">
        <ele>164.39999389648</ele>
        <time>2022-02-12T15:46:09Z</time>
      </trkpt>
      <trkpt lat="48.36173" lon="2.74905">
        <ele>164.39999389648</ele>
        <time>2022-02-12T15:46:14Z</time>
      </trkpt>
      <trkpt lat="48.36174" lon="2.74914">
        <ele>164.39999389648</ele>
        <time>2022-02-12T15:46:19Z</time>
      </trkpt>
      <trkpt lat="48.36176" lon="2.74923">
        <ele>164.19999694824</ele>
        <time>2022-02-12T15:46:24Z</time>
      </trkpt>
      <trkpt lat="48.36175" lon="2.74935">
        <ele>164.19999694824</ele>
        <time>2022-02-12T15:46:29Z</time>
      </trkpt>
      <trkpt lat="48.36173" lon="2.74947">
        <ele>164.19999694824</ele>
        <time>2022-02-12T15:46:34Z</time>
      </trkpt>
      <trkpt lat="48.36173" lon="2.74955">
        <ele>164.19999694824</ele>
        <time>2022-02-12T15:46:39Z</time>
      </trkpt>
      <trkpt lat="48.36173" lon="2.7496">
        <ele>164.19999694824</ele>
        <time>2022-02-12T15:46:44Z</time>
      </trkpt>
      <trkpt lat="48.36172" lon="2.74964">
        <ele>164.19999694824</ele>
        <time>2022-02-12T15:46:49Z</time>
      </trkpt>
      <trkpt lat="48.36174" lon="2.74976">
        <ele>164.19999694824</ele>
        <time>2022-02-12T15:46:54Z</time>
      </trkpt>
      <trkpt lat="48.36169" lon="2.74989">
        <ele>164.19999694824</ele>
        <time>2022-02-12T15:46:59Z</time>
      </trkpt>
      <trkpt lat="48.36164" lon="2.74994">
        <ele>164.19999694824</ele>
        <time>2022-02-12T15:47:04Z</time>
      </trkpt>
      <trkpt lat="48.36159" lon="2.75001">
        <ele>164.19999694824</ele>
        <time>2022-02-12T15:47:09Z</time>
      </trkpt>
      <trkpt lat="48.36155" lon="2.75008">
        <ele>164.39999389648</ele>
        <time>2022-02-12T15:47:14Z</time>
      </trkpt>
      <trkpt lat="48.36151" lon="2.75012">
        <ele>164.60000610352</ele>
        <time>2022-02-12T15:47:19Z</time>
      </trkpt>
      <trkpt lat="48.36147" lon="2.75016">
        <ele>164.60000610352</ele>
        <time>2022-02-12T15:47:24Z</time>
      </trkpt>
      <trkpt lat="48.36145" lon="2.75019">
        <ele>164.80000305176</ele>
        <time>2022-02-12T15:47:29Z</time>
      </trkpt>
      <trkpt lat="48.3614" lon="2.75022">
        <ele>164.80000305176</ele>
        <time>2022-02-12T15:47:34Z</time>
      </trkpt>
      <trkpt lat="48.36136" lon="2.75026">
        <ele>164.80000305176</ele>
        <time>2022-02-12T15:47:39Z</time>
      </trkpt>
      <trkpt lat="48.36133" lon="2.75033">
        <ele>164.80000305176</ele>
        <time>2022-02-12T15:47:44Z</time>
      </trkpt>
      <trkpt lat="48.36132" lon="2.7504">
        <ele>164.80000305176</ele>
        <time>2022-02-12T15:47:49Z</time>
      </trkpt>
      <trkpt lat="48.3613" lon="2.75049">
        <ele>164.60000610352</ele>
        <time>2022-02-12T15:47:54Z</time>
      </trkpt>
      <trkpt lat="48.36127" lon="2.75056">
        <ele>164.60000610352</ele>
        <time>2022-02-12T15:47:59Z</time>
      </trkpt>
      <trkpt lat="48.36124" lon="2.75065">
        <ele>164.60000610352</ele>
        <time>2022-02-12T15:48:04Z</time>
      </trkpt>
      <trkpt lat="48.36125" lon="2.75072">
        <ele>164.60000610352</ele>
        <time>2022-02-12T15:48:09Z</time>
      </trkpt>
      <trkpt lat="48.36125" lon="2.75078">
        <ele>164.60000610352</ele>
        <time>2022-02-12T15:48:14Z</time>
      </trkpt>
      <trkpt lat="48.36125" lon="2.75088">
        <ele>164.60000610352</ele>
        <time>2022-02-12T15:48:19Z</time>
      </trkpt>
      <trkpt lat="48.36123" lon="2.75099">
        <ele>164.60000610352</ele>
        <time>2022-02-12T15:48:24Z</time>
      </trkpt>
      <trkpt lat="48.36119" lon="2.75109">
        <ele>164.80000305176</ele>
        <time>2022-02-12T15:48:29Z</time>
      </trkpt>
      <trkpt lat="48.36118" lon="2.75117">
        <ele>164.80000305176</ele>
        <time>2022-02-12T15:48:34Z</time>
      </trkpt>
      <trkpt lat="48.36117" lon="2.75122">
        <ele>165</ele>
        <time>2022-02-12T15:48:39Z</time>
      </trkpt>
      <trkpt lat="48.36115" lon="2.75128">
        <ele>165</ele>
        <time>2022-02-12T15:48:44Z</time>
      </trkpt>
      <trkpt lat="48.36115" lon="2.75135">
        <ele>165.19999694824</ele>
        <time>2022-02-12T15:48:49Z</time>
      </trkpt>
      <trkpt lat="48.36115" lon="2.75143">
        <ele>165.19999694824</ele>
        <time>2022-02-12T15:48:54Z</time>
      </trkpt>
      <trkpt lat="48.36115" lon="2.75152">
        <ele>165.19999694824</ele>
        <time>2022-02-12T15:48:59Z</time>
      </trkpt>
      <trkpt lat="48.36113" lon="2.7516">
        <ele>165.19999694824</ele>
        <time>2022-02-12T15:49:04Z</time>
      </trkpt>
      <trkpt lat="48.36112" lon="2.75168">
        <ele>165.19999694824</ele>
        <time>2022-02-12T15:49:09Z</time>
      </trkpt>
      <trkpt lat="48.36111" lon="2.75177">
        <ele>165.19999694824</ele>
        <time>2022-02-12T15:49:14Z</time>
      </trkpt>
      <trkpt lat="48.36112" lon="2.75186">
        <ele>165.19999694824</ele>
        <time>2022-02-12T15:49:19Z</time>
      </trkpt>
      <trkpt lat="48.36109" lon="2.75192">
        <ele>165.19999694824</ele>
        <time>2022-02-12T15:49:24Z</time>
      </trkpt>
      <trkpt lat="48.36108" lon="2.75199">
        <ele>165.19999694824</ele>
        <time>2022-02-12T15:49:29Z</time>
      </trkpt>
      <trkpt lat="48.36105" lon="2.75203">
        <ele>165.19999694824</ele>
        <time>2022-02-12T15:49:34Z</time>
      </trkpt>
      <trkpt lat="48.36101" lon="2.75206">
        <ele>165.19999694824</ele>
        <time>2022-02-12T15:49:39Z</time>
      </trkpt>
      <trkpt lat="48.36098" lon="2.75204">
        <ele>165.19999694824</ele>
        <time>2022-02-12T15:49:44Z</time>
      </trkpt>
      <trkpt lat="48.36094" lon="2.75204">
        <ele>165.19999694824</ele>
        <time>2022-02-12T15:49:49Z</time>
      </trkpt>
      <trkpt lat="48.36087" lon="2.75204">
        <ele>165.19999694824</ele>
        <time>2022-02-12T15:49:54Z</time>
      </trkpt>
      <trkpt lat="48.3608" lon="2.75208">
        <ele>165.19999694824</ele>
        <time>2022-02-12T15:49:59Z</time>
      </trkpt>
      <trkpt lat="48.36078" lon="2.7521">
        <ele>165.80000305176</ele>
        <time>2022-02-12T15:50:04Z</time>
      </trkpt>
      <trkpt lat="48.36077" lon="2.75215">
        <ele>165.80000305176</ele>
        <time>2022-02-12T15:50:09Z</time>
      </trkpt>
      <trkpt lat="48.36073" lon="2.7522">
        <ele>165.60000610352</ele>
        <time>2022-02-12T15:50:14Z</time>
      </trkpt>
      <trkpt lat="48.36072" lon="2.75224">
        <ele>165.80000305176</ele>
        <time>2022-02-12T15:50:19Z</time>
      </trkpt>
      <trkpt lat="48.36071" lon="2.75228">
        <ele>165.80000305176</ele>
        <time>2022-02-12T15:50:24Z</time>
      </trkpt>
      <trkpt lat="48.36071" lon="2.75234">
        <ele>165.80000305176</ele>
        <time>2022-02-12T15:50:29Z</time>
      </trkpt>
      <trkpt lat="48.3607" lon="2.75239">
        <ele>165.60000610352</ele>
        <time>2022-02-12T15:50:34Z</time>
      </trkpt>
      <trkpt lat="48.36069" lon="2.75245">
        <ele>165.39999389648</ele>
        <time>2022-02-12T15:50:39Z</time>
      </trkpt>
      <trkpt lat="48.36071" lon="2.75249">
        <ele>165.39999389648</ele>
        <time>2022-02-12T15:50:44Z</time>
      </trkpt>
      <trkpt lat="48.36074" lon="2.75254">
        <ele>165.39999389648</ele>
        <time>2022-02-12T15:50:49Z</time>
      </trkpt>
      <trkpt lat="48.36078" lon="2.75258">
        <ele>165.19999694824</ele>
        <time>2022-02-12T15:50:54Z</time>
      </trkpt>
      <trkpt lat="48.36083" lon="2.75263">
        <ele>165</ele>
        <time>2022-02-12T15:50:59Z</time>
      </trkpt>
      <trkpt lat="48.3609" lon="2.75264">
        <ele>164.80000305176</ele>
        <time>2022-02-12T15:51:04Z</time>
      </trkpt>
      <trkpt lat="48.36094" lon="2.75259">
        <ele>164.60000610352</ele>
        <time>2022-02-12T15:51:09Z</time>
      </trkpt>
      <trkpt lat="48.36099" lon="2.75256">
        <ele>164.80000305176</ele>
        <time>2022-02-12T15:51:14Z</time>
      </trkpt>
      <trkpt lat="48.36105" lon="2.75252">
        <ele>165</ele>
        <time>2022-02-12T15:51:19Z</time>
      </trkpt>
      <trkpt lat="48.36109" lon="2.75248">
        <ele>165</ele>
        <time>2022-02-12T15:51:24Z</time>
      </trkpt>
      <trkpt lat="48.36113" lon="2.75245">
        <ele>165.19999694824</ele>
        <time>2022-02-12T15:51:29Z</time>
      </trkpt>
      <trkpt lat="48.36117" lon="2.7524">
        <ele>165.19999694824</ele>
        <time>2022-02-12T15:51:34Z</time>
      </trkpt>
      <trkpt lat="48.36119" lon="2.75238">
        <ele>164.80000305176</ele>
        <time>2022-02-12T15:51:39Z</time>
      </trkpt>
      <trkpt lat="48.36118" lon="2.75239">
        <ele>164</ele>
        <time>2022-02-12T15:51:44Z</time>
      </trkpt>
      <trkpt lat="48.36117" lon="2.75239">
        <ele>163.39999389648</ele>
        <time>2022-02-12T15:51:49Z</time>
      </trkpt>
      <trkpt lat="48.36116" lon="2.7524">
        <ele>162.80000305176</ele>
        <time>2022-02-12T15:51:54Z</time>
      </trkpt>
      <trkpt lat="48.36117" lon="2.75245">
        <ele>162.19999694824</ele>
        <time>2022-02-12T15:51:59Z</time>
      </trkpt>
      <trkpt lat="48.36115" lon="2.75249">
        <ele>161.39999389648</ele>
        <time>2022-02-12T15:52:04Z</time>
      </trkpt>
      <trkpt lat="48.36117" lon="2.75253">
        <ele>160.39999389648</ele>
        <time>2022-02-12T15:52:09Z</time>
      </trkpt>
      <trkpt lat="48.36119" lon="2.75255">
        <ele>159.39999389648</ele>
        <time>2022-02-12T15:52:14Z</time>
      </trkpt>
      <trkpt lat="48.36122" lon="2.75258">
        <ele>158.39999389648</ele>
        <time>2022-02-12T15:52:19Z</time>
      </trkpt>
      <trkpt lat="48.36123" lon="2.75261">
        <ele>157.60000610352</ele>
        <time>2022-02-12T15:52:24Z</time>
      </trkpt>
      <trkpt lat="48.36123" lon="2.7527">
        <ele>156.60000610352</ele>
        <time>2022-02-12T15:52:29Z</time>
      </trkpt>
      <trkpt lat="48.36124" lon="2.75277">
        <ele>155.39999389648</ele>
        <time>2022-02-12T15:52:34Z</time>
      </trkpt>
      <trkpt lat="48.36125" lon="2.75282">
        <ele>154.39999389648</ele>
        <time>2022-02-12T15:52:39Z</time>
      </trkpt>
      <trkpt lat="48.36126" lon="2.75286">
        <ele>153.60000610352</ele>
        <time>2022-02-12T15:52:44Z</time>
      </trkpt>
      <trkpt lat="48.36126" lon="2.75291">
        <ele>152.60000610352</ele>
        <time>2022-02-12T15:52:49Z</time>
      </trkpt>
      <trkpt lat="48.36126" lon="2.75298">
        <ele>151.80000305176</ele>
        <time>2022-02-12T15:52:54Z</time>
      </trkpt>
      <trkpt lat="48.36128" lon="2.75305">
        <ele>150.80000305176</ele>
        <time>2022-02-12T15:52:59Z</time>
      </trkpt>
      <trkpt lat="48.36128" lon="2.75312">
        <ele>150.19999694824</ele>
        <time>2022-02-12T15:53:04Z</time>
      </trkpt>
      <trkpt lat="48.3613" lon="2.75319">
        <ele>149.39999389648</ele>
        <time>2022-02-12T15:53:09Z</time>
      </trkpt>
      <trkpt lat="48.36128" lon="2.75322">
        <ele>148.80000305176</ele>
        <time>2022-02-12T15:53:14Z</time>
      </trkpt>
      <trkpt lat="48.36129" lon="2.75324">
        <ele>148.19999694824</ele>
        <time>2022-02-12T15:53:19Z</time>
      </trkpt>
      <trkpt lat="48.3613" lon="2.75328">
        <ele>147.19999694824</ele>
        <time>2022-02-12T15:53:24Z</time>
      </trkpt>
      <trkpt lat="48.36131" lon="2.75336">
        <ele>146</ele>
        <time>2022-02-12T15:53:29Z</time>
      </trkpt>
      <trkpt lat="48.3613" lon="2.75342">
        <ele>144.80000305176</ele>
        <time>2022-02-12T15:53:34Z</time>
      </trkpt>
      <trkpt lat="48.36131" lon="2.75347">
        <ele>144</ele>
        <time>2022-02-12T15:53:39Z</time>
      </trkpt>
      <trkpt lat="48.36134" lon="2.75352">
        <ele>143.19999694824</ele>
        <time>2022-02-12T15:53:44Z</time>
      </trkpt>
      <trkpt lat="48.36137" lon="2.75357">
        <ele>142.39999389648</ele>
        <time>2022-02-12T15:53:49Z</time>
      </trkpt>
      <trkpt lat="48.36138" lon="2.75362">
        <ele>141.60000610352</ele>
        <time>2022-02-12T15:53:54Z</time>
      </trkpt>
      <trkpt lat="48.3614" lon="2.75365">
        <ele>140.80000305176</ele>
        <time>2022-02-12T15:53:59Z</time>
      </trkpt>
      <trkpt lat="48.36146" lon="2.75374">
        <ele>140.19999694824</ele>
        <time>2022-02-12T15:54:04Z</time>
      </trkpt>
      <trkpt lat="48.36153" lon="2.75383">
        <ele>139.60000610352</ele>
        <time>2022-02-12T15:54:09Z</time>
      </trkpt>
      <trkpt lat="48.36152" lon="2.75386">
        <ele>139</ele>
        <time>2022-02-12T15:54:14Z</time>
      </trkpt>
      <trkpt lat="48.36151" lon="2.75393">
        <ele>138</ele>
        <time>2022-02-12T15:54:19Z</time>
      </trkpt>
      <trkpt lat="48.36148" lon="2.754">
        <ele>137.39999389648</ele>
        <time>2022-02-12T15:54:24Z</time>
      </trkpt>
      <trkpt lat="48.3615" lon="2.75407">
        <ele>136.60000610352</ele>
        <time>2022-02-12T15:54:29Z</time>
      </trkpt>
      <trkpt lat="48.36152" lon="2.75411">
        <ele>135.60000610352</ele>
        <time>2022-02-12T15:54:34Z</time>
      </trkpt>
      <trkpt lat="48.36153" lon="2.75413">
        <ele>135</ele>
        <time>2022-02-12T15:54:39Z</time>
      </trkpt>
      <trkpt lat="48.36153" lon="2.75419">
        <ele>134.39999389648</ele>
        <time>2022-02-12T15:54:44Z</time>
      </trkpt>
      <trkpt lat="48.36158" lon="2.75425">
        <ele>133.60000610352</ele>
        <time>2022-02-12T15:54:49Z</time>
      </trkpt>
      <trkpt lat="48.36165" lon="2.75432">
        <ele>133</ele>
        <time>2022-02-12T15:54:54Z</time>
      </trkpt>
      <trkpt lat="48.36164" lon="2.75435">
        <ele>132.60000610352</ele>
        <time>2022-02-12T15:54:59Z</time>
      </trkpt>
      <trkpt lat="48.36163" lon="2.75438">
        <ele>132</ele>
        <time>2022-02-12T15:55:04Z</time>
      </trkpt>
      <trkpt lat="48.36164" lon="2.75442">
        <ele>131.80000305176</ele>
        <time>2022-02-12T15:55:09Z</time>
      </trkpt>
      <trkpt lat="48.36163" lon="2.75445">
        <ele>131.19999694824</ele>
        <time>2022-02-12T15:55:14Z</time>
      </trkpt>
      <trkpt lat="48.36163" lon="2.75454">
        <ele>130.80000305176</ele>
        <time>2022-02-12T15:55:19Z</time>
      </trkpt>
      <trkpt lat="48.36164" lon="2.7546">
        <ele>130.39999389648</ele>
        <time>2022-02-12T15:55:24Z</time>
      </trkpt>
      <trkpt lat="48.36164" lon="2.75461">
        <ele>129.80000305176</ele>
        <time>2022-02-12T15:55:29Z</time>
      </trkpt>
      <trkpt lat="48.36166" lon="2.75464">
        <ele>129.39999389648</ele>
        <time>2022-02-12T15:55:34Z</time>
      </trkpt>
      <trkpt lat="48.36167" lon="2.75468">
        <ele>129</ele>
        <time>2022-02-12T15:55:39Z</time>
      </trkpt>
      <trkpt lat="48.36168" lon="2.75476">
        <ele>128.60000610352</ele>
        <time>2022-02-12T15:55:44Z</time>
      </trkpt>
      <trkpt lat="48.3617" lon="2.7548">
        <ele>128.19999694824</ele>
        <time>2022-02-12T15:55:49Z</time>
      </trkpt>
      <trkpt lat="48.36171" lon="2.75484">
        <ele>128</ele>
        <time>2022-02-12T15:55:54Z</time>
      </trkpt>
      <trkpt lat="48.36173" lon="2.75492">
        <ele>127.80000305176</ele>
        <time>2022-02-12T15:55:59Z</time>
      </trkpt>
      <trkpt lat="48.36175" lon="2.755">
        <ele>127.40000152588</ele>
        <time>2022-02-12T15:56:04Z</time>
      </trkpt>
      <trkpt lat="48.36178" lon="2.75507">
        <ele>126.59999847412</ele>
        <time>2022-02-12T15:56:09Z</time>
      </trkpt>
      <trkpt lat="48.36179" lon="2.75512">
        <ele>126.40000152588</ele>
        <time>2022-02-12T15:56:14Z</time>
      </trkpt>
      <trkpt lat="48.36179" lon="2.75516">
        <ele>126</ele>
        <time>2022-02-12T15:56:19Z</time>
      </trkpt>
      <trkpt lat="48.36183" lon="2.75524">
        <ele>125.80000305176</ele>
        <time>2022-02-12T15:56:24Z</time>
      </trkpt>
      <trkpt lat="48.36185" lon="2.75534">
        <ele>125.59999847412</ele>
        <time>2022-02-12T15:56:29Z</time>
      </trkpt>
      <trkpt lat="48.36187" lon="2.75544">
        <ele>125.40000152588</ele>
        <time>2022-02-12T15:56:34Z</time>
      </trkpt>
      <trkpt lat="48.36192" lon="2.75554">
        <ele>125.19999694824</ele>
        <time>2022-02-12T15:56:39Z</time>
      </trkpt>
      <trkpt lat="48.36194" lon="2.75559">
        <ele>125.19999694824</ele>
        <time>2022-02-12T15:56:44Z</time>
      </trkpt>
      <trkpt lat="48.36196" lon="2.75562">
        <ele>125.19999694824</ele>
        <time>2022-02-12T15:56:49Z</time>
      </trkpt>
      <trkpt lat="48.36197" lon="2.75567">
        <ele>125.19999694824</ele>
        <time>2022-02-12T15:56:54Z</time>
      </trkpt>
      <trkpt lat="48.36197" lon="2.75573">
        <ele>125</ele>
        <time>2022-02-12T15:56:59Z</time>
      </trkpt>
      <trkpt lat="48.36197" lon="2.75576">
        <ele>125.19999694824</ele>
        <time>2022-02-12T15:57:04Z</time>
      </trkpt>
      <trkpt lat="48.36198" lon="2.75581">
        <ele>125.19999694824</ele>
        <time>2022-02-12T15:57:09Z</time>
      </trkpt>
      <trkpt lat="48.36198" lon="2.75584">
        <ele>125.19999694824</ele>
        <time>2022-02-12T15:57:14Z</time>
      </trkpt>
      <trkpt lat="48.36198" lon="2.75583">
        <ele>125</ele>
        <time>2022-02-12T15:57:19Z</time>
      </trkpt>
      <trkpt lat="48.36203" lon="2.75579">
        <ele>125</ele>
        <time>2022-02-12T15:57:24Z</time>
      </trkpt>
      <trkpt lat="48.36196" lon="2.75579">
        <ele>125</ele>
        <time>2022-02-12T15:57:29Z</time>
      </trkpt>
      <trkpt lat="48.36192" lon="2.75581">
        <ele>124.59999847412</ele>
        <time>2022-02-12T15:57:34Z</time>
      </trkpt>
      <trkpt lat="48.3619" lon="2.75583">
        <ele>124.59999847412</ele>
        <time>2022-02-12T15:57:39Z</time>
      </trkpt>
      <trkpt lat="48.36187" lon="2.75586">
        <ele>124.40000152588</ele>
        <time>2022-02-12T15:57:44Z</time>
      </trkpt>
      <trkpt lat="48.36182" lon="2.75591">
        <ele>124.40000152588</ele>
        <time>2022-02-12T15:57:49Z</time>
      </trkpt>
      <trkpt lat="48.36179" lon="2.75595">
        <ele>124.40000152588</ele>
        <time>2022-02-12T15:57:54Z</time>
      </trkpt>
      <trkpt lat="48.36178" lon="2.75598">
        <ele>124.40000152588</ele>
        <time>2022-02-12T15:57:59Z</time>
      </trkpt>
      <trkpt lat="48.36178" lon="2.756">
        <ele>124.19999694824</ele>
        <time>2022-02-12T15:58:04Z</time>
      </trkpt>
      <trkpt lat="48.36178" lon="2.75601">
        <ele>124.19999694824</ele>
        <time>2022-02-12T15:58:09Z</time>
      </trkpt>
      <trkpt lat="48.36177" lon="2.75602">
        <ele>124.19999694824</ele>
        <time>2022-02-12T15:58:14Z</time>
      </trkpt>
      <trkpt lat="48.36177" lon="2.75602">
        <ele>124.19999694824</ele>
        <time>2022-02-12T15:58:19Z</time>
      </trkpt>
      <trkpt lat="48.36179" lon="2.75602">
        <ele>124.19999694824</ele>
        <time>2022-02-12T15:58:24Z</time>
      </trkpt>
      <trkpt lat="48.36181" lon="2.75601">
        <ele>124.19999694824</ele>
        <time>2022-02-12T15:58:29Z</time>
      </trkpt>
      <trkpt lat="48.36183" lon="2.75602">
        <ele>124.19999694824</ele>
        <time>2022-02-12T15:58:34Z</time>
      </trkpt>
      <trkpt lat="48.36184" lon="2.75603">
        <ele>124</ele>
        <time>2022-02-12T15:58:39Z</time>
      </trkpt>
      <trkpt lat="48.36184" lon="2.75605">
        <ele>124.19999694824</ele>
        <time>2022-02-12T15:58:44Z</time>
      </trkpt>
      <trkpt lat="48.36184" lon="2.75605">
        <ele>124.19999694824</ele>
        <time>2022-02-12T15:58:49Z</time>
      </trkpt>
      <trkpt lat="48.3619" lon="2.75608">
        <ele>124.19999694824</ele>
        <time>2022-02-12T15:58:54Z</time>
      </trkpt>
      <trkpt lat="48.36193" lon="2.7561">
        <ele>124.59999847412</ele>
        <time>2022-02-12T15:58:59Z</time>
      </trkpt>
      <trkpt lat="48.36195" lon="2.75608">
        <ele>124.80000305176</ele>
        <time>2022-02-12T15:59:04Z</time>
      </trkpt>
      <trkpt lat="48.36197" lon="2.75607">
        <ele>125</ele>
        <time>2022-02-12T15:59:09Z</time>
      </trkpt>
      <trkpt lat="48.36199" lon="2.75608">
        <ele>125</ele>
        <time>2022-02-12T15:59:14Z</time>
      </trkpt>
      <trkpt lat="48.36199" lon="2.75608">
        <ele>125</ele>
        <time>2022-02-12T15:59:19Z</time>
      </trkpt>
      <trkpt lat="48.36199" lon="2.75607">
        <ele>124.80000305176</ele>
        <time>2022-02-12T15:59:24Z</time>
      </trkpt>
      <trkpt lat="48.36201" lon="2.75607">
        <ele>124.80000305176</ele>
        <time>2022-02-12T15:59:29Z</time>
      </trkpt>
      <trkpt lat="48.36203" lon="2.75606">
        <ele>125</ele>
        <time>2022-02-12T15:59:34Z</time>
      </trkpt>
      <trkpt lat="48.36202" lon="2.75604">
        <ele>125</ele>
        <time>2022-02-12T15:59:39Z</time>
      </trkpt>
      <trkpt lat="48.36201" lon="2.75603">
        <ele>125</ele>
        <time>2022-02-12T15:59:44Z</time>
      </trkpt>
      <trkpt lat="48.36198" lon="2.75601">
        <ele>125</ele>
        <time>2022-02-12T15:59:49Z</time>
      </trkpt>
      <trkpt lat="48.36199" lon="2.756">
        <ele>125</ele>
        <time>2022-02-12T15:59:54Z</time>
      </trkpt>
      <trkpt lat="48.362" lon="2.75599">
        <ele>124.80000305176</ele>
        <time>2022-02-12T15:59:59Z</time>
      </trkpt>
      <trkpt lat="48.36201" lon="2.75598">
        <ele>124.80000305176</ele>
        <time>2022-02-12T16:00:04Z</time>
      </trkpt>
      <trkpt lat="48.362" lon="2.75597">
        <ele>124.80000305176</ele>
        <time>2022-02-12T16:00:09Z</time>
      </trkpt>
      <trkpt lat="48.36201" lon="2.75596">
        <ele>124.80000305176</ele>
        <time>2022-02-12T16:00:14Z</time>
      </trkpt>
      <trkpt lat="48.36201" lon="2.75594">
        <ele>124.80000305176</ele>
        <time>2022-02-12T16:00:19Z</time>
      </trkpt>
      <trkpt lat="48.36204" lon="2.75594">
        <ele>124.80000305176</ele>
        <time>2022-02-12T16:00:24Z</time>
      </trkpt>
      <trkpt lat="48.36206" lon="2.75595">
        <ele>124.80000305176</ele>
        <time>2022-02-12T16:00:29Z</time>
      </trkpt>
      <trkpt lat="48.36206" lon="2.75596">
        <ele>124.80000305176</ele>
        <time>2022-02-12T16:00:34Z</time>
      </trkpt>
      <trkpt lat="48.36206" lon="2.75596">
        <ele>124.80000305176</ele>
        <time>2022-02-12T16:00:39Z</time>
      </trkpt>
      <trkpt lat="48.36199" lon="2.75603">
        <ele>124.80000305176</ele>
        <time>2022-02-12T16:00:44Z</time>
      </trkpt>
      <trkpt lat="48.36195" lon="2.75608">
        <ele>124.80000305176</ele>
        <time>2022-02-12T16:00:49Z</time>
      </trkpt>
      <trkpt lat="48.36191" lon="2.75611">
        <ele>124.80000305176</ele>
        <time>2022-02-12T16:00:54Z</time>
      </trkpt>
      <trkpt lat="48.36188" lon="2.75616">
        <ele>124.80000305176</ele>
        <time>2022-02-12T16:00:59Z</time>
      </trkpt>
      <trkpt lat="48.36185" lon="2.7562">
        <ele>124.80000305176</ele>
        <time>2022-02-12T16:01:04Z</time>
      </trkpt>
      <trkpt lat="48.36182" lon="2.75624">
        <ele>124.80000305176</ele>
        <time>2022-02-12T16:01:09Z</time>
      </trkpt>
      <trkpt lat="48.36179" lon="2.75628">
        <ele>124.80000305176</ele>
        <time>2022-02-12T16:01:14Z</time>
      </trkpt>
      <trkpt lat="48.36176" lon="2.75632">
        <ele>124.80000305176</ele>
        <time>2022-02-12T16:01:19Z</time>
      </trkpt>
      <trkpt lat="48.36174" lon="2.75634">
        <ele>124.80000305176</ele>
        <time>2022-02-12T16:01:24Z</time>
      </trkpt>
      <trkpt lat="48.36171" lon="2.75634">
        <ele>124.80000305176</ele>
        <time>2022-02-12T16:01:29Z</time>
      </trkpt>
      <trkpt lat="48.36164" lon="2.75637">
        <ele>124.80000305176</ele>
        <time>2022-02-12T16:01:34Z</time>
      </trkpt>
      <trkpt lat="48.36157" lon="2.75639">
        <ele>124.80000305176</ele>
        <time>2022-02-12T16:01:39Z</time>
      </trkpt>
      <trkpt lat="48.36153" lon="2.75643">
        <ele>124.80000305176</ele>
        <time>2022-02-12T16:01:44Z</time>
      </trkpt>
      <trkpt lat="48.36151" lon="2.75646">
        <ele>124.80000305176</ele>
        <time>2022-02-12T16:01:49Z</time>
      </trkpt>
      <trkpt lat="48.36144" lon="2.75651">
        <ele>124.80000305176</ele>
        <time>2022-02-12T16:01:54Z</time>
      </trkpt>
      <trkpt lat="48.36141" lon="2.75655">
        <ele>124.80000305176</ele>
        <time>2022-02-12T16:01:59Z</time>
      </trkpt>
      <trkpt lat="48.3614" lon="2.75656">
        <ele>124.80000305176</ele>
        <time>2022-02-12T16:02:04Z</time>
      </trkpt>
      <trkpt lat="48.36138" lon="2.75657">
        <ele>124.80000305176</ele>
        <time>2022-02-12T16:02:09Z</time>
      </trkpt>
      <trkpt lat="48.36135" lon="2.75663">
        <ele>124.80000305176</ele>
        <time>2022-02-12T16:02:14Z</time>
      </trkpt>
      <trkpt lat="48.36131" lon="2.75667">
        <ele>118.19999694824</ele>
        <time>2022-02-12T16:02:19Z</time>
      </trkpt>
      <trkpt lat="48.36129" lon="2.75669">
        <ele>117.59999847412</ele>
        <time>2022-02-12T16:02:24Z</time>
      </trkpt>
      <trkpt lat="48.36127" lon="2.75671">
        <ele>117.19999694824</ele>
        <time>2022-02-12T16:02:29Z</time>
      </trkpt>
      <trkpt lat="48.36121" lon="2.75676">
        <ele>116.80000305176</ele>
        <time>2022-02-12T16:02:34Z</time>
      </trkpt>
      <trkpt lat="48.3612" lon="2.75678">
        <ele>116.59999847412</ele>
        <time>2022-02-12T16:02:39Z</time>
      </trkpt>
      <trkpt lat="48.36118" lon="2.75682">
        <ele>116.40000152588</ele>
        <time>2022-02-12T16:02:44Z</time>
      </trkpt>
      <trkpt lat="48.36113" lon="2.75691">
        <ele>116</ele>
        <time>2022-02-12T16:02:49Z</time>
      </trkpt>
      <trkpt lat="48.36106" lon="2.75702">
        <ele>115.80000305176</ele>
        <time>2022-02-12T16:02:54Z</time>
      </trkpt>
      <trkpt lat="48.36104" lon="2.75706">
        <ele>115.59999847412</ele>
        <time>2022-02-12T16:02:59Z</time>
      </trkpt>
      <trkpt lat="48.36095" lon="2.75714">
        <ele>115.40000152588</ele>
        <time>2022-02-12T16:03:04Z</time>
      </trkpt>
      <trkpt lat="48.36089" lon="2.75716">
        <ele>115.40000152588</ele>
        <time>2022-02-12T16:03:09Z</time>
      </trkpt>
      <trkpt lat="48.36088" lon="2.75717">
        <ele>115.40000152588</ele>
        <time>2022-02-12T16:03:14Z</time>
      </trkpt>
      <trkpt lat="48.36085" lon="2.75722">
        <ele>115.40000152588</ele>
        <time>2022-02-12T16:03:19Z</time>
      </trkpt>
      <trkpt lat="48.36081" lon="2.75723">
        <ele>115.40000152588</ele>
        <time>2022-02-12T16:03:24Z</time>
      </trkpt>
      <trkpt lat="48.36073" lon="2.75727">
        <ele>115.40000152588</ele>
        <time>2022-02-12T16:03:29Z</time>
      </trkpt>
      <trkpt lat="48.36068" lon="2.75729">
        <ele>115.40000152588</ele>
        <time>2022-02-12T16:03:34Z</time>
      </trkpt>
      <trkpt lat="48.36064" lon="2.7573">
        <ele>115.40000152588</ele>
        <time>2022-02-12T16:03:39Z</time>
      </trkpt>
      <trkpt lat="48.36062" lon="2.75732">
        <ele>115.59999847412</ele>
        <time>2022-02-12T16:03:44Z</time>
      </trkpt>
      <trkpt lat="48.36062" lon="2.75734">
        <ele>115.59999847412</ele>
        <time>2022-02-12T16:03:49Z</time>
      </trkpt>
      <trkpt lat="48.36059" lon="2.75736">
        <ele>115.59999847412</ele>
        <time>2022-02-12T16:03:54Z</time>
      </trkpt>
      <trkpt lat="48.36051" lon="2.75745">
        <ele>115.59999847412</ele>
        <time>2022-02-12T16:03:59Z</time>
      </trkpt>
      <trkpt lat="48.36044" lon="2.75751">
        <ele>115.59999847412</ele>
        <time>2022-02-12T16:04:04Z</time>
      </trkpt>
      <trkpt lat="48.36039" lon="2.75757">
        <ele>115.80000305176</ele>
        <time>2022-02-12T16:04:09Z</time>
      </trkpt>
      <trkpt lat="48.36034" lon="2.75762">
        <ele>115.80000305176</ele>
        <time>2022-02-12T16:04:14Z</time>
      </trkpt>
      <trkpt lat="48.3603" lon="2.75768">
        <ele>115.80000305176</ele>
        <time>2022-02-12T16:04:19Z</time>
      </trkpt>
      <trkpt lat="48.36027" lon="2.75773">
        <ele>115.80000305176</ele>
        <time>2022-02-12T16:04:24Z</time>
      </trkpt>
      <trkpt lat="48.36022" lon="2.75781">
        <ele>115.80000305176</ele>
        <time>2022-02-12T16:04:29Z</time>
      </trkpt>
      <trkpt lat="48.36018" lon="2.75783">
        <ele>115.80000305176</ele>
        <time>2022-02-12T16:04:34Z</time>
      </trkpt>
      <trkpt lat="48.36013" lon="2.75786">
        <ele>115.80000305176</ele>
        <time>2022-02-12T16:04:39Z</time>
      </trkpt>
      <trkpt lat="48.36009" lon="2.75788">
        <ele>115.80000305176</ele>
        <time>2022-02-12T16:04:44Z</time>
      </trkpt>
      <trkpt lat="48.36003" lon="2.75792">
        <ele>115.80000305176</ele>
        <time>2022-02-12T16:04:49Z</time>
      </trkpt>
      <trkpt lat="48.35998" lon="2.75797">
        <ele>115.80000305176</ele>
        <time>2022-02-12T16:04:54Z</time>
      </trkpt>
      <trkpt lat="48.35995" lon="2.75798">
        <ele>115.80000305176</ele>
        <time>2022-02-12T16:04:59Z</time>
      </trkpt>
      <trkpt lat="48.35993" lon="2.75798">
        <ele>115.80000305176</ele>
        <time>2022-02-12T16:05:04Z</time>
      </trkpt>
      <trkpt lat="48.35985" lon="2.75807">
        <ele>115.80000305176</ele>
        <time>2022-02-12T16:05:09Z</time>
      </trkpt>
      <trkpt lat="48.3598" lon="2.75811">
        <ele>115.80000305176</ele>
        <time>2022-02-12T16:05:14Z</time>
      </trkpt>
      <trkpt lat="48.35975" lon="2.75815">
        <ele>115.80000305176</ele>
        <time>2022-02-12T16:05:19Z</time>
      </trkpt>
      <trkpt lat="48.35973" lon="2.75815">
        <ele>115.80000305176</ele>
        <time>2022-02-12T16:05:24Z</time>
      </trkpt>
      <trkpt lat="48.35971" lon="2.75818">
        <ele>115.80000305176</ele>
        <time>2022-02-12T16:05:29Z</time>
      </trkpt>
      <trkpt lat="48.35962" lon="2.75823">
        <ele>115.80000305176</ele>
        <time>2022-02-12T16:05:34Z</time>
      </trkpt>
      <trkpt lat="48.35956" lon="2.75827">
        <ele>115.80000305176</ele>
        <time>2022-02-12T16:05:39Z</time>
      </trkpt>
      <trkpt lat="48.35952" lon="2.75833">
        <ele>115.80000305176</ele>
        <time>2022-02-12T16:05:44Z</time>
      </trkpt>
      <trkpt lat="48.35947" lon="2.75838">
        <ele>115.80000305176</ele>
        <time>2022-02-12T16:05:49Z</time>
      </trkpt>
      <trkpt lat="48.35947" lon="2.75843">
        <ele>115.80000305176</ele>
        <time>2022-02-12T16:05:54Z</time>
      </trkpt>
      <trkpt lat="48.35945" lon="2.75845">
        <ele>115.80000305176</ele>
        <time>2022-02-12T16:05:59Z</time>
      </trkpt>
      <trkpt lat="48.35939" lon="2.75852">
        <ele>115.80000305176</ele>
        <time>2022-02-12T16:06:04Z</time>
      </trkpt>
      <trkpt lat="48.35933" lon="2.75858">
        <ele>115.80000305176</ele>
        <time>2022-02-12T16:06:09Z</time>
      </trkpt>
      <trkpt lat="48.35928" lon="2.75865">
        <ele>115.80000305176</ele>
        <time>2022-02-12T16:06:14Z</time>
      </trkpt>
      <trkpt lat="48.35926" lon="2.75866">
        <ele>115.80000305176</ele>
        <time>2022-02-12T16:06:19Z</time>
      </trkpt>
      <trkpt lat="48.35921" lon="2.7587">
        <ele>115.80000305176</ele>
        <time>2022-02-12T16:06:24Z</time>
      </trkpt>
      <trkpt lat="48.35915" lon="2.75875">
        <ele>115.80000305176</ele>
        <time>2022-02-12T16:06:29Z</time>
      </trkpt>
      <trkpt lat="48.35909" lon="2.75878">
        <ele>115.80000305176</ele>
        <time>2022-02-12T16:06:34Z</time>
      </trkpt>
      <trkpt lat="48.35906" lon="2.75883">
        <ele>115.80000305176</ele>
        <time>2022-02-12T16:06:39Z</time>
      </trkpt>
      <trkpt lat="48.359" lon="2.75891">
        <ele>115.80000305176</ele>
        <time>2022-02-12T16:06:44Z</time>
      </trkpt>
      <trkpt lat="48.35895" lon="2.75894">
        <ele>115.80000305176</ele>
        <time>2022-02-12T16:06:49Z</time>
      </trkpt>
      <trkpt lat="48.35891" lon="2.75894">
        <ele>115.80000305176</ele>
        <time>2022-02-12T16:06:54Z</time>
      </trkpt>
      <trkpt lat="48.35889" lon="2.75897">
        <ele>115.80000305176</ele>
        <time>2022-02-12T16:06:59Z</time>
      </trkpt>
      <trkpt lat="48.35887" lon="2.75898">
        <ele>115.80000305176</ele>
        <time>2022-02-12T16:07:04Z</time>
      </trkpt>
      <trkpt lat="48.35879" lon="2.75906">
        <ele>115.80000305176</ele>
        <time>2022-02-12T16:07:09Z</time>
      </trkpt>
      <trkpt lat="48.35874" lon="2.75913">
        <ele>115.80000305176</ele>
        <time>2022-02-12T16:07:14Z</time>
      </trkpt>
      <trkpt lat="48.35872" lon="2.75915">
        <ele>115.80000305176</ele>
        <time>2022-02-12T16:07:19Z</time>
      </trkpt>
      <trkpt lat="48.35866" lon="2.75918">
        <ele>115.80000305176</ele>
        <time>2022-02-12T16:07:24Z</time>
      </trkpt>
      <trkpt lat="48.35857" lon="2.75925">
        <ele>115.80000305176</ele>
        <time>2022-02-12T16:07:29Z</time>
      </trkpt>
      <trkpt lat="48.35853" lon="2.75928">
        <ele>115.80000305176</ele>
        <time>2022-02-12T16:07:34Z</time>
      </trkpt>
      <trkpt lat="48.35846" lon="2.75932">
        <ele>115.80000305176</ele>
        <time>2022-02-12T16:07:39Z</time>
      </trkpt>
      <trkpt lat="48.3584" lon="2.75934">
        <ele>115.80000305176</ele>
        <time>2022-02-12T16:07:44Z</time>
      </trkpt>
      <trkpt lat="48.35835" lon="2.75941">
        <ele>115.80000305176</ele>
        <time>2022-02-12T16:07:49Z</time>
      </trkpt>
      <trkpt lat="48.35829" lon="2.75945">
        <ele>115.80000305176</ele>
        <time>2022-02-12T16:07:54Z</time>
      </trkpt>
      <trkpt lat="48.35821" lon="2.75951">
        <ele>115.80000305176</ele>
        <time>2022-02-12T16:07:59Z</time>
      </trkpt>
      <trkpt lat="48.35816" lon="2.75956">
        <ele>115.80000305176</ele>
        <time>2022-02-12T16:08:04Z</time>
      </trkpt>
      <trkpt lat="48.35813" lon="2.75957">
        <ele>115.80000305176</ele>
        <time>2022-02-12T16:08:09Z</time>
      </trkpt>
      <trkpt lat="48.35808" lon="2.75962">
        <ele>115.80000305176</ele>
        <time>2022-02-12T16:08:14Z</time>
      </trkpt>
      <trkpt lat="48.35803" lon="2.75967">
        <ele>115.80000305176</ele>
        <time>2022-02-12T16:08:19Z</time>
      </trkpt>
      <trkpt lat="48.35798" lon="2.75975">
        <ele>115.80000305176</ele>
        <time>2022-02-12T16:08:24Z</time>
      </trkpt>
      <trkpt lat="48.35795" lon="2.7598">
        <ele>115.80000305176</ele>
        <time>2022-02-12T16:08:29Z</time>
      </trkpt>
      <trkpt lat="48.35793" lon="2.75981">
        <ele>115.80000305176</ele>
        <time>2022-02-12T16:08:34Z</time>
      </trkpt>
      <trkpt lat="48.35787" lon="2.75987">
        <ele>115.80000305176</ele>
        <time>2022-02-12T16:08:39Z</time>
      </trkpt>
      <trkpt lat="48.35782" lon="2.75992">
        <ele>115.80000305176</ele>
        <time>2022-02-12T16:08:44Z</time>
      </trkpt>
      <trkpt lat="48.35775" lon="2.76">
        <ele>115.80000305176</ele>
        <time>2022-02-12T16:08:49Z</time>
      </trkpt>
      <trkpt lat="48.3577" lon="2.76003">
        <ele>115.80000305176</ele>
        <time>2022-02-12T16:08:54Z</time>
      </trkpt>
      <trkpt lat="48.35764" lon="2.76007">
        <ele>115.80000305176</ele>
        <time>2022-02-12T16:08:59Z</time>
      </trkpt>
      <trkpt lat="48.3576" lon="2.76012">
        <ele>115.80000305176</ele>
        <time>2022-02-12T16:09:04Z</time>
      </trkpt>
      <trkpt lat="48.35757" lon="2.76016">
        <ele>115.80000305176</ele>
        <time>2022-02-12T16:09:09Z</time>
      </trkpt>
      <trkpt lat="48.35755" lon="2.76017">
        <ele>115.80000305176</ele>
        <time>2022-02-12T16:09:14Z</time>
      </trkpt>
      <trkpt lat="48.35749" lon="2.7602">
        <ele>115.80000305176</ele>
        <time>2022-02-12T16:09:19Z</time>
      </trkpt>
      <trkpt lat="48.35745" lon="2.76025">
        <ele>115.80000305176</ele>
        <time>2022-02-12T16:09:24Z</time>
      </trkpt>
      <trkpt lat="48.3574" lon="2.76032">
        <ele>115.80000305176</ele>
        <time>2022-02-12T16:09:29Z</time>
      </trkpt>
      <trkpt lat="48.35736" lon="2.76037">
        <ele>115.80000305176</ele>
        <time>2022-02-12T16:09:34Z</time>
      </trkpt>
      <trkpt lat="48.35734" lon="2.7604">
        <ele>115.80000305176</ele>
        <time>2022-02-12T16:09:39Z</time>
      </trkpt>
      <trkpt lat="48.3573" lon="2.76046">
        <ele>115.80000305176</ele>
        <time>2022-02-12T16:09:44Z</time>
      </trkpt>
      <trkpt lat="48.35727" lon="2.76047">
        <ele>115.80000305176</ele>
        <time>2022-02-12T16:09:49Z</time>
      </trkpt>
      <trkpt lat="48.35722" lon="2.76053">
        <ele>115.80000305176</ele>
        <time>2022-02-12T16:09:54Z</time>
      </trkpt>
      <trkpt lat="48.3571" lon="2.7606">
        <ele>115.80000305176</ele>
        <time>2022-02-12T16:09:59Z</time>
      </trkpt>
      <trkpt lat="48.35702" lon="2.76062">
        <ele>115.80000305176</ele>
        <time>2022-02-12T16:10:04Z</time>
      </trkpt>
      <trkpt lat="48.35697" lon="2.76065">
        <ele>115.80000305176</ele>
        <time>2022-02-12T16:10:09Z</time>
      </trkpt>
      <trkpt lat="48.35695" lon="2.76065">
        <ele>115.80000305176</ele>
        <time>2022-02-12T16:10:14Z</time>
      </trkpt>
      <trkpt lat="48.35686" lon="2.76068">
        <ele>115.80000305176</ele>
        <time>2022-02-12T16:10:19Z</time>
      </trkpt>
      <trkpt lat="48.35679" lon="2.76074">
        <ele>115.80000305176</ele>
        <time>2022-02-12T16:10:24Z</time>
      </trkpt>
      <trkpt lat="48.35674" lon="2.76081">
        <ele>115.80000305176</ele>
        <time>2022-02-12T16:10:29Z</time>
      </trkpt>
      <trkpt lat="48.35663" lon="2.7609">
        <ele>115.80000305176</ele>
        <time>2022-02-12T16:10:34Z</time>
      </trkpt>
      <trkpt lat="48.35654" lon="2.76099">
        <ele>115.80000305176</ele>
        <time>2022-02-12T16:10:39Z</time>
      </trkpt>
      <trkpt lat="48.35646" lon="2.76102">
        <ele>115.59999847412</ele>
        <time>2022-02-12T16:10:44Z</time>
      </trkpt>
      <trkpt lat="48.3564" lon="2.76106">
        <ele>115.59999847412</ele>
        <time>2022-02-12T16:10:49Z</time>
      </trkpt>
      <trkpt lat="48.35635" lon="2.7611">
        <ele>115.59999847412</ele>
        <time>2022-02-12T16:10:54Z</time>
      </trkpt>
      <trkpt lat="48.3563" lon="2.76115">
        <ele>115.40000152588</ele>
        <time>2022-02-12T16:10:59Z</time>
      </trkpt>
      <trkpt lat="48.35624" lon="2.76119">
        <ele>115.40000152588</ele>
        <time>2022-02-12T16:11:04Z</time>
      </trkpt>
      <trkpt lat="48.35621" lon="2.76122">
        <ele>115.40000152588</ele>
        <time>2022-02-12T16:11:09Z</time>
      </trkpt>
      <trkpt lat="48.35616" lon="2.76125">
        <ele>115.40000152588</ele>
        <time>2022-02-12T16:11:14Z</time>
      </trkpt>
      <trkpt lat="48.35611" lon="2.76126">
        <ele>115.40000152588</ele>
        <time>2022-02-12T16:11:19Z</time>
      </trkpt>
      <trkpt lat="48.35606" lon="2.76131">
        <ele>115.59999847412</ele>
        <time>2022-02-12T16:11:24Z</time>
      </trkpt>
      <trkpt lat="48.35602" lon="2.76135">
        <ele>115.59999847412</ele>
        <time>2022-02-12T16:11:29Z</time>
      </trkpt>
      <trkpt lat="48.35601" lon="2.76134">
        <ele>115.80000305176</ele>
        <time>2022-02-12T16:11:34Z</time>
      </trkpt>
      <trkpt lat="48.35601" lon="2.76134">
        <ele>115.80000305176</ele>
        <time>2022-02-12T16:11:39Z</time>
      </trkpt>
      <trkpt lat="48.35601" lon="2.76134">
        <ele>115.80000305176</ele>
        <time>2022-02-12T16:11:44Z</time>
      </trkpt>
      <trkpt lat="48.35601" lon="2.76133">
        <ele>115.80000305176</ele>
        <time>2022-02-12T16:11:49Z</time>
      </trkpt>
      <trkpt lat="48.35601" lon="2.76133">
        <ele>115.80000305176</ele>
        <time>2022-02-12T16:11:54Z</time>
      </trkpt>
      <trkpt lat="48.35601" lon="2.76132">
        <ele>115.80000305176</ele>
        <time>2022-02-12T16:11:59Z</time>
      </trkpt>
    </trkseg>
  </trk>
</gpx>